[[{"header":{"parameterUnit":"m.s-1","parameterCategory":1,"la1":30.6,"la2":29.2853,"lo1":-89.7004,"lo2":-87.6739,"dy":0.0162,"dx":0.0183,"nx":112,"ny":82,"refTime":"2024-05-30T12:00:00:Z","depth":0,"parameterNumber":2,"parameterNumberName":"U-component_of_WINDS"},"data":[0.0,0.0,0.0,0.0,0.0,0.0,0.0,0.0,0.0,0.0,0.0,0.0,0.0,0.0,0.0,0.0,0.0,0.0,0.0,0.0,0.0,0.0,0.0,0.0,0.0,0.0,0.0,0.0,0.0,0.0,0.0,0.0,0.0,0.0,0.0,0.0,0.0,0.0,0.0,0.0,0.0,0.0,0.0,0.0,0.0,0.0,0.0,0.0,0.0,0.0,0.0,0.0,0.0,0.0,0.0,0.0,0.0,0.0,0.0,0.0,0.0,0.0,0.0,0.0,0.0,0.0,0.0,0.0,0.0,0.0,0.0,0.0,0.0,0.0,0.0,0.0,0.0,0.0,0.0,0.0,0.0,0.0,0.0,0.0,0.0,0.0,0.0,0.0,0.0,0.0,-4.7792,-5.2252,-5.5886,-5.7997,-5.7997,-5.64,-5.3775,-4.9939,0.0,0.0,0.0,0.0,0.0,0.0,0.0,0.0,0.0,0.0,0.0,0.0,0.0,0.0,0.0,0.0,0.0,0.0,0.0,0.0,0.0,0.0,0.0,0.0,0.0,0.0,0.0,0.0,0.0,0.0,0.0,0.0,0.0,0.0,0.0,0.0,0.0,0.0,0.0,0.0,0.0,0.0,0.0,0.0,0.0,0.0,0.0,0.0,0.0,0.0,0.0,0.0,0.0,0.0,0.0,0.0,0.0,0.0,0.0,0.0,0.0,0.0,0.0,0.0,0.0,0.0,0.0,0.0,0.0,0.0,0.0,0.0,0.0,0.0,0.0,0.0,0.0,0.0,0.0,0.0,0.0,0.0,0.0,0.0,0.0,0.0,0.0,0.0,0.0,0.0,0.0,0.0,0.0,0.0,0.0,0.0,0.0,0.0,0.0,0.0,0.0,0.0,0.0,0.0,-4.9259,-5.5427,-5.7226,-5.7997,-5.7997,-5.5904,-5.3445,-5.0765,0.0,0.0,0.0,0.0,0.0,0.0,0.0,0.0,0.0,0.0,0.0,0.0,0.0,0.0,0.0,0.0,0.0,0.0,0.0,0.0,0.0,0.0,0.0,0.0,0.0,0.0,0.0,0.0,0.0,0.0,0.0,0.0,0.0,0.0,0.0,0.0,0.0,0.0,0.0,0.0,0.0,0.0,0.0,0.0,0.0,0.0,0.0,0.0,0.0,0.0,0.0,0.0,0.0,0.0,0.0,0.0,0.0,0.0,0.0,0.0,0.0,0.0,0.0,0.0,0.0,0.0,0.0,0.0,0.0,0.0,0.0,0.0,0.0,0.0,0.0,0.0,0.0,0.0,0.0,0.0,0.0,0.0,0.0,0.0,0.0,0.0,0.0,0.0,0.0,0.0,0.0,0.0,0.0,0.0,0.0,0.0,0.0,0.0,0.0,0.0,0.0,0.0,0.0,-4.7462,-5.1096,-5.6253,-5.7519,-5.7997,-5.7997,-5.539,-5.2913,-5.093,-4.5736,0.0,0.0,0.0,0.0,0.0,0.0,0.0,0.0,0.0,0.0,0.0,0.0,0.0,0.0,0.0,0.0,0.0,0.0,0.0,0.0,0.0,0.0,0.0,0.0,0.0,0.0,0.0,0.0,0.0,0.0,0.0,0.0,0.0,0.0,0.0,0.0,0.0,0.0,0.0,0.0,0.0,0.0,0.0,0.0,0.0,0.0,0.0,0.0,0.0,0.0,0.0,0.0,0.0,0.0,0.0,0.0,0.0,0.0,0.0,0.0,0.0,0.0,0.0,0.0,0.0,0.0,0.0,0.0,0.0,0.0,0.0,0.0,0.0,0.0,0.0,0.0,0.0,0.0,0.0,0.0,0.0,0.0,0.0,0.0,0.0,0.0,0.0,0.0,0.0,0.0,0.0,0.0,0.0,0.0,0.0,0.0,0.0,0.0,0.0,0.0,0.0,0.0,-5.0508,-5.2839,-5.6675,-5.7629,-5.7923,-5.7721,-5.4766,-5.2142,-5.0325,-4.4305,0.0,0.0,0.0,0.0,0.0,0.0,0.0,0.0,0.0,0.0,0.0,0.0,0.0,0.0,0.0,0.0,0.0,0.0,0.0,0.0,0.0,0.0,0.0,0.0,0.0,0.0,0.0,0.0,0.0,0.0,0.0,0.0,0.0,0.0,0.0,0.0,0.0,0.0,0.0,0.0,0.0,0.0,0.0,0.0,0.0,0.0,0.0,0.0,0.0,0.0,0.0,0.0,0.0,0.0,0.0,0.0,0.0,0.0,0.0,0.0,0.0,0.0,0.0,0.0,0.0,0.0,0.0,0.0,0.0,0.0,0.0,0.0,0.0,0.0,0.0,0.0,0.0,0.0,0.0,0.0,0.0,0.0,0.0,0.0,0.0,0.0,0.0,0.0,0.0,0.0,0.0,0.0,0.0,0.0,0.0,0.0,0.0,0.0,0.0,0.0,0.0,0.0,-5.1114,-5.4289,-5.7574,-5.796,-5.7703,-5.695,-5.3922,-5.1041,-4.8636,-4.313,0.0,0.0,0.0,0.0,0.0,0.0,0.0,0.0,0.0,0.0,0.0,0.0,0.0,0.0,0.0,0.0,0.0,0.0,0.0,0.0,0.0,0.0,0.0,0.0,0.0,0.0,0.0,0.0,0.0,0.0,0.0,0.0,0.0,0.0,0.0,0.0,0.0,0.0,0.0,0.0,0.0,0.0,0.0,0.0,0.0,0.0,0.0,0.0,0.0,0.0,0.0,0.0,0.0,0.0,0.0,0.0,0.0,0.0,0.0,0.0,0.0,0.0,0.0,0.0,0.0,0.0,0.0,0.0,0.0,0.0,0.0,0.0,0.0,0.0,0.0,0.0,0.0,0.0,0.0,0.0,0.0,0.0,0.0,0.0,0.0,0.0,0.0,0.0,0.0,0.0,0.0,0.0,0.0,0.0,0.0,0.0,0.0,0.0,0.0,0.0,0.0,0.0,-5.0306,-5.3316,0.0,-5.7997,-5.7666,-5.6877,-5.4326,-5.1481,-4.8489,0.0,0.0,0.0,0.0,0.0,0.0,0.0,0.0,0.0,0.0,0.0,0.0,0.0,0.0,0.0,0.0,0.0,0.0,0.0,0.0,0.0,0.0,0.0,0.0,0.0,0.0,0.0,0.0,0.0,0.0,0.0,0.0,0.0,0.0,0.0,0.0,0.0,0.0,0.0,0.0,0.0,0.0,0.0,0.0,0.0,0.0,0.0,0.0,0.0,0.0,0.0,0.0,0.0,0.0,0.0,0.0,0.0,0.0,0.0,0.0,0.0,0.0,0.0,0.0,0.0,0.0,0.0,0.0,0.0,0.0,0.0,0.0,0.0,0.0,0.0,0.0,0.0,0.0,0.0,0.0,0.0,0.0,0.0,0.0,0.0,0.0,0.0,0.0,0.0,0.0,0.0,0.0,0.0,0.0,0.0,0.0,0.0,0.0,0.0,0.0,0.0,0.0,-4.7168,-5.005,-5.3133,0.0,-5.7611,-5.7299,-5.6492,-5.3482,-5.0362,-4.7352,0.0,0.0,0.0,0.0,0.0,0.0,0.0,0.0,0.0,0.0,0.0,0.0,0.0,0.0,0.0,0.0,0.0,0.0,0.0,0.0,0.0,0.0,0.0,0.0,0.0,0.0,0.0,0.0,0.0,0.0,0.0,0.0,0.0,0.0,0.0,0.0,0.0,0.0,0.0,0.0,0.0,0.0,0.0,0.0,0.0,0.0,0.0,0.0,0.0,0.0,0.0,0.0,0.0,0.0,0.0,0.0,0.0,0.0,0.0,0.0,0.0,0.0,0.0,0.0,0.0,0.0,0.0,0.0,0.0,0.0,0.0,0.0,0.0,0.0,0.0,0.0,0.0,0.0,0.0,0.0,0.0,0.0,0.0,0.0,0.0,0.0,0.0,0.0,0.0,0.0,0.0,0.0,0.0,0.0,0.0,0.0,0.0,0.0,0.0,0.0,0.0,0.0,-4.647,-5.0672,-5.4124,-5.6547,-5.6804,-5.6473,-5.5666,-5.1132,-4.7297,0.0,0.0,0.0,0.0,0.0,0.0,0.0,0.0,0.0,0.0,0.0,0.0,0.0,0.0,0.0,0.0,0.0,0.0,0.0,0.0,0.0,0.0,0.0,0.0,0.0,0.0,0.0,0.0,0.0,0.0,0.0,0.0,0.0,0.0,0.0,0.0,0.0,0.0,0.0,0.0,0.0,0.0,0.0,0.0,0.0,0.0,0.0,0.0,0.0,0.0,0.0,0.0,0.0,0.0,0.0,0.0,0.0,0.0,0.0,0.0,0.0,0.0,0.0,0.0,0.0,0.0,0.0,0.0,0.0,0.0,0.0,0.0,0.0,0.0,0.0,0.0,0.0,0.0,0.0,0.0,0.0,0.0,0.0,0.0,0.0,0.0,0.0,0.0,0.0,0.0,0.0,0.0,0.0,0.0,0.0,0.0,0.0,0.0,0.0,0.0,0.0,0.0,0.0,-4.647,-5.0672,-5.4124,-5.6547,-5.6804,-5.6473,-5.5666,-5.2197,-4.8526,-4.4947,0.0,0.0,0.0,0.0,0.0,0.0,0.0,0.0,0.0,0.0,0.0,0.0,0.0,0.0,0.0,0.0,0.0,0.0,0.0,0.0,0.0,0.0,0.0,0.0,0.0,0.0,0.0,0.0,0.0,0.0,0.0,0.0,0.0,0.0,0.0,0.0,0.0,0.0,0.0,0.0,0.0,0.0,0.0,0.0,0.0,0.0,0.0,0.0,0.0,0.0,0.0,0.0,0.0,0.0,0.0,0.0,0.0,0.0,0.0,0.0,0.0,0.0,0.0,0.0,0.0,0.0,0.0,0.0,0.0,0.0,0.0,0.0,0.0,0.0,0.0,0.0,0.0,0.0,0.0,0.0,0.0,0.0,0.0,0.0,0.0,0.0,0.0,0.0,0.0,0.0,0.0,0.0,0.0,0.0,0.0,0.0,0.0,0.0,0.0,0.0,0.0,0.0,-4.6012,-5.0196,-5.3647,-5.6069,-5.6033,-5.5776,-5.5592,-5.2344,-4.8838,-4.5406,0.0,0.0,0.0,0.0,0.0,0.0,0.0,0.0,0.0,0.0,0.0,0.0,0.0,0.0,0.0,0.0,0.0,0.0,0.0,0.0,0.0,0.0,0.0,0.0,0.0,0.0,0.0,0.0,0.0,0.0,0.0,0.0,0.0,0.0,0.0,0.0,0.0,0.0,0.0,0.0,0.0,0.0,0.0,0.0,0.0,0.0,0.0,0.0,0.0,0.0,0.0,0.0,0.0,0.0,0.0,0.0,0.0,0.0,0.0,0.0,0.0,0.0,0.0,0.0,0.0,0.0,0.0,0.0,0.0,0.0,0.0,0.0,0.0,0.0,0.0,0.0,0.0,0.0,0.0,0.0,0.0,0.0,0.0,0.0,0.0,0.0,0.0,0.0,0.0,0.0,0.0,0.0,0.0,0.0,0.0,0.0,0.0,0.0,0.0,0.0,0.0,0.0,-4.5296,-4.9462,-5.2915,-5.5247,-5.484,-5.4693,-5.5449,-5.1869,-4.8545,-4.6067,0.0,0.0,0.0,0.0,0.0,0.0,0.0,0.0,0.0,0.0,0.0,0.0,0.0,0.0,0.0,0.0,0.0,0.0,0.0,0.0,0.0,0.0,0.0,0.0,0.0,0.0,0.0,0.0,0.0,0.0,0.0,0.0,0.0,0.0,0.0,0.0,0.0,0.0,0.0,0.0,0.0,0.0,0.0,0.0,0.0,0.0,0.0,0.0,0.0,0.0,0.0,0.0,0.0,0.0,0.0,0.0,0.0,0.0,0.0,0.0,-4.2635,0.0,0.0,0.0,0.0,0.0,0.0,0.0,0.0,0.0,0.0,0.0,0.0,0.0,0.0,0.0,0.0,0.0,0.0,0.0,0.0,0.0,0.0,0.0,0.0,0.0,0.0,0.0,0.0,0.0,0.0,0.0,0.0,0.0,0.0,0.0,0.0,0.0,0.0,0.0,0.0,0.0,-4.5351,-4.9462,-5.2674,-5.4473,-5.4491,-5.4473,-5.4638,-5.1499,-4.8489,-4.6049,-4.1791,0.0,0.0,0.0,0.0,0.0,0.0,0.0,0.0,0.0,0.0,0.0,0.0,0.0,0.0,0.0,0.0,0.0,0.0,0.0,0.0,0.0,0.0,0.0,0.0,0.0,0.0,0.0,0.0,0.0,0.0,0.0,0.0,0.0,0.0,0.0,0.0,0.0,0.0,0.0,0.0,0.0,0.0,0.0,0.0,0.0,0.0,0.0,0.0,0.0,0.0,0.0,0.0,0.0,0.0,0.0,0.0,0.0,0.0,0.0,0.0,-4.5645,0.0,0.0,0.0,0.0,0.0,0.0,0.0,0.0,0.0,0.0,0.0,0.0,0.0,0.0,0.0,0.0,0.0,0.0,0.0,0.0,0.0,0.0,0.0,0.0,0.0,0.0,0.0,0.0,0.0,0.0,0.0,0.0,0.0,0.0,0.0,0.0,0.0,0.0,0.0,0.0,-4.592,-4.937,-5.2197,-5.4197,-5.4051,-5.3977,-5.4363,-5.2123,-4.9829,-4.7811,-4.3882,0.0,0.0,0.0,0.0,0.0,0.0,0.0,0.0,0.0,0.0,0.0,0.0,0.0,0.0,0.0,0.0,0.0,0.0,0.0,0.0,0.0,0.0,0.0,0.0,0.0,0.0,0.0,0.0,0.0,0.0,0.0,0.0,0.0,0.0,0.0,0.0,0.0,0.0,0.0,0.0,0.0,0.0,0.0,0.0,0.0,0.0,0.0,0.0,0.0,0.0,0.0,0.0,0.0,-5.2344,-5.2472,-5.2472,-5.2472,-5.2839,-5.339,-5.2071,-5.1298,-5.0784,-4.7774,0.0,0.0,0.0,0.0,0.0,0.0,0.0,0.0,0.0,0.0,0.0,0.0,0.0,0.0,0.0,0.0,0.0,0.0,0.0,0.0,0.0,0.0,0.0,0.0,-4.748,-4.6801,-4.1882,0.0,0.0,0.0,0.0,0.0,0.0,0.0,0.0,0.0,0.0,0.0,-4.6544,-4.9389,-5.183,-5.3959,-5.361,-5.3482,-5.4124,-5.2839,-5.1318,-4.9702,-4.6177,-4.3332,0.0,0.0,0.0,0.0,0.0,0.0,0.0,0.0,0.0,0.0,0.0,0.0,0.0,0.0,0.0,0.0,0.0,0.0,0.0,0.0,0.0,0.0,0.0,0.0,0.0,0.0,0.0,0.0,0.0,0.0,0.0,0.0,-4.1497,-4.1937,0.0,0.0,0.0,0.0,0.0,0.0,0.0,0.0,0.0,0.0,0.0,0.0,0.0,-5.1903,-5.2729,-5.4913,-5.6363,-5.706,-5.8474,-5.9134,-5.9134,-5.9134,-5.9189,-5.9281,-5.9079,0.0,-5.1683,-4.9867,0.0,0.0,0.0,0.0,0.0,0.0,0.0,0.0,0.0,0.0,0.0,0.0,0.0,0.0,0.0,0.0,0.0,0.0,0.0,0.0,0.0,0.0,-5.1628,-5.0435,-5.1316,-5.1791,0.0,-4.603,-4.2598,-4.0673,-3.9261,0.0,0.0,0.0,0.0,0.0,0.0,0.0,-4.6837,-4.9884,-5.2234,-5.3261,-5.3259,-5.3243,-5.3353,-5.2509,-5.1318,-4.9702,-4.7737,-4.559,-4.3277,-4.0763,0.0,0.0,0.0,0.0,0.0,0.0,0.0,0.0,0.0,0.0,0.0,0.0,0.0,0.0,0.0,0.0,0.0,0.0,0.0,0.0,0.0,0.0,0.0,0.0,0.0,0.0,0.0,0.0,0.0,-4.1846,-4.4323,-4.4323,-4.5039,-4.5039,0.0,0.0,0.0,0.0,0.0,0.0,0.0,0.0,0.0,-5.3445,-5.4711,-5.5757,-5.6542,-5.807,-5.9006,-5.9355,-6.007,-6.0401,-6.0401,-6.0401,-6.0401,-6.0401,-6.0401,-5.9006,-5.6528,-5.3995,-5.2013,-5.036,0.0,0.0,0.0,0.0,-4.8526,-4.8379,-5.0086,-4.9921,-4.8838,-4.8177,0.0,0.0,0.0,0.0,0.0,0.0,0.0,0.0,0.0,0.0,-5.3261,-5.3445,-5.4032,-5.4363,-5.3647,-5.1444,-4.86,0.0,-4.3902,-4.2618,-4.0102,0.0,0.0,0.0,0.0,-4.614,-4.8233,-5.0545,-5.2307,-5.3115,-5.3185,-5.3185,-5.3185,-5.2894,-5.1995,-5.038,-4.9132,-4.7572,-4.5608,-4.3204,-4.0818,0.0,0.0,0.0,0.0,0.0,0.0,0.0,0.0,0.0,0.0,0.0,0.0,0.0,0.0,0.0,0.0,0.0,0.0,0.0,0.0,0.0,0.0,0.0,0.0,0.0,0.0,0.0,0.0,-4.4544,-4.6764,-4.6544,-4.7792,-4.7938,0.0,0.0,0.0,0.0,0.0,0.0,-5.3427,-5.4491,-5.5702,-5.7079,-5.8712,-5.985,-6.0456,-6.1263,-6.1649,-6.1649,-6.1649,-6.1649,-6.1649,-6.1447,-6.1355,-6.1337,-6.1117,-6.0896,-6.0474,-5.7446,-5.539,-5.3977,-5.2362,-5.161,-5.1518,-5.2307,-5.2234,-5.2013,-5.4014,-5.4179,-5.328,-5.1885,-5.1151,-5.0235,-4.6966,0.0,0.0,0.0,0.0,-5.016,-5.2821,-5.3791,-5.4436,-5.5611,-5.6051,-5.6143,-5.5941,-5.5445,-5.3702,0.0,-4.8177,-4.7149,-4.4323,0.0,0.0,0.0,0.0,-4.781,-4.9684,-5.1298,-5.2546,-5.3151,-5.3185,-5.3185,-5.3185,-5.3023,-5.2289,-5.0894,-4.9994,-4.8802,-4.7168,-4.5186,-4.3259,-4.1425,0.0,0.0,0.0,0.0,0.0,0.0,0.0,0.0,0.0,0.0,0.0,0.0,0.0,0.0,0.0,0.0,0.0,0.0,0.0,0.0,0.0,0.0,0.0,0.0,0.0,0.0,0.0,0.0,0.0,-4.8288,-5.0986,0.0,0.0,0.0,0.0,-5.2784,-5.3683,-5.5188,-5.7574,-5.9189,-6.0438,-6.1263,-6.2915,-6.3796,-6.3833,-6.4659,-6.5063,-6.5063,-6.5063,-6.5063,-6.5044,-6.4255,-6.3906,-6.387,-6.3044,-6.2254,-6.1337,-5.8877,-5.7373,-5.6473,-5.4858,-5.3757,-5.3167,-5.3977,-5.4252,-5.4344,-5.5225,-5.5005,-5.4564,-5.5978,-5.5409,-5.3977,-5.3023,-5.1683,0.0,0.0,-5.2362,-5.3188,-5.4106,-5.5482,-5.6657,-5.673,-5.7317,-5.7666,-5.6914,-5.6712,-5.5702,0.0,-5.1132,-5.0068,-4.8306,0.0,-4.7957,-4.7994,-4.9462,-5.06,-5.0729,-5.2142,-5.317,-5.3185,-5.3185,-5.3185,-5.3185,-5.2509,-5.1701,-5.0857,-5.0031,-4.8838,-4.7168,-4.625,-4.4654,-4.2286,-3.9827,0.0,0.0,0.0,0.0,0.0,0.0,0.0,0.0,0.0,0.0,0.0,0.0,0.0,0.0,0.0,0.0,0.0,0.0,0.0,0.0,0.0,0.0,0.0,0.0,0.0,0.0,0.0,0.0,-5.2197,-5.4179,0.0,-5.3595,-5.4197,-5.5335,-5.6928,-5.7813,-5.9336,-6.1777,-6.2456,-6.3154,-6.3961,-6.4567,-6.4879,-6.4879,-6.5173,-6.5319,-6.5319,-6.5319,-6.5319,-6.5301,-6.5007,-6.4585,-6.4071,-6.3759,-6.3154,-6.2273,-6.0878,-5.9832,-5.9024,-5.7923,-5.7295,-5.7019,-5.6804,-5.6712,-5.6748,-5.7042,-5.695,-5.673,-5.6785,-5.6069,-5.5115,-5.4821,-5.4326,-5.4051,-5.4858,-5.5299,-5.5702,-5.651,-5.7134,-5.7574,-5.7574,-5.7795,-5.7923,-5.7629,-5.7574,-5.7079,-5.5409,-5.361,-5.1995,-5.0875,-5.0251,-4.9738,-4.9205,-5.0527,-5.1573,-5.1573,-5.2527,-5.3185,-5.3185,-5.3185,-5.3004,-5.2472,-5.216,-5.1187,-4.9315,-4.893,-4.8031,-4.6397,-4.5571,-4.4727,-4.3864,-4.1462,-3.8524,0.0,0.0,0.0,0.0,0.0,0.0,0.0,0.0,0.0,0.0,0.0,0.0,0.0,0.0,0.0,0.0,0.0,0.0,0.0,0.0,0.0,0.0,0.0,0.0,0.0,0.0,-5.4216,-5.473,-5.695,-5.7997,-5.6914,-5.8033,-5.941,-6.0768,-6.1355,-6.2475,-6.4402,-6.4751,-6.5154,-6.5705,-6.6237,-6.6512,-6.6512,-6.6512,-6.6512,-6.6512,-6.6237,-6.6109,-6.6109,-6.5833,-6.5411,-6.4879,-6.4622,-6.4016,-6.3209,-6.2658,-6.1961,-6.1117,-6.0034,-5.9588,-5.9496,-5.8712,-5.84,-5.8364,-5.8088,-5.7997,-5.7905,-5.7373,-5.684,-5.64,-5.64,-5.64,-5.651,-5.706,-5.7207,-5.7336,-5.785,-5.7997,-5.7997,-5.7997,-5.7997,-5.7997,-5.7997,-5.7997,-5.7831,-5.7317,-5.5702,-5.4161,-5.3353,-5.2546,-5.183,-5.1298,-5.1885,-5.2399,-5.2399,-5.2876,-5.3185,-5.3185,-5.3185,-5.2876,-5.2068,-5.1501,-5.049,-4.8838,-4.7957,-4.7131,-4.6342,-4.5278,-4.4691,-4.4691,-4.2066,-3.9289,-3.6395,0.0,0.0,0.0,0.0,0.0,0.0,0.0,0.0,0.0,0.0,0.0,0.0,0.0,0.0,0.0,0.0,0.0,0.0,0.0,0.0,0.0,0.0,0.0,-5.0949,-5.3665,-5.5724,-5.5794,-5.9263,-6.1043,-5.9533,-6.1496,-6.3246,-6.4108,-6.4163,-6.453,-6.5338,-6.6145,-6.6568,-6.6568,-6.8109,-6.8953,-6.8953,-6.8953,-6.8935,-6.8898,-6.8109,-6.7705,-6.765,-6.688,-6.6512,-6.6457,-6.5687,-6.4879,-6.4127,-6.409,-6.3594,-6.2695,-6.108,-6.0438,-6.0346,-5.9515,-5.9221,-5.9074,-5.8309,-5.8015,-5.7997,-5.7997,-5.7997,-5.7997,-5.7997,-5.7997,-5.7997,-5.7997,-5.7997,-5.7997,-5.7997,-5.7997,-5.7997,-5.7997,-5.7997,-5.7997,-5.7997,-5.7997,-5.7997,-5.7997,-5.7373,-5.6583,-5.5776,-5.4968,-5.4436,-5.4436,-5.3775,0.0,-5.3243,-5.3243,-5.3222,-5.3185,-5.3185,-5.2876,-5.2068,-5.0565,-4.961,-4.9537,-4.7223,-4.625,-4.6984,-4.5517,-4.4691,-4.4691,-4.1589,-3.8907,-3.6728,0.0,0.0,0.0,0.0,0.0,0.0,0.0,0.0,0.0,0.0,0.0,0.0,0.0,0.0,0.0,0.0,0.0,0.0,0.0,0.0,0.0,0.0,-5.4271,-5.4271,-5.6051,-5.8217,-6.0548,-6.1814,-6.2787,-6.3532,-6.4237,-6.4952,-6.5778,-6.5833,-6.6182,-6.699,-6.7797,-6.8238,-6.8238,-6.9247,-6.9761,-6.9761,-6.9761,-6.9486,-6.8898,-6.8678,-6.8256,-6.7687,-6.7467,-6.7045,-6.6494,-6.6274,-6.5723,-6.4916,-6.4328,-6.3961,-6.3576,-6.1924,-6.1263,-6.1172,-6.0382,-5.9698,-5.9166,-5.8969,-5.8492,-5.7997,-5.7997,-5.7997,-5.7997,-5.7997,-5.7997,-5.7997,-5.7997,-5.7997,-5.7997,-5.7997,-5.7997,-5.7997,-5.7997,-5.7997,-5.7997,-5.7997,-5.7997,-5.7997,-5.7997,-5.7813,-5.7409,-5.662,-5.5794,-5.5262,-5.5262,-5.5078,0.0,-5.4161,-5.4069,-5.3849,-5.3259,-5.3185,-5.2876,-5.2068,-5.1059,-4.9701,-4.7902,-4.6599,-4.5736,-4.537,-4.4929,-4.4691,-4.4691,-4.269,-4.1046,0.0,0.0,0.0,0.0,0.0,0.0,0.0,0.0,0.0,0.0,0.0,0.0,0.0,0.0,0.0,0.0,0.0,0.0,0.0,0.0,0.0,0.0,-5.4641,-5.695,-5.796,-5.8914,-6.0327,-6.2548,-6.3429,-6.4365,-6.5687,-6.6109,-6.6494,-6.6971,-6.7302,-6.7705,-6.8183,-6.8972,-6.9412,-6.9412,-7.0183,-7.0605,-7.0605,-7.0605,-7.0367,-6.9908,-6.9229,-6.866,-6.8183,-6.7834,-6.743,-6.699,-6.699,-6.6549,-6.5742,-6.4934,-6.4402,0.0,0.0,0.0,0.0,0.0,-6.0401,-5.9643,-5.9313,-5.8896,-5.8455,-5.8107,-5.7997,-5.7997,-5.7997,-5.7997,-5.7997,-5.7997,-5.7997,-5.7997,-5.7997,-5.7997,-5.7997,-5.7997,-5.7997,-5.7997,-5.7997,-5.7997,-5.7997,-5.7997,-5.7997,0.0,-5.7373,-5.6638,-5.6106,-5.6106,-5.5812,-5.5449,-5.495,-5.4601,-5.4216,-5.3757,-5.3387,-5.2876,-5.2068,-5.1261,0.0,0.0,0.0,-4.6049,-4.5241,-4.5204,0.0,0.0,0.0,0.0,0.0,0.0,0.0,0.0,-4.1105,-4.2087,0.0,0.0,0.0,0.0,0.0,0.0,0.0,0.0,0.0,0.0,0.0,0.0,0.0,0.0,0.0,0.0,-5.7226,-5.9153,-6.13,-6.1759,-6.2181,-6.3007,-6.4475,-6.576,-6.6549,-6.7357,-6.7834,-6.7834,-6.8586,-6.9045,-6.9045,0.0,0.0,0.0,0.0,-7.1421,-7.1421,-7.1421,-7.1384,-7.1274,-6.9853,-6.9082,-6.888,-6.8146,-6.7779,-6.7687,-6.7687,-6.7283,-6.6568,-6.5778,-6.4916,-6.3998,-6.3154,-6.278,-6.2713,-6.1998,-6.1227,-6.0438,-5.9722,0.0,0.0,-5.8364,-5.807,-5.7997,-5.7997,-5.7997,-5.7997,-5.7997,-5.7997,-5.7997,-5.7997,-5.7997,-5.7997,-5.7997,-5.7997,-5.7997,-5.7997,-5.7997,-5.7997,-5.7997,-5.7997,-5.7997,-5.7997,-5.7409,-5.695,-5.695,-5.6326,-5.5831,-5.5739,-5.5115,-5.4601,-5.4418,0.0,0.0,-5.2197,-5.1389,-5.0582,-4.9794,-4.8251,-4.702,-4.6231,-4.6286,-4.6249,-4.6082,-4.6205,-4.5976,-4.544,-4.6253,-4.6094,-4.5056,-4.4317,-4.5075,0.0,0.0,0.0,0.0,0.0,0.0,0.0,0.0,0.0,0.0,0.0,0.0,0.0,0.0,0.0,-5.6345,-5.9006,-6.1062,-6.152,-6.275,-6.3906,-6.4732,-6.5687,-6.6586,-6.7375,-6.8201,-6.8678,-6.8678,-6.9412,-6.9871,-6.9871,-7.0642,-7.1082,-7.1082,-7.1853,-7.2275,-7.2275,-7.2275,-7.1945,-7.1293,0.0,0.0,-6.8898,-6.8752,-6.8311,-6.7687,-6.7687,-6.7595,-6.7393,-6.6604,-6.5411,-6.3998,-6.3154,-6.278,-6.2762,-6.264,-6.2071,-6.1355,-6.119,-6.0291,-5.9166,-5.9001,-5.8529,-5.7997,-5.7997,-5.7997,0.0,-5.7997,-5.7997,-5.7997,-5.7997,-5.7997,-5.7997,-5.7997,-5.7997,-5.7997,-5.7997,-5.7997,-5.7997,-5.7997,-5.7997,-5.7997,-5.7997,-5.7868,-5.7776,-5.7776,-5.7629,-5.7299,-5.6657,-5.6436,-5.5849,-5.4546,-5.4252,-5.3849,-5.3041,-5.2234,-5.1408,-5.0618,-4.9646,-4.8788,-4.8037,-4.8612,-4.8411,-4.7198,-4.7222,-4.7174,-4.7053,-4.7231,-4.7493,-4.7898,-4.7208,-4.684,0.0,0.0,0.0,0.0,0.0,0.0,0.0,0.0,0.0,0.0,0.0,-5.0784,0.0,0.0,-5.6859,-5.8877,-6.0548,-6.1887,-6.2732,-6.3906,-6.4861,-6.5264,-6.6017,-6.6824,-6.7614,-6.8421,-6.8898,-6.8898,-7.0018,-7.0697,-7.0697,-7.1468,-7.1908,-7.1908,-7.2294,-7.2496,-7.2496,-7.2496,-7.2312,-7.1908,-7.1505,-7.0679,-6.9486,-6.9082,-6.8458,-6.7687,-6.7687,-6.7687,-6.7595,-6.6402,-6.5191,-6.3998,-6.3154,-6.278,-6.278,-6.278,-6.2567,-6.2144,-6.1741,-6.0805,-5.9716,-5.9313,-5.8657,-5.7997,-5.7997,-5.7997,-5.7997,-5.7997,-5.7997,-5.7997,-5.7997,-5.7997,-5.7997,-5.7997,-5.7997,-5.7997,-5.7997,-5.7997,-5.7997,-5.7997,-5.7997,-5.7997,-5.7997,-5.7997,-5.7997,-5.7997,-5.7997,-5.785,-5.7446,-5.706,-5.6345,-5.5133,-5.4638,-5.4069,-5.328,-5.2454,-5.183,-5.1426,-5.0637,-5.0039,-4.9674,-5.0038,-4.9887,-4.9163,-4.8834,-4.8685,-4.8685,-4.8406,-4.864,-4.9394,-4.9056,-4.8883,0.0,0.0,0.0,0.0,0.0,0.0,0.0,0.0,-4.88,-5.0618,-5.2142,-5.3794,-5.5904,-5.7079,-5.8639,-6.1392,-6.1979,-6.2603,-6.4108,-6.5026,-6.554,-6.554,-6.6237,-6.699,-6.7632,-6.8568,-6.9137,-6.9137,-7.0624,-7.1513,-7.1513,-7.2165,-7.2496,-7.2496,-7.2496,-7.2496,-7.2496,-7.2496,-7.2496,-7.2496,-7.1853,-7.1027,-7.0073,-6.9431,-6.8605,-6.7687,-6.7687,-6.7687,-6.7577,-6.5962,-6.4916,-6.4218,-6.3209,-6.278,-6.278,-6.278,-6.278,-6.2713,-6.2053,-6.1208,-6.0291,-5.9625,-5.8786,-5.7997,-5.7997,-5.7997,-5.7997,-5.7997,-5.7997,-5.7997,-5.7997,-5.7997,-5.7997,-5.7997,-5.7997,-5.7997,-5.7997,-5.7997,-5.7997,-5.7997,-5.7997,-5.7997,-5.7997,-5.7997,-5.7997,-5.7997,-5.7997,-5.7997,-5.7997,-5.7428,-5.673,-5.5904,-5.5115,-5.4234,-5.3277,-5.2619,-5.2174,-5.2032,-5.1407,-5.0936,-5.0664,-5.0624,-5.058,-5.0452,-4.9973,-4.9811,-4.9924,-4.9453,-4.9593,-5.0321,-5.0456,-5.0712,-4.2014,-4.247,-4.3626,-4.5865,-4.6636,-4.7957,0.0,0.0,-5.3167,-5.5519,-5.6712,-5.7629,-5.8639,-6.0034,-6.141,-6.2493,-6.3319,-6.4127,-6.5044,-6.587,-6.6366,-6.6366,-6.7063,-6.7595,-6.7687,-6.9064,-6.9963,-6.9963,-7.1468,-7.2367,-7.2367,-7.2459,-7.2496,-7.2496,-7.2496,-7.2496,-7.2496,-7.2496,-7.2496,-7.2496,-7.2422,-7.1578,-7.0091,-7.0,-6.9137,-6.7687,-6.7687,-6.7687,-6.7577,-6.5962,-6.5264,-6.5026,-6.3429,-6.278,-6.278,-6.278,-6.278,-6.2805,-6.2688,-6.1686,-6.0401,-6.0309,-5.9245,-5.7997,-5.7997,-5.7997,-5.7997,-5.7997,-5.7997,-5.7997,-5.7997,-5.7997,-5.7997,-5.7997,-5.7997,-5.7997,-5.7997,-5.7997,-5.7997,-5.7997,-5.7997,-5.7997,-5.7997,-5.7997,-5.7997,-5.7997,-5.7997,-5.7997,-5.7997,-5.7923,-5.7556,-5.6748,-5.5941,-5.484,-5.3335,-5.3112,-5.2809,-5.2144,-5.2007,-5.1374,-5.0145,-5.009,-4.9819,-4.9193,-4.9133,-4.9399,-5.0093,-5.0009,-5.0355,-5.1099,-5.1758,-5.1754,-4.4865,-4.6049,-4.7297,-4.8288,-4.9958,-5.1885,-5.3922,-5.4491,-5.5152,-5.7097,-5.8143,-5.8951,-5.9758,-6.0823,-6.2016,0.0,-6.3851,-6.4383,-6.5191,-6.5595,-6.5815,-6.5815,-6.6109,-6.6659,-6.7595,-6.9155,-7.0091,-7.0091,-7.1596,-7.2496,-7.2496,-7.2496,-7.2496,-7.2496,-7.2496,-7.2496,-7.2496,-7.2496,-7.2496,-7.2496,-7.2496,-7.1908,-7.0789,-7.0312,-6.921,-6.7687,-6.7687,-6.7687,-6.7577,-6.5962,-6.5319,-6.5136,-6.3441,-6.278,-6.278,-6.278,-6.278,-6.278,-6.278,-6.1759,-6.0401,-6.0401,-5.9318,-5.7997,-5.7997,-5.7997,-5.7997,-5.7997,-5.7997,-5.7997,-5.7997,-5.7997,-5.7997,-5.7997,-5.7997,-5.7997,-5.7997,-5.7997,-5.7997,-5.7997,-5.7997,-5.7997,-5.7997,-5.7997,-5.7997,-5.7997,-5.7997,-5.7997,-5.7997,-5.7997,-5.7685,-5.6895,-5.5666,-5.4638,-5.3959,-5.3482,-5.3082,-5.2769,-5.2747,-5.2486,-5.1892,-5.1444,-5.1094,-5.0823,-5.0472,-5.0433,-5.0742,-5.0728,-5.1133,-5.186,-5.2164,-5.2401,-4.6726,-4.8324,-4.9757,-5.0437,-5.2674,-5.4785,-5.5005,-5.5684,-5.6583,-5.7758,-5.8657,-5.9368,-5.996,-6.0915,-6.2144,-6.3815,-6.4292,-6.4714,-6.5521,-6.5632,-6.5558,-6.5338,-6.5319,-6.5852,-6.7228,-6.8605,-6.9614,-7.0073,-7.1394,-7.2275,-7.2496,-7.2496,-7.2496,-7.2496,-7.2496,-7.2496,-7.2496,-7.2496,-7.2496,-7.2496,-7.2496,-7.2092,-7.1256,-7.0238,-6.9009,-6.7687,-6.7687,-6.7687,-6.7577,-6.62,-6.5503,-6.5173,-6.3723,-6.3025,-6.278,-6.278,-6.278,-6.278,-6.278,-6.1906,-6.0694,-6.0474,-5.9465,-5.829,-5.807,-5.7997,-5.7997,-5.7997,-5.7997,-5.7997,-5.7997,-5.7997,-5.7997,-5.7997,-5.7997,-5.7997,-5.7997,-5.7997,-5.7997,-5.7997,-5.7997,-5.7997,-5.7997,-5.7997,-5.7997,-5.7997,-5.7997,-5.7997,-5.7997,-5.7997,-5.7685,-5.6895,-5.5757,-5.4876,-5.4436,-5.3679,-5.305,-5.2635,-5.244,-5.2237,-5.2054,-5.1537,-5.1329,-5.1543,-5.1128,-5.1081,-5.1494,-5.1505,-5.1894,-5.2638,-5.2638,-5.2942,-4.6985,-4.8324,-5.0161,-5.2509,-5.4344,-5.5757,-5.6547,-5.7354,-5.7941,-5.7997,-5.8657,-5.9203,-5.9221,-6.0529,-6.2144,-6.3815,-6.4751,-6.554,-6.6347,-6.6457,-6.6164,-6.5393,-6.5319,-6.5632,0.0,-6.7283,-6.8403,-6.9981,-7.0881,-7.1688,-7.2459,-7.2496,-7.2496,-7.2496,-7.2496,-7.2496,-7.2496,-7.2496,-7.2496,-7.2496,-7.2496,-7.2092,-7.1238,-6.9669,-6.8476,-6.7687,-6.7687,-6.7687,-6.7632,-6.6806,-6.5999,-6.5228,-6.4383,-6.3539,-6.278,-6.278,-6.278,-6.278,-6.278,-6.2273,-6.1429,-6.0658,-5.985,-5.9001,-5.8235,-5.7997,-5.7997,-5.7997,-5.7997,-5.7997,-5.7997,-5.7997,-5.7997,-5.7997,-5.7997,-5.7997,-5.7997,-5.7997,-5.7997,-5.7997,-5.7997,-5.7997,-5.7997,-5.7997,-5.7997,-5.7997,-5.7997,-5.7997,-5.7997,-5.7997,-5.7685,-5.6895,-5.6767,-5.6106,-5.4528,-5.3722,-5.2689,-5.1268,-5.05,-4.9809,-4.9152,-4.9107,-4.9447,-5.0159,-5.013,-5.0826,-5.2265,-5.2266,-5.2689,-5.3467,-5.3467,-5.3484,-4.9676,-5.1603,-5.357,-5.4904,-5.6227,-5.7262,-5.7538,-5.7813,-5.7997,-5.7997,-5.8657,-5.9184,-5.9184,-6.0089,-6.152,-6.3723,-6.4328,-6.4971,-6.6311,-6.6494,-6.5999,-6.4659,-6.4989,0.0,0.0,0.0,0.0,-6.9981,-7.0862,-7.167,-7.2459,-7.2496,-7.2496,-7.2496,-7.2496,-7.2496,-7.2496,-7.2496,-7.2496,-7.2496,-7.2496,-7.1798,-7.0495,-6.9945,-6.8972,-6.7687,-6.7687,-6.7687,-6.7632,-6.6824,-6.6035,-6.5228,-6.4402,-6.3576,-6.278,-6.278,-6.278,-6.278,-6.278,-6.2273,-6.1465,-6.0658,-5.9869,-5.9038,-5.8235,-5.7997,-5.7997,-5.7997,-5.7997,-5.7997,-5.7997,-5.7997,-5.7997,-5.7997,-5.7997,-5.7997,-5.7997,-5.7997,-5.7997,-5.7997,-5.7997,-5.7997,-5.7997,-5.7997,-5.7997,-5.7997,-5.7997,-5.7997,-5.7997,-5.7997,-5.7706,-5.6945,-5.6388,-5.5636,-5.4563,-5.375,-5.3078,-5.2572,-5.2328,-5.2078,-5.1869,-5.1428,-5.1296,-5.1554,-5.1573,-5.1809,-5.23,-5.2841,-5.3247,-5.3501,-5.3501,-5.3501,-5.1853,-5.3683,-5.5397,-5.6594,-5.746,-5.7997,-5.7997,-5.7997,-5.7923,-5.7629,-5.7997,-5.823,-5.7978,-5.8584,-5.9924,-6.2383,-6.3264,-6.4218,-6.5833,-6.6329,-6.6017,-6.4695,-6.5246,-6.5852,0.0,0.0,0.0,-6.9981,-7.0862,-7.167,-7.2459,-7.2496,-7.2496,-7.2496,-7.2496,-7.2496,-7.2496,-7.2496,-7.2496,-7.2496,-7.222,-7.1376,-7.0091,-6.9798,-6.8953,-6.7687,-6.7687,-6.7687,-6.765,-6.7136,-6.6292,-6.5264,-6.4732,-6.3815,-6.278,-6.278,-6.278,-6.278,-6.278,-6.2475,-6.1906,-6.1098,-6.0291,-5.9483,-5.8676,-5.8235,-5.7997,-5.7997,-5.7997,-5.7997,-5.7997,-5.7997,-5.7997,-5.7997,-5.7997,-5.7997,-5.7997,-5.7997,-5.7997,-5.7997,-5.7997,-5.7997,-5.7997,-5.7997,-5.7909,-5.7637,-5.7839,-5.7997,-5.7997,-5.7774,-5.7425,-5.6964,-5.6443,-5.5692,-5.4583,-5.3789,-5.3232,-5.2951,-5.2695,-5.255,-5.255,-5.2127,-5.2039,-5.2296,-5.2289,-5.2435,-5.2739,-5.3247,-5.3501,-5.3501,-5.3501,-5.3501,-5.3556,-5.4652,-5.5807,-5.7619,-5.8047,-5.8042,-5.7997,-5.796,-5.7703,-5.6914,-5.6712,-5.6436,0.0,0.0,-5.7538,-5.996,-6.1722,-6.3386,-6.5136,-6.609,-6.6329,0.0,0.0,0.0,0.0,0.0,0.0,-7.0036,0.0,-7.1615,-7.2459,-7.2496,-7.2496,-7.2496,-7.2496,-7.2496,-7.2496,-7.2496,-7.2496,-7.2496,-7.1688,-7.0881,-7.0073,-6.9265,-6.8458,-6.7687,-6.7687,-6.7687,-6.7687,-6.7687,-6.6751,-6.5319,-6.5319,-6.4292,-6.278,-6.278,-6.278,-6.278,-6.278,-6.278,-6.2677,-6.1814,-6.1025,-6.0254,-5.9386,-5.8621,-5.7997,-5.7997,-5.7997,-5.7997,-5.7997,-5.7997,-5.7997,-5.7997,-5.7997,-5.7997,-5.7997,-5.7997,-5.7997,-5.7997,-5.7997,-5.7997,-5.7997,-5.7973,-5.7726,-5.7058,-5.7449,-5.7844,-5.7886,-5.7327,-5.6887,-5.6791,-5.6765,-5.6161,-5.4578,-5.3858,-5.316,-5.2403,-5.17,-5.1303,-5.1303,-5.1303,-5.1657,-5.235,-5.2367,-5.2739,-5.3501,-5.3501,-5.3501,-5.3501,-5.3501,-5.3501,-5.6326,-5.7738,-5.8865,-5.9007,-5.8776,-5.8439,-5.8092,-5.7538,-5.6877,-5.6069,-5.5427,-5.4766,0.0,0.0,0.0,-5.9116,-6.1349,0.0,-6.587,-6.7393,0.0,-6.7173,0.0,-6.9027,-6.8641,-6.9688,0.0,0.0,-7.0642,-7.1027,-7.2441,-7.2496,-7.2496,-7.2496,-7.2496,-7.2496,-7.2496,-7.2496,-7.2496,-7.2496,-7.1688,-7.0881,-7.0073,-6.9265,-6.8458,-6.7687,-6.7687,-6.7687,-6.7687,-6.7687,-6.6751,-6.5319,-6.5319,-6.4292,-6.278,-6.278,-6.278,-6.278,-6.278,-6.278,-6.2585,-6.1172,-6.0566,-6.0144,-5.8731,-5.8162,-5.7997,-5.7997,-5.7997,-5.7997,-5.7997,-5.7997,-5.7997,-5.7997,-5.7997,-5.7997,-5.7997,-5.7997,-5.7997,-5.7997,-5.7997,-5.7997,-5.7997,-5.754,-5.7284,-5.7679,-5.6429,-5.5667,-5.6223,-5.6668,-5.6456,-5.5309,-5.5179,-5.4778,-5.3849,-5.3608,-5.3409,-5.3189,-5.3008,-5.2926,-5.2926,-5.2926,-5.301,-5.3196,-5.3196,-5.3298,-5.3501,-5.3501,-5.3501,-5.3501,-5.3501,-5.3501,-5.7938,-5.9121,-5.9931,-5.9248,-5.8894,-5.8291,-5.6754,-5.6345,-5.5629,-5.3429,-5.2876,0.0,-5.1279,-5.2674,0.0,0.0,0.0,0.0,-6.5154,-6.7448,-6.8733,0.0,-6.9651,0.0,-7.0018,-7.0789,-7.1439,0.0,-7.1413,-7.1541,-7.2459,-7.2496,-7.2496,-7.2496,-7.2496,-7.2496,-7.2496,-7.2496,-7.233,-7.1963,-7.1174,-7.0348,-6.9541,-6.8733,-6.8128,-6.7687,0.0,-6.7687,-6.7687,-6.7687,-6.6751,-6.5319,-6.5319,-6.4292,-6.278,-6.278,-6.278,-6.278,-6.278,-6.278,-6.2658,-6.1759,-6.0988,-6.0236,-5.9336,-5.8565,-5.7997,-5.7997,-5.7997,-5.7997,-5.7997,-5.7997,-5.7997,-5.7997,-5.7997,-5.7997,-5.7997,-5.7997,-5.7997,-5.7997,-5.7997,-5.7886,-5.7565,-5.7184,-5.692,-5.6978,-5.5893,-5.5131,-5.5203,-5.5599,-5.5541,-5.4682,-5.4589,-5.4296,-5.3551,-5.3501,-5.3501,-5.3501,-5.3501,-5.3501,-5.3501,-5.3501,-5.3501,-5.3501,-5.3501,-5.3501,-5.3501,-5.3501,-5.3501,-5.3501,-5.3501,-5.3501,-5.8959,-5.9621,-5.9981,-5.9028,-5.8701,-5.7928,-5.5175,-5.484,-5.4072,-5.0363,0.0,-4.9829,-4.8269,-5.0013,-5.227,-5.4106,0.0,-6.1979,-6.398,-6.6935,-6.8953,-6.9064,-7.0495,-7.1468,-7.1468,-7.1468,-7.1762,-7.2459,-7.2496,-7.2496,-7.2496,-7.2496,-7.2496,-7.2496,-7.2496,-7.2496,-7.2496,-7.2386,-7.2,-7.1274,-7.0385,-6.9577,-6.888,-6.8054,-6.7687,-6.7687,-6.7687,-6.7687,-6.7687,-6.7687,-6.6751,-6.5319,-6.5319,-6.4292,-6.278,-6.278,-6.278,-6.278,-6.278,-6.278,-6.2762,-6.2695,-6.1704,-6.0529,-6.0309,-5.9281,-5.8143,-5.8033,-5.7997,-5.7997,-5.7997,-5.7997,-5.7997,-5.7997,-5.7997,-5.7997,-5.7997,-5.7997,-5.7997,-5.7997,-5.7997,-5.7815,-5.7159,-5.6964,-5.6668,-5.5948,-5.5695,-5.532,-5.4665,-5.4589,-5.4558,-5.4451,-5.4451,-5.4186,-5.3551,-5.3501,-5.3501,-5.3501,-5.3501,-5.3501,-5.3501,-5.3501,-5.3501,-5.3501,-5.3501,-5.3501,-5.3501,-5.3501,-5.3501,-5.3501,-5.3501,-5.3501,-6.0229,-6.0563,-6.0437,-5.9509,-5.8775,-5.7771,-5.5834,-5.3959,0.0,0.0,-4.8618,-4.7443,-4.6489,-4.8324,-5.0987,-5.3922,0.0,0.0,0.0,0.0,-6.9155,0.0,0.0,0.0,0.0,0.0,0.0,0.0,0.0,-7.2496,-7.2496,-7.2496,-7.2496,-7.2496,-7.2496,-7.2496,-7.2496,-7.1853,-7.1421,-7.1274,-6.9816,-6.9045,-6.888,-6.8054,-6.7687,-6.7687,-6.7687,0.0,-6.7687,-6.7687,-6.6751,-6.5319,-6.5319,-6.4292,-6.278,-6.278,-6.278,-6.278,-6.278,-6.278,-6.2695,-6.2016,-6.1612,-6.1135,-5.9813,-5.9203,-5.8836,-5.8198,-5.7997,-5.7997,-5.7997,-5.7997,-5.7997,-5.7997,-5.7997,-5.7997,-5.7997,-5.7997,-5.7997,-5.7997,-5.7997,-5.7973,-5.7839,-5.7284,-5.6843,-5.6695,-5.5599,-5.4726,-5.462,-5.4589,-5.4374,-5.375,-5.3701,-5.3634,-5.3501,-5.3501,-5.3501,-5.3501,-5.3501,-5.3501,-5.3501,-5.3501,-5.3501,-5.3501,-5.3501,-5.3501,-5.3501,-5.3501,-5.3501,-5.3501,-5.3501,-5.3501,-6.055,-6.08,-6.0565,-5.9644,-5.8803,-5.7296,-5.3881,0.0,0.0,0.0,-4.6122,-4.5608,-4.48,-4.6985,0.0,0.0,0.0,0.0,0.0,0.0,0.0,0.0,0.0,0.0,0.0,0.0,0.0,0.0,0.0,-7.2496,-7.2496,-7.2496,-7.2496,-7.2496,-7.2496,-7.2496,-7.2496,-7.1706,-7.1101,-7.066,-6.9467,-6.8678,-6.8256,-6.7871,-6.7687,-6.7687,-6.7687,-6.7687,-6.7687,-6.7687,-6.699,-6.5888,-6.5466,-6.4567,-6.3429,-6.2989,-6.278,-6.278,-6.278,-6.278,-6.275,-6.2346,-6.1942,-6.1447,-6.0676,-5.9869,-5.9111,-5.8749,-5.8327,-5.7997,-5.7997,-5.7997,-5.7997,-5.7997,-5.7997,-5.7997,-5.7997,-5.7997,-5.7997,-5.7997,-5.7997,-5.775,-5.6935,-5.6501,-5.615,-5.5741,-5.4761,-5.4154,-5.4558,-5.4264,-5.3881,-5.3534,-5.3501,-5.3501,-5.3501,-5.3501,-5.3501,-5.3501,-5.3501,-5.3501,-5.3501,-5.3501,-5.3501,-5.3501,-5.3501,-5.3501,-5.3501,-5.3501,-5.3501,-5.3501,-5.3501,-5.3501,-6.055,-6.08,-6.0565,-5.9644,-5.8671,-5.6731,-5.2112,-5.0655,0.0,0.0,-4.4121,-4.425,-4.3608,0.0,-4.8049,0.0,-5.3335,0.0,0.0,0.0,0.0,0.0,0.0,0.0,0.0,0.0,0.0,0.0,0.0,0.0,-7.2496,-7.2496,-7.2496,-7.2496,-7.2496,-7.2496,-7.2496,-7.1541,-7.0734,-7.0091,-6.9119,-6.8311,-6.7687,-6.7687,-6.7687,-6.7687,-6.7687,0.0,-6.7687,-6.7687,-6.7228,-6.6421,-6.5613,-6.4806,-6.398,-6.3135,-6.278,-6.278,-6.278,-6.278,-6.278,-6.278,-6.2383,-6.1814,-6.1649,-6.0603,-5.9404,-5.9239,-5.8621,-5.7997,-5.7997,-5.7997,-5.7997,-5.7997,-5.7997,-5.7997,-5.7997,-5.7997,-5.7997,-5.7997,-5.7997,-5.757,-5.6196,-5.5948,-5.5638,-5.4743,-5.4106,-5.3881,-5.4328,-5.3865,-5.3501,-5.3501,-5.3501,-5.3501,-5.3501,-5.3501,-5.3501,-5.3501,-5.3501,-5.3501,-5.3501,-5.3501,-5.3501,-5.3501,-5.3501,-5.3501,-5.3501,-5.3501,-5.3501,-5.3501,-5.3501,-5.3501,-6.055,-6.08,-6.0565,-5.9644,-5.8253,-5.6184,-5.2684,0.0,0.0,-4.5131,-4.4066,-4.3589,-4.3497,-4.4342,-4.6269,0.0,0.0,-5.5427,0.0,0.0,0.0,0.0,0.0,0.0,0.0,0.0,0.0,0.0,0.0,0.0,-7.2496,-7.2496,-7.2496,-7.2496,-7.2496,-7.2496,-7.2496,-7.0972,-7.0165,-7.0073,-6.8531,-6.776,-6.7687,-6.7687,-6.7687,-6.7687,-6.7687,0.0,0.0,-6.7687,-6.7228,-6.6421,-6.5613,-6.4806,-6.398,-6.3135,-6.278,-6.278,-6.278,-6.278,-6.278,-6.278,-6.2743,-6.2567,-6.1814,-6.0988,-6.0144,-5.9404,-5.8621,-5.7997,-5.7997,-5.7997,-5.7997,-5.7997,-5.7997,-5.7997,-5.7997,-5.7997,-5.7997,-5.7997,-5.7997,-5.775,-5.6938,-5.6791,-5.6304,-5.4818,-5.4527,-5.4296,-5.3668,-5.3517,-5.3501,-5.3501,-5.3501,-5.3501,-5.3501,-5.3501,-5.3501,-5.3501,-5.3501,-5.3501,-5.3501,-5.3501,-5.3501,-5.3501,-5.3501,-5.3501,-5.3501,-5.3501,-5.3501,-5.3501,-5.3501,-5.3501,-5.9511,-6.0194,-6.0297,-5.9916,-5.7819,-5.5134,-5.2327,0.0,-4.6874,-4.4488,-4.3718,-4.3515,-4.3515,-4.4158,-4.5535,-4.814,-4.9958,-5.2656,-5.7317,0.0,0.0,0.0,0.0,0.0,0.0,0.0,0.0,0.0,0.0,0.0,-7.2496,-7.2496,-7.2496,-7.2496,-7.2496,-7.2496,-7.2496,-7.0899,-7.0091,-7.0073,-6.8458,-6.7687,-6.7687,-6.7687,-6.7687,-6.7687,-6.7687,0.0,0.0,-6.7687,-6.7504,-6.7081,-6.5815,-6.5099,-6.4659,-6.3301,-6.278,-6.278,-6.278,-6.278,-6.278,-6.278,-6.278,-6.2725,-6.242,-6.1429,-6.0346,-6.0015,-5.8988,-5.7997,-5.7997,-5.7997,-5.7997,-5.7997,-5.7997,-5.7997,-5.7997,-5.7997,-5.7997,-5.7997,-5.7637,-5.7091,-5.6295,-5.5798,-5.5149,-5.4106,-5.3946,-5.3832,-5.3534,-5.3501,-5.3501,-5.3501,-5.3501,-5.3501,-5.3501,-5.3501,-5.3501,-5.3501,-5.3501,-5.3501,-5.3501,-5.3501,-5.3501,-5.3501,-5.3501,-5.3501,-5.3501,-5.3501,-5.3501,-5.3501,-5.3501,-5.3501,-5.8146,-5.923,-5.9665,-5.9417,-5.7215,-5.441,0.0,-4.9029,-4.6415,-4.3993,-4.3515,-4.3515,-4.3515,-4.3956,-4.4947,-4.6801,-4.8489,-5.0987,-5.5045,-5.7685,0.0,0.0,0.0,0.0,0.0,0.0,0.0,0.0,0.0,0.0,-7.2496,-7.2496,-7.2496,-7.2496,-7.2496,-7.2386,-7.2165,-7.0789,-6.9981,-6.9724,-6.8348,-6.7687,-6.7687,-6.7687,-6.7687,-6.7687,-6.7687,0.0,0.0,-6.7687,-6.7687,-6.7522,-6.5925,-6.5319,-6.5118,-6.3429,-6.278,-6.278,-6.278,-6.278,-6.278,-6.278,-6.278,-6.278,-6.278,-6.1851,-6.0713,-6.0474,-5.9245,-5.7997,-5.7997,-5.7997,-5.7997,-5.7997,-5.7997,-5.7997,-5.7997,-5.7839,-5.766,-5.766,-5.7047,-5.6286,-5.5524,-5.4952,-5.4342,-5.3618,-5.3501,-5.3501,-5.3501,-5.3501,-5.3501,-5.3501,-5.3501,-5.3501,-5.3501,-5.3501,-5.3501,-5.3501,-5.3501,-5.3501,-5.3501,-5.3501,-5.3501,-5.3501,-5.3501,-5.3501,-5.3501,-5.3501,-5.3501,-5.3501,-5.3501,-5.3501,-5.6558,-5.7896,-5.8621,-5.7825,-5.6352,-5.4224,-5.0962,-4.8586,-4.6415,-4.3993,-4.3515,-4.3515,-4.3515,-4.3515,-4.4287,-4.6709,-4.8453,-5.093,-5.5027,-5.7685,0.0,0.0,0.0,0.0,0.0,0.0,0.0,0.0,0.0,0.0,-7.2496,-7.2496,-7.2496,-7.2496,-7.2496,-7.2129,-7.1311,-7.0513,-6.9706,-6.8898,-6.8091,-6.7687,-6.7687,-6.7687,-6.7687,-6.7687,0.0,0.0,0.0,-6.7687,-6.7687,-6.7522,-6.5925,-6.5319,-6.5118,-6.3429,-6.278,-6.278,-6.278,-6.278,-6.278,-6.278,-6.278,-6.278,-6.278,-6.2236,-6.141,-6.0621,-5.9245,-5.7997,-5.7997,-5.7997,-5.7997,-5.7997,-5.7997,-5.7997,-5.7997,-5.7425,-5.6912,-5.6912,-5.6241,-5.5495,-5.4726,-5.462,-5.4342,-5.3618,-5.3501,-5.3501,-5.3501,-5.3501,-5.3501,-5.3501,-5.3501,-5.3501,-5.3501,-5.3501,-5.3501,-5.3501,-5.3501,-5.3501,-5.3501,-5.3501,-5.3501,-5.3501,-5.3501,-5.3501,-5.3501,-5.3501,-5.3501,-5.3501,-5.3501,-5.3501,-5.3058,-5.3843,-5.4153,-5.4236,-5.2347,-5.0121,-4.8839,-4.6937,-4.5076,-4.3754,-4.3515,-4.3515,-4.3515,-4.3515,-4.447,-4.7443,-4.882,0.0,0.0,0.0,0.0,0.0,0.0,0.0,0.0,0.0,0.0,0.0,0.0,0.0,-7.0881,-7.0862,-7.1119,-7.167,-7.1688,-7.1303,-7.0495,-6.9688,-6.9155,-6.8898,-6.8072,-6.7687,-6.7687,-6.7687,-6.7687,0.0,0.0,0.0,0.0,-6.7687,-6.7375,-6.6769,-6.5723,-6.4971,-6.4328,-6.3227,-6.278,-6.278,-6.278,-6.278,-6.278,-6.278,-6.278,-6.278,-6.278,-6.2236,-6.1429,-6.0639,-5.9648,-5.8822,-5.8822,-5.8419,-5.7997,-5.7997,-5.7997,-5.7862,-5.7351,-5.7065,-5.6739,-5.6186,-5.5466,-5.4861,-5.4651,-5.4186,-5.3783,-5.3534,-5.3501,-5.3501,-5.3501,-5.3501,-5.3501,-5.3501,-5.3501,-5.3501,-5.3501,-5.3501,-5.3501,-5.3501,-5.3501,-5.3501,-5.3501,-5.3501,-5.3501,-5.3501,-5.3501,-5.3501,-5.3501,-5.3501,-5.3501,-5.3501,-5.3501,-5.3771,0.0,-5.1236,-5.1532,-5.1688,-5.0,-4.8126,-4.7481,-4.5973,-4.447,-4.3663,-4.3515,-4.3515,-4.3515,-4.3515,-4.4342,-4.6966,-4.8324,0.0,0.0,0.0,0.0,0.0,0.0,0.0,0.0,0.0,0.0,0.0,0.0,0.0,-7.0128,-7.0091,-7.0183,-7.0403,-7.0697,-7.0458,-6.9651,-6.9155,-6.8752,-6.844,-6.7926,-6.7687,-6.7687,-6.7687,-6.7687,0.0,0.0,0.0,0.0,-6.7357,-6.6953,-6.6384,-6.5283,-6.453,-6.398,-6.3135,-6.278,-6.278,-6.278,-6.278,-6.278,-6.278,-6.278,-6.278,-6.278,-6.2236,-6.1502,-6.0988,-6.0272,-5.9577,-5.928,-5.8823,-5.8391,-5.8054,-5.7793,-5.7474,-5.7012,-5.6446,-5.5882,-5.5379,-5.4682,-5.4186,-5.4186,-5.3799,-5.3501,-5.3501,-5.3501,-5.3501,-5.3501,-5.3501,-5.3501,-5.3501,-5.3501,-5.3501,-5.3501,-5.3501,-5.3501,-5.3501,-5.3501,-5.3501,-5.3501,-5.3501,-5.3501,-5.3501,-5.3501,-5.3501,-5.3501,-5.3501,-5.3501,-5.3518,-5.3788,-5.416,0.0,-4.9668,-5.0165,-4.9772,-4.8796,-4.7684,-4.6631,-4.5458,0.0,-4.3662,-4.3515,-4.3533,-4.3662,-4.3608,-4.4158,-4.5957,0.0,0.0,0.0,0.0,0.0,0.0,0.0,0.0,0.0,0.0,0.0,0.0,0.0,0.0,-6.9926,-6.9926,-6.9596,-6.8843,-6.9541,-6.9577,-6.8825,-6.8807,-6.844,-6.7687,-6.7687,-6.7687,-6.7687,-6.7632,-6.7595,0.0,0.0,0.0,0.0,-6.6714,-6.6384,-6.6182,-6.4677,-6.4053,-6.3906,-6.3099,-6.278,-6.278,-6.278,-6.278,-6.278,-6.278,-6.2755,-6.2712,-6.2712,-6.2223,-6.1686,-6.1686,-6.1074,-6.0237,-5.949,-5.9204,-5.8923,-5.8184,-5.7488,-5.694,-5.6929,-5.5719,-5.4676,-5.4614,-5.3996,-5.3501,-5.3501,-5.3501,-5.3501,-5.3501,-5.3501,-5.3501,-5.3501,-5.3501,-5.3501,-5.3501,-5.3501,-5.3501,-5.3501,-5.3501,-5.3501,-5.3501,-5.3501,-5.3501,-5.3501,-5.3501,-5.3501,-5.3501,-5.3501,-5.3501,-5.3501,-5.3501,-5.3534,-5.3602,-5.4279,-5.4651,-4.5927,0.0,-4.5935,-4.5528,-4.5032,-4.456,0.0,-4.4005,-4.3718,-4.3551,0.0,-4.3882,-4.5112,-4.4837,-4.5571,0.0,0.0,0.0,0.0,0.0,0.0,0.0,0.0,0.0,0.0,0.0,0.0,0.0,0.0,-6.8917,-6.8293,-6.8256,-6.8164,-6.7981,-6.8164,-6.8164,-6.7981,-6.7981,-6.7889,-6.7687,-6.7687,-6.7687,-6.7696,-6.7063,-6.6769,0.0,0.0,0.0,-6.5852,-6.5668,-6.5228,-6.4622,-6.4237,-6.3686,-6.3099,-6.2897,-6.278,-6.278,-6.278,-6.278,-6.278,-6.278,-6.2376,-6.187,-6.187,-6.2196,-6.253,-6.253,-6.1511,-6.0367,-6.0187,-5.9205,-5.8225,-5.8036,-5.7865,-5.7575,-5.6962,-5.6088,-5.5268,-5.4701,-5.3991,-5.3501,-5.3501,-5.3501,-5.3501,-5.3501,-5.3501,-5.3501,-5.3501,-5.3501,-5.3501,-5.3501,-5.3501,-5.3501,-5.3501,-5.3501,-5.3501,-5.3501,-5.3501,-5.3501,-5.3501,-5.3501,-5.3501,-5.3501,-5.3501,-5.3501,-5.3501,-5.3501,-5.3788,-5.4346,-5.4515,-5.5192,-4.4818,-4.5004,-4.5052,-4.4647,-4.4313,-4.4048,-4.4048,-4.3754,0.0,0.0,0.0,0.0,0.0,0.0,0.0,0.0,0.0,0.0,0.0,0.0,0.0,0.0,0.0,0.0,0.0,0.0,0.0,0.0,0.0,-6.8146,-6.7705,-6.7687,-6.7687,-6.7687,-6.7687,-6.7687,-6.7687,-6.7687,-6.7687,-6.7687,-6.7687,-6.7687,-6.7687,-6.7247,-6.6843,0.0,0.0,0.0,-6.5283,-6.4897,-6.4494,-6.4053,-6.3649,-6.3227,-6.278,-6.278,-6.278,-6.278,-6.278,-6.2567,-6.2271,-6.2271,-6.1705,-6.1055,-6.1055,-6.1361,-6.1705,-6.1705,-6.1073,-6.0313,-5.9893,-5.9166,-5.8398,-5.8046,-5.7706,-5.7315,-5.6866,-5.6199,-5.5569,-5.5194,-5.4786,-5.4515,-5.4515,-5.4228,-5.4008,-5.4008,-5.3721,-5.3501,-5.3501,-5.3501,-5.3501,-5.3501,-5.3501,-5.3501,-5.3501,-5.3501,-5.3501,-5.3501,-5.3501,-5.3501,-5.3501,-5.3501,-5.3501,-5.3501,-5.3501,-5.367,-5.4008,-5.4008,-5.438,-5.5108,-5.5446,-5.6038,-4.4344,-4.5184,-4.573,-4.5097,-4.482,-4.4654,-4.4526,0.0,0.0,0.0,0.0,0.0,0.0,-4.581,0.0,0.0,0.0,0.0,0.0,0.0,0.0,0.0,0.0,0.0,0.0,0.0,0.0,0.0,0.0,-6.7687,-6.7687,-6.7687,-6.7687,-6.7687,-6.7687,-6.7687,-6.7687,-6.7687,-6.7687,-6.7687,-6.7687,-6.7687,-6.7687,-6.7448,-6.6953,-6.6292,0.0,0.0,-6.4879,-6.4182,-6.3888,-6.3833,-6.3099,-6.278,-6.2798,-6.2661,-6.2686,-6.278,-6.278,-6.2271,-6.1586,-6.1586,-6.0967,-6.018,-6.018,-6.0135,-6.0041,-6.0041,-6.0104,-6.0023,-5.9278,-5.9027,-5.8737,-5.8082,-5.7408,-5.6968,-5.6968,-5.6393,-5.5886,-5.5886,-5.5801,-5.5681,-5.5681,-5.5192,-5.4718,-5.4617,-5.4059,-5.3636,-5.3518,-5.3501,-5.3501,-5.3501,-5.3501,-5.3501,-5.3501,-5.3501,-5.3501,-5.3501,-5.3501,-5.3501,-5.3501,-5.3501,-5.3551,-5.367,-5.367,-5.4025,-5.4769,-5.4769,-5.5141,-5.5902,-5.6511,-5.6867,-4.3699,-4.5192,-4.5887,-4.4197,-4.4229,-4.4525,-4.3828,0.0,0.0,0.0,0.0,0.0,0.0,0.0,0.0,0.0,0.0,0.0,0.0,0.0,0.0,0.0,0.0,0.0,0.0,0.0,0.0,0.0,0.0,-6.7687,-6.7687,-6.7687,-6.7687,-6.7687,-6.7687,-6.7687,-6.7687,-6.7687,-6.7687,-6.7687,-6.7687,-6.7687,-6.7659,-6.6292,-6.5613,-6.5411,0.0,-6.3294,-6.3191,-6.3062,-6.3007,-6.3007,-6.2835,-6.278,-6.273,-6.2023,-6.2219,-6.278,-6.278,-6.2271,-6.1586,-6.1586,-6.0544,-5.9311,-5.9311,-5.8823,-5.8263,-5.8263,-5.8755,-5.9278,-5.9144,-5.8582,-5.8046,-5.7918,-5.7797,-5.7729,-5.7729,-5.7154,-5.663,-5.663,-5.6139,-5.5681,-5.5681,-5.5632,-5.5327,-5.4685,-5.4499,-5.4194,-5.3585,-5.3501,-5.3501,-5.3501,-5.3501,-5.3501,-5.3501,-5.3501,-5.3501,-5.3501,-5.3501,-5.3501,-5.3501,-5.3501,-5.3788,-5.4414,-5.4431,-5.4786,-5.5547,-5.5547,-5.5919,-5.663,-5.6748,-5.712,-4.2984,-4.4069,-4.4729,-4.4266,-4.5755,-4.7131,-4.6287,-4.6085,0.0,0.0,0.0,0.0,0.0,0.0,0.0,0.0,0.0,0.0,0.0,0.0,0.0,0.0,0.0,0.0,0.0,0.0,0.0,0.0,0.0,0.0,-6.6439,-6.6402,-6.6402,-6.6402,-6.6402,-6.6402,-6.6402,-6.6402,-6.6843,-6.7687,-6.7687,-6.7467,-6.7026,-6.6292,-6.5466,-6.4604,0.0,-6.3246,-6.278,-6.278,-6.278,-6.278,-6.278,-6.278,-6.2686,-6.1897,-6.1824,-6.2076,-6.1632,-6.1247,-6.0879,-6.0392,-5.9426,-5.8441,-5.8441,-5.8192,-5.7881,-5.7881,-5.8173,-5.8441,-5.8441,-5.8173,-5.7881,-5.7881,-5.7881,-5.7881,-5.7881,-5.7628,-5.7391,-5.7391,-5.712,-5.6884,-5.6884,-5.6241,-5.5563,-5.526,-5.4515,-5.3873,-5.3551,-5.3501,-5.3501,-5.3501,-5.3501,-5.3501,-5.3501,-5.3501,-5.3501,-5.3501,-5.3501,-5.3501,-5.3501,-5.3873,-5.4245,-5.4583,-5.4989,-5.5564,-5.6292,-5.6292,-5.6681,-5.7391,-5.7391,-5.7577,-4.2335,-4.3065,-4.3681,-4.4507,0.0,-4.8416,-4.8324,-4.8159,0.0,0.0,0.0,0.0,0.0,0.0,0.0,0.0,0.0,0.0,0.0,0.0,0.0,0.0,0.0,0.0,0.0,0.0,0.0,0.0,0.0,0.0,-6.5338,-6.5319,-6.5319,-6.5319,-6.5319,-6.5319,-6.5319,-6.5319,-6.5925,-6.7136,-6.7136,-6.6824,-6.6219,-6.6017,-6.5264,-6.409,-6.387,-6.3429,-6.278,-6.278,-6.278,-6.278,-6.278,-6.2567,-6.2192,-6.1742,-6.1343,-6.095,-6.0549,-6.026,-5.9991,-5.9311,-5.8564,-5.7881,-5.7881,-5.7881,-5.7881,-5.7881,-5.7881,-5.7881,-5.7881,-5.7881,-5.7881,-5.7881,-5.7881,-5.7881,-5.7881,-5.7881,-5.7881,-5.7881,-5.7881,-5.7881,-5.7881,-5.6968,-5.6105,-5.5732,-5.4752,-5.389,-5.3551,-5.3501,-5.3501,-5.3501,-5.3501,-5.3501,-5.3501,-5.3501,-5.3501,-5.3501,-5.367,-5.3754,-5.3754,-5.4465,-5.4938,-5.5108,-5.5683,-5.6325,-5.7053,-5.7053,-5.734,-5.7881,-5.7881,-5.7881,-4.1914,-4.2907,-4.3681,-4.4507,-4.4892,-4.5626,-4.781,-4.7718,0.0,-5.0068,0.0,0.0,0.0,0.0,0.0,0.0,0.0,0.0,0.0,0.0,0.0,0.0,0.0,0.0,0.0,0.0,0.0,0.0,0.0,0.0,-6.5319,-6.5319,-6.5319,-6.5319,-6.5319,-6.5319,-6.5319,-6.5319,-6.5375,-6.5485,-6.5485,-6.5448,-6.5375,-6.4604,-6.42,-6.4035,-6.3246,-6.2853,-6.278,-6.278,-6.278,-6.278,-6.278,-6.1888,-6.0658,-6.1361,-6.0605,-5.941,-6.0149,-5.9864,-5.9178,-5.9111,-5.8564,-5.7881,-5.7881,-5.7881,-5.7881,-5.7881,-5.7881,-5.7881,-5.7881,-5.7881,-5.7881,-5.7881,-5.7881,-5.7881,-5.7881,-5.7881,-5.7881,-5.7881,-5.7881,-5.7881,-5.7881,-5.7797,-5.7273,-5.5919,-5.5597,-5.5057,-5.3687,-5.3501,-5.3501,-5.3501,-5.3501,-5.3501,-5.3501,-5.3501,-5.3501,-5.3501,-5.4143,-5.4515,-5.4515,-5.5243,-5.5953,-5.663,-5.6697,-5.707,-5.7814,-5.7814,-5.7831,-5.7881,-5.7881,-5.7881,-4.1258,-4.2506,-4.357,-4.3883,-4.5094,0.0,0.0,-5.0398,-5.1295,-5.2747,-5.2803,0.0,0.0,0.0,0.0,0.0,0.0,0.0,0.0,0.0,0.0,0.0,0.0,0.0,0.0,0.0,0.0,0.0,0.0,0.0,-6.3752,-6.3759,-6.3759,-6.3759,-6.3759,-6.3759,-6.3759,-6.3759,-6.3759,-6.3778,-6.4806,-6.5044,-6.453,-6.4237,-6.3796,-6.3282,-6.2952,-6.278,-6.278,-6.278,-6.278,-6.278,-6.278,-6.1833,-6.0445,-6.073,-6.01,-5.9095,-5.8892,-5.8943,-5.9027,-5.8529,-5.8137,-5.7881,-5.7881,-5.7881,-5.7881,-5.7881,-5.7881,-5.7881,-5.7881,-5.7881,-5.7881,-5.7881,-5.7881,-5.7881,-5.7881,-5.7881,-5.7881,-5.7881,-5.7881,-5.7881,-5.7881,-5.7509,-5.7019,-5.6478,-5.6004,-5.5344,-5.4313,-5.4177,-5.4008,-5.3551,-5.3501,-5.3501,-5.3501,-5.3923,-5.4177,-5.4177,-5.4448,-5.4583,-5.4583,-5.575,-5.6528,-5.6799,-5.7256,-5.7611,-5.7881,-5.7881,-5.7881,-5.7881,-5.7881,-5.7881,-4.1022,-4.2084,-4.324,-4.3754,0.0,0.0,-5.0894,-5.2215,-5.3353,-5.517,-5.5335,0.0,-5.5868,0.0,0.0,0.0,0.0,0.0,0.0,0.0,0.0,0.0,0.0,0.0,0.0,0.0,0.0,0.0,0.0,0.0,0.0,-6.278,-6.278,-6.278,-6.278,-6.278,-6.278,-6.278,-6.278,-6.2798,-6.3954,-6.4237,-6.3686,-6.3686,-6.3356,-6.278,-6.278,-6.278,-6.278,-6.278,-6.278,-6.278,-6.2515,-6.1576,-6.0384,-6.0086,-5.9443,-5.8651,-5.8101,-5.8263,-5.8616,-5.8065,-5.7881,-5.7881,-5.7881,-5.7881,-5.7881,-5.7881,-5.7881,-5.7881,-5.7881,-5.7881,-5.7881,-5.7881,-5.7881,-5.7881,-5.7881,-5.7881,-5.7881,-5.7881,-5.7881,-5.7881,-5.7881,-5.7476,-5.707,-5.685,-5.6376,-5.5784,-5.504,-5.4955,-5.4752,-5.4262,-5.4194,-5.4194,-5.4194,-5.4668,-5.4955,-5.4955,-5.5158,-5.5277,-5.5277,-5.6494,-5.7154,-5.7154,-5.7628,-5.7881,-5.7881,-5.7881,-5.7881,-5.7881,-5.7881,-5.7881,-4.1315,-4.1682,-4.2708,0.0,0.0,0.0,-5.2268,-5.2601,-5.3151,-5.7171,0.0,-5.6822,-5.6822,0.0,0.0,0.0,0.0,0.0,0.0,0.0,0.0,0.0,0.0,0.0,0.0,0.0,0.0,0.0,0.0,0.0,0.0,-6.278,-6.278,-6.278,-6.278,-6.278,-6.278,-6.278,-6.278,-6.278,-6.278,-6.278,-6.278,-6.278,-6.278,-6.278,-6.278,-6.278,-6.278,-6.278,-6.2798,-6.2705,-6.1897,-6.1084,-6.0273,-5.941,-5.8599,-5.7881,-5.7881,-5.7881,-5.7881,-5.7881,-5.7881,-5.7881,-5.7881,-5.7881,-5.7881,-5.7881,-5.7881,-5.7881,-5.7881,-5.7881,-5.7881,-5.7881,-5.7881,-5.7881,-5.7881,-5.7881,-5.7881,-5.7881,-5.7881,-5.7881,-5.7881,-5.7881,-5.7645,-5.6917,-5.6816,-5.6545,-5.5818,-5.5681,-5.5681,-5.5681,-5.5681,-5.5681,-5.5681,-5.5733,-5.5698,-5.5698,-5.641,-5.6816,-5.6799,-5.7509,-5.7881,-5.7881,-5.7881,-5.7881,-5.7881,-5.7881,-5.7881,-5.7881,-5.7881,-5.7881,-4.115,-4.2103,0.0,-4.4452,0.0,0.0,0.0,-5.3463,0.0,0.0,-5.7813,-5.7648,-5.7648,0.0,0.0,0.0,0.0,0.0,0.0,0.0,0.0,0.0,0.0,0.0,0.0,0.0,0.0,0.0,0.0,0.0,0.0,-6.278,-6.278,-6.278,-6.278,-6.278,-6.278,-6.278,-6.278,-6.278,-6.278,-6.278,-6.278,-6.278,-6.278,-6.278,-6.278,-6.278,-6.278,-6.278,-6.2471,-6.1924,-6.1687,-6.0725,-5.9443,-5.9211,-5.8599,-5.7881,-5.7881,-5.7881,-5.7881,-5.7881,-5.7881,-5.7881,-5.7881,-5.7881,-5.7881,-5.7881,-5.7881,-5.7881,-5.7881,-5.7881,-5.7881,-5.7881,-5.7881,-5.7881,-5.7881,-5.7881,-5.7881,-5.7881,-5.7881,-5.7881,-5.7881,-5.7881,-5.7814,-5.7594,-5.756,-5.7306,-5.6579,-5.6038,-5.5681,-5.5681,-5.5681,-5.5681,-5.5681,-5.619,-5.6478,-5.6478,-5.7171,-5.734,-5.6816,-5.7509,-5.7881,-5.7881,-5.7881,-5.7881,-5.7881,-5.7881,-5.7881,-5.7881,-5.7881,-5.7881,-4.1974,-4.3222,0.0,-4.625,-4.8967,-5.1867,-5.4124,0.0,0.0,0.0,0.0,-5.7997,-5.7997,0.0,0.0,0.0,0.0,0.0,0.0,0.0,0.0,0.0,0.0,0.0,0.0,0.0,0.0,0.0,0.0,0.0,0.0,-6.278,-6.278,-6.278,-6.278,-6.278,-6.278,-6.278,-6.278,-6.278,-6.278,-6.278,-6.278,-6.278,-6.278,-6.278,-6.278,-6.278,-6.278,-6.278,-6.2324,-6.1558,-6.1247,-6.03,-5.9044,-5.8755,-5.8317,-5.7881,-5.7881,-5.7881,-5.7881,-5.7881,-5.7881,-5.7881,-5.7881,-5.7881,-5.7881,-5.7881,-5.7881,-5.7881,-5.7881,-5.7881,-5.7881,-5.7881,-5.7881,-5.7881,-5.7881,-5.7881,-5.7881,-5.7881,-5.7881,-5.7881,-5.7881,-5.7881,-5.7881,-5.7881,-5.7881,-5.7729,-5.7289,-5.685,-5.6579,-5.6579,-5.6579,-5.6579,-5.6579,-5.6985,-5.7239,-5.7239,-5.7645,-5.7695,-5.7256,-5.7645,-5.7881,-5.7881,-5.7881,-5.7881,-5.7881,-5.7881,-5.7881,-5.7881,-5.7881,-5.7881,-4.3149,0.0,0.0,-4.8893,-5.0912,0.0,-5.6216,0.0,-5.7997,-5.7997,0.0,0.0,0.0,0.0,0.0,0.0,0.0,0.0,0.0,0.0,0.0,0.0,0.0,0.0,0.0,0.0,0.0,0.0,0.0,0.0,-6.256,-6.256,-6.256,-6.256,-6.2658,-6.2695,-6.2695,-6.2768,-6.278,-6.278,-6.278,-6.278,-6.278,-6.278,-6.278,-6.278,-6.278,-6.2755,-6.2686,-6.2686,-6.2138,-6.1225,-6.0544,-5.9715,-5.8805,-5.8139,-5.7881,-5.7881,-5.7881,-5.7881,-5.7881,-5.7881,-5.7881,-5.7881,-5.7881,-5.7881,-5.7881,-5.7881,-5.7881,-5.7881,-5.7881,-5.7881,-5.7881,-5.7881,-5.7881,-5.7881,-5.7881,-5.7881,-5.7881,-5.7881,-5.7881,-5.7881,-5.7881,-5.7881,-5.7881,-5.7881,-5.7881,-5.7881,-5.7881,-5.7881,-5.7881,-5.7881,-5.7881,-5.7881,-5.7881,-5.7881,-5.7881,-5.7881,-5.7881,-5.7881,-5.7881,-5.7881,-5.7881,-5.7881,-5.7881,-5.7881,-5.7881,-5.7881,-5.7881,-5.7881,-5.7881,-5.7881,0.0,-4.3736,0.0,0.0,0.0,0.0,0.0,0.0,0.0,0.0,0.0,0.0,0.0,0.0,0.0,0.0,0.0,0.0,0.0,0.0,0.0,0.0,0.0,0.0,0.0,0.0,0.0,0.0,0.0,0.0,-6.0933,-6.0933,-6.0933,-6.0933,-6.1539,-6.1851,-6.1851,-6.2493,-6.278,-6.278,-6.278,-6.278,-6.278,-6.278,-6.278,-6.278,-6.278,-6.2446,-6.187,-6.187,-6.065,-5.8814,-5.9232,-5.853,-5.7338,-5.7734,-5.7881,-5.7881,-5.7881,-5.7881,-5.7881,-5.7881,-5.7881,-5.7881,-5.7881,-5.7881,-5.7881,-5.7881,-5.7881,-5.7881,-5.7881,-5.7881,-5.7881,-5.7881,-5.7881,-5.7881,-5.7881,-5.7881,-5.7881,-5.7881,-5.7881,-5.7881,-5.7881,-5.7881,-5.7881,-5.7881,-5.7881,-5.7881,-5.7881,-5.7881,-5.7881,-5.7881,-5.7881,-5.7881,-5.7881,-5.7881,-5.7881,-5.7881,-5.7881,-5.7881,-5.7881,-5.7881,-5.7881,-5.7881,-5.7881,-5.7881,-5.7881,-5.7881,-5.7881,-5.7881,-5.7881,-5.7881,0.0,0.0,0.0,0.0,0.0,0.0,0.0,0.0,0.0,0.0,0.0,0.0,0.0,0.0,0.0,0.0,0.0,0.0,0.0,0.0,0.0,0.0,0.0,0.0,0.0,0.0,0.0,0.0,0.0,-6.0401,-6.0401,-6.0401,-6.0401,-6.0401,-6.0805,-6.1025,-6.1025,-6.1447,-6.1667,-6.1667,-6.1667,-6.1667,-6.1686,-6.2432,-6.278,-6.2762,-6.2018,-6.146,-6.1008,-6.0278,-5.8974,-5.7515,-5.7914,-5.7329,-5.6325,-5.6714,-5.707,-5.7357,-5.7357,-5.7594,-5.7881,-5.7881,-5.7881,-5.7881,-5.7881,-5.7881,-5.7881,-5.7881,-5.7881,-5.7881,-5.7881,-5.7881,-5.7881,-5.7881,-5.7881,-5.7881,-5.7881,-5.7881,-5.7881,-5.7881,-5.7881,-5.7881,-5.7881,-5.7881,-5.7881,-5.7881,-5.7881,-5.7881,-5.7881,-5.7881,-5.7881,-5.7881,-5.7881,-5.7881,-5.7881,-5.7881,-5.7881,-5.7881,-5.7881,-5.7881,-5.7881,-5.7881,-5.7881,-5.7881,-5.7881,-5.7881,-5.7881,-5.7881,-5.7881,-5.7881,-5.7881,-5.7881,0.0,0.0,0.0,0.0,0.0,0.0,0.0,0.0,0.0,0.0,0.0,0.0,0.0,0.0,0.0,0.0,0.0,0.0,0.0,0.0,0.0,0.0,0.0,0.0,0.0,0.0,0.0,0.0,0.0,-5.9997,-5.9997,-5.9997,-5.9997,-5.9997,-6.0126,-6.0199,-6.0199,-6.0346,-6.0401,-6.0401,-6.0401,-6.0401,-6.0456,-6.1796,-6.2401,-6.2297,-6.0889,-6.0205,-5.9986,-5.8567,-5.7403,-5.6541,-5.6629,-5.6199,-5.5547,-5.5666,-5.6105,-5.663,-5.6765,-5.7205,-5.7729,-5.7848,-5.7881,-5.7881,-5.7881,-5.7881,-5.7881,-5.7881,-5.7797,-5.7695,-5.7695,-5.7611,-5.7543,-5.7679,-5.7695,-5.7729,-5.7865,-5.7881,-5.7881,-5.7881,-5.7881,-5.7881,-5.7881,-5.7881,-5.7881,-5.7881,-5.7881,-5.7881,-5.7881,-5.7881,-5.7881,-5.7881,-5.7881,-5.7881,-5.7881,-5.7881,-5.7881,-5.7881,-5.7881,-5.7881,-5.7881,-5.7881,-5.7881,-5.7881,-5.7881,-5.7881,-5.7881,-5.7881,-5.7881,-5.7881,-5.7881,-5.7881,0.0,0.0,0.0,0.0,0.0,0.0,0.0,0.0,0.0,0.0,0.0,0.0,0.0,0.0,0.0,0.0,0.0,0.0,0.0,0.0,0.0,0.0,0.0,0.0,0.0,0.0,0.0,0.0,-5.8309,-5.8309,-5.8309,-5.8309,-5.8309,-5.8309,-5.9006,-5.9349,-5.9349,-6.0052,-6.0401,-6.0401,-6.0401,-6.0401,-6.0419,-6.0621,-6.0731,-6.0664,-5.9818,-5.9057,-5.8355,-5.7446,-5.6221,-5.4975,-5.5603,-5.5398,-5.482,-5.548,-5.5784,-5.5953,-5.6579,-5.6867,-5.7053,-5.7679,-5.7881,-5.7881,-5.7881,-5.7881,-5.7881,-5.7881,-5.7442,-5.6951,-5.6951,-5.6478,-5.6156,-5.6799,-5.6951,-5.712,-5.7746,-5.7881,-5.7881,-5.7881,-5.7881,-5.7881,-5.7881,-5.7881,-5.7881,-5.7881,-5.7881,-5.7881,-5.7881,-5.7881,-5.7881,-5.7881,-5.7881,-5.7881,-5.7881,-5.7881,-5.7881,-5.7881,-5.7881,-5.7881,-5.7881,-5.7881,-5.7881,-5.7881,-5.7881,-5.7881,-5.7881,-5.7881,-5.7881,-5.7881,-5.7881,-5.7881,0.0,0.0,0.0,0.0,0.0,0.0,0.0,0.0,0.0,0.0,0.0,0.0,0.0,0.0,0.0,0.0,0.0,0.0,0.0,0.0,0.0,0.0,0.0,0.0,0.0,0.0,0.0,0.0,-5.7997,-5.7997,-5.7997,-5.7997,-5.7997,-5.7997,-5.8345,-5.8529,-5.8529,-5.8877,-5.9061,-5.9061,-5.9061,-5.9061,-5.9038,-5.8622,-5.8928,-5.9721,-5.8493,-5.7522,-5.6733,-5.5499,-5.4583,-5.4008,-5.4346,-5.4279,-5.4025,-5.4363,-5.4735,-5.5192,-5.5936,-5.6461,-5.6917,-5.7645,-5.7881,-5.7814,-5.7408,-5.7273,-5.7205,-5.6782,-5.6444,-5.619,-5.619,-5.5953,-5.5902,-5.663,-5.6799,-5.7002,-5.7729,-5.7881,-5.7881,-5.7881,-5.7881,-5.7881,-5.7881,-5.7881,-5.7881,-5.7881,-5.7881,-5.7881,-5.7881,-5.7881,-5.7881,-5.7881,-5.7881,-5.7881,-5.7881,-5.7881,-5.7881,-5.7881,-5.7881,-5.7881,-5.7881,-5.7881,-5.7881,-5.7881,-5.7881,-5.7881,-5.7881,-5.7881,-5.7881,-5.7881,-5.7881,-5.7881,0.0,0.0,0.0,0.0,0.0,0.0,0.0,0.0,0.0,0.0,0.0,0.0,0.0,0.0,0.0,0.0,0.0,0.0,0.0,0.0,0.0,0.0,0.0,0.0,0.0,0.0,0.0,0.0,-5.7997,-5.7997,-5.7997,-5.7997,-5.7997,-5.7997,-5.7997,-5.7997,-5.7997,-5.7997,-5.7997,-5.7997,-5.7997,-5.7909,-5.7703,-5.7159,-5.7342,-5.8039,-5.6821,-5.6002,-5.5372,-5.4038,-5.3501,-5.3501,-5.3501,-5.3501,-5.3501,-5.3501,-5.3856,-5.4431,-5.5175,-5.5919,-5.6613,-5.7154,-5.7459,-5.7476,-5.6748,-5.6528,-5.641,-5.5869,-5.5581,-5.5429,-5.5429,-5.5294,-5.5344,-5.6072,-5.6376,-5.6782,-5.7695,-5.7881,-5.7881,-5.7881,-5.7881,-5.7881,-5.7881,-5.7881,-5.7881,-5.7881,-5.7881,-5.7881,-5.7881,-5.7881,-5.7881,-5.7881,-5.7881,-5.7881,-5.7881,-5.7881,-5.7881,-5.7881,-5.7881,-5.7881,-5.7881,-5.7881,-5.7881,-5.7881,-5.7881,-5.7881,-5.7881,-5.7881,-5.7881,-5.7881,-5.7881,-5.7881,0.0,0.0,0.0,0.0,0.0,0.0,0.0,0.0,0.0,0.0,0.0,0.0,0.0,0.0,0.0,0.0,0.0,0.0,0.0,0.0,0.0,0.0,0.0,0.0,0.0,0.0,0.0,0.0,-5.7997,-5.7997,-5.7997,-5.7997,-5.7997,-5.7997,-5.7997,-5.7997,-5.7997,-5.7997,-5.7997,-5.7997,-5.7997,-5.7637,-5.6964,-5.6912,-5.6148,-5.4848,-5.4751,-5.4703,-5.4596,-5.3816,-5.3501,-5.3501,-5.3501,-5.3501,-5.3501,-5.3501,-5.3518,-5.367,-5.4397,-5.5141,-5.5784,-5.5783,-5.6292,-5.6731,-5.5987,-5.5784,-5.5732,-5.5698,-5.5209,-5.4651,-5.4651,-5.4143,-5.3805,-5.4532,-5.526,-5.6156,-5.7577,-5.7881,-5.7881,-5.7881,-5.7881,-5.7881,-5.7881,-5.7881,-5.7881,-5.7881,-5.7881,-5.7881,-5.7881,-5.7881,-5.7881,-5.7881,-5.7881,-5.7881,-5.7881,-5.7881,-5.7881,-5.7881,-5.7881,-5.7881,-5.7881,-5.7881,-5.7881,-5.7881,-5.7881,-5.7881,-5.7881,-5.7881,-5.7881,-5.7881,-5.7881,-5.7881,0.0,0.0,0.0,0.0,0.0,0.0,0.0,0.0,0.0,0.0,0.0,0.0,0.0,0.0,0.0,0.0,0.0,0.0,0.0,0.0,0.0,0.0,0.0,0.0,0.0,0.0,0.0,0.0,0.0,-5.7997,-5.7997,-5.7997,-5.7997,-5.7997,-5.7997,-5.7997,-5.7997,-5.7997,-5.775,-5.7284,-5.7284,-5.6894,-5.6104,-5.5627,-5.5119,-5.4558,-5.4106,-5.3881,-5.3881,-5.3618,-5.3501,-5.3501,-5.3501,-5.3501,-5.3501,-5.3501,-5.3501,-5.3619,-5.4329,-5.4769,-5.5074,-5.5564,-5.5902,-5.597,-5.5226,-5.4989,-5.4905,-5.4431,-5.4448,-5.4482,-5.4008,-5.4042,-5.4262,-5.4532,-5.5158,-5.5987,-5.6985,-5.756,-5.7881,-5.7881,-5.7881,-5.7881,-5.7881,-5.7881,-5.7881,-5.7881,-5.7881,-5.7881,-5.7881,-5.7881,-5.7881,-5.7881,-5.7881,-5.7881,-5.7881,-5.7881,-5.7881,-5.7881,-5.7881,-5.7881,-5.7881,-5.7881,-5.7881,-5.7881,-5.7881,-5.7881,-5.7881,-5.7881,-5.7881,-5.7881,-5.7881,-5.7881,-3.5385,0.0,0.0,0.0,0.0,0.0,0.0,0.0,0.0,0.0,0.0,0.0,0.0,0.0,0.0,0.0,0.0,0.0,0.0,0.0,0.0,0.0,0.0,0.0,0.0,0.0,0.0,0.0,0.0,0.0,-5.7997,-5.7774,-5.7498,-5.7223,-5.7732,-5.7732,-5.7223,-5.7498,-5.7259,-5.6492,-5.6492,-5.6077,-5.532,-5.4818,-5.4451,-5.4218,-5.3717,-5.3501,-5.3501,-5.3501,-5.3501,-5.3501,-5.3501,-5.3501,-5.3501,-5.3501,-5.3501,-5.3568,-5.4059,-5.438,-5.4634,-5.4888,-5.5141,-5.5192,-5.4448,-5.4228,-5.4126,-5.3653,-5.3856,-5.411,-5.3636,-5.3856,-5.4279,-5.4532,-5.4972,-5.5615,-5.6596,-5.7171,-5.7594,-5.7831,-5.7881,-5.7881,-5.7881,-5.7881,-5.7881,-5.7881,-5.7881,-5.7881,-5.7881,-5.7881,-5.7881,-5.7881,-5.7881,-5.7881,-5.7881,-5.7881,-5.7881,-5.7881,-5.7881,-5.7881,-5.7881,-5.7881,-5.7881,-5.7881,-5.7881,-5.7881,-5.7881,-5.7881,-5.7881,-5.7881,-5.7881,-5.7881,0.0,0.0,0.0,0.0,0.0,0.0,0.0,0.0,0.0,0.0,0.0,0.0,0.0,0.0,0.0,0.0,0.0,0.0,0.0,0.0,0.0,0.0,0.0,0.0,0.0,0.0,0.0,0.0,-5.7997,-5.7997,-5.7997,-5.7284,-5.6518,-5.5752,-5.713,-5.7223,-5.5706,-5.6465,-5.6465,-5.5678,-5.5678,-5.5291,-5.4558,-5.4558,-5.4186,-5.3501,-5.3501,-5.3501,-5.3501,-5.3501,-5.3501,-5.3501,-5.3501,-5.3501,-5.3501,-5.3501,-5.3501,-5.3501,-5.3501,-5.3974,-5.4448,-5.3737,-5.3974,-5.4431,-5.3721,-5.3501,-5.3501,-5.3501,-5.3518,-5.3534,-5.3534,-5.3518,-5.3687,-5.4397,-5.4566,-5.4955,-5.6427,-5.6748,-5.6985,-5.7746,-5.7881,-5.7881,-5.7881,-5.7881,-5.7881,-5.7881,-5.7881,-5.7881,-5.7881,-5.7881,-5.7881,-5.7881,-5.7881,-5.7881,-5.7881,-5.7881,-5.7881,-5.7881,-5.7881,-5.7881,-5.7881,-5.7881,-5.7881,-5.7881,-5.7881,-5.7881,-5.7881,-5.7881,-5.7881,-5.7881,-5.7881,-5.7881,-3.4894,0.0,0.0,0.0,0.0,0.0,0.0,0.0,0.0,0.0,0.0,0.0,0.0,0.0,0.0,0.0,0.0,0.0,0.0,0.0,0.0,0.0,0.0,0.0,0.0,0.0,0.0,0.0,-5.7997,-5.7997,-5.7997,-5.7284,-5.6518,-5.5752,-5.6114,-5.6141,-5.5706,-5.592,-5.5638,-5.4891,-5.4891,-5.4513,-5.3799,-5.3799,-5.3701,-5.3501,-5.3501,-5.3501,-5.3501,-5.3501,-5.3501,-5.3501,-5.3501,-5.3501,-5.3501,-5.3501,-5.3501,-5.3501,-5.3501,-5.3636,-5.3771,-5.3568,-5.3653,-5.3771,-5.3568,-5.3501,-5.3501,-5.3501,-5.3873,-5.4296,-5.4296,-5.3907,-5.3551,-5.3754,-5.3805,-5.4059,-5.5006,-5.5632,-5.6393,-5.7645,-5.7881,-5.7881,-5.7881,-5.7881,-5.7881,-5.7881,-5.7881,-5.7881,-5.7881,-5.7881,-5.7881,-5.7881,-5.7881,-5.7881,-5.7881,-5.7881,-5.7881,-5.7881,-5.7881,-5.7881,-5.7881,-5.7881,-5.7881,-5.7881,-5.7881,-5.7881,-5.7881,-5.7881,-5.7881,-5.7881,-5.7881,-5.7881,0.0,0.0,0.0,0.0,0.0,0.0,0.0,-4.1992,0.0,0.0,0.0,0.0,0.0,0.0,0.0,0.0,0.0,0.0,0.0,0.0,0.0,0.0,0.0,0.0,0.0,-5.7997,-5.7997,-5.7997,-5.7726,-5.7266,-5.6632,-5.6773,-5.6249,-5.4835,-5.5379,-5.5408,-5.4774,-5.5102,-5.4878,-5.4121,-5.4121,-5.3913,-5.3501,-5.3501,-5.3501,-5.3501,-5.3501,-5.3501,-5.3501,-5.3501,-5.3501,-5.3501,-5.3501,-5.3501,-5.3501,-5.3501,-5.3501,-5.3501,-5.3501,-5.3501,-5.3501,-5.3501,-5.3501,-5.3501,-5.3501,-5.3501,-5.3501,-5.3501,-5.3805,-5.4143,-5.4143,-5.3822,-5.3501,-5.3501,-5.3501,-5.3704,-5.4431,-5.5192,-5.6055,-5.7205,-5.7679,-5.7881,-5.7881,-5.7881,-5.7881,-5.7881,-5.7881,-5.7881,-5.7881,-5.7881,-5.7881,-5.7881,-5.7881,-5.7881,-5.7881,-5.7881,-5.7881,-5.7881,-5.7881,-5.7881,-5.7881,-5.7881,-5.7881,-5.7881,-5.7881,-5.7881,-5.7881,-5.7881,-5.7881,-5.7881,-5.7881,-5.7881,0.0,0.0,0.0,0.0,0.0,0.0,-4.1313,-4.1901,0.0,0.0,0.0,0.0,0.0,0.0,0.0,0.0,0.0,0.0,0.0,0.0,0.0,0.0,0.0,0.0,-5.7997,-5.7997,-5.7997,-5.7997,-5.7327,-5.6222,-5.4682,-5.59,-5.5691,-5.3568,-5.4774,-5.4835,-5.3501,-5.4154,-5.4154,-5.3501,-5.3501,-5.3501,-5.3501,-5.3501,-5.3501,-5.3501,-5.3501,-5.3501,-5.3501,-5.3501,-5.3501,-5.3501,-5.3501,-5.3501,-5.3501,-5.3501,-5.3501,-5.3501,-5.3501,-5.3501,-5.3501,-5.3501,-5.3501,-5.3501,-5.3501,-5.3501,-5.3501,-5.3501,-5.3501,-5.3501,-5.3501,-5.3501,-5.3501,-5.3501,-5.3501,-5.3687,-5.4329,-5.5057,-5.5818,-5.6528,-5.734,-5.7881,-5.7881,-5.7881,-5.7881,-5.7881,-5.7881,-5.7881,-5.7881,-5.7881,-5.7881,-5.7881,-5.7881,-5.7881,-5.7881,-5.7881,-5.7881,-5.7881,-5.7881,-5.7881,-5.7881,-5.7881,-5.7881,-5.7881,-5.7881,-5.7881,-5.7881,-5.7881,-5.7881,-5.7881,-5.7881,-5.7881,-3.9643,0.0,0.0,0.0,0.0,0.0,-3.8631,-3.9439,-4.0634,0.0,0.0,0.0,0.0,0.0,0.0,0.0,0.0,0.0,0.0,0.0,0.0,0.0,0.0,0.0,-5.7941,-5.7997,-5.7997,-5.7997,-5.7327,-5.6222,-5.4682,-5.4878,-5.4593,-5.3534,-5.3783,-5.3783,-5.3501,-5.3634,-5.3634,-5.3501,-5.3501,-5.3501,-5.3501,-5.3501,-5.3501,-5.3501,-5.3501,-5.3501,-5.3501,-5.3501,-5.3501,-5.3501,-5.3501,-5.3501,-5.3501,-5.3501,-5.3501,-5.3501,-5.3501,-5.3501,-5.3501,-5.3501,-5.3501,-5.3501,-5.3501,-5.3501,-5.3501,-5.3501,-5.3501,-5.3501,-5.3501,-5.3501,-5.3501,-5.3501,-5.3501,-5.3551,-5.3687,-5.4296,-5.5023,-5.5784,-5.6985,-5.7881,-5.7881,-5.7881,-5.7881,-5.7881,-5.7881,-5.7881,-5.7881,-5.7881,-5.7881,-5.7881,-5.7881,-5.7881,-5.7881,-5.7881,-5.7881,-5.7881,-5.7881,-5.7881,-5.7881,-5.7881,-5.7881,-5.7881,-5.7881,-5.7881,-5.7881,-5.7881,-5.7881,-5.7881,-5.7881,-5.7881,-4.1313,0.0,0.0,-4.1093,0.0,0.0,0.0,-4.0487,-4.0836,-4.2047,0.0,0.0,0.0,0.0,0.0,0.0,0.0,0.0,0.0,0.0,0.0,0.0,0.0,0.0,-5.6748,-5.7171,-5.7264,-5.6873,-5.6501,-5.5627,-5.4139,-5.4405,-5.4264,-5.3534,-5.3501,-5.3501,-5.3501,-5.3501,-5.3501,-5.3501,-5.3501,-5.3501,-5.3501,-5.3501,-5.3501,-5.3501,-5.3501,-5.3501,-5.3501,-5.3501,-5.3501,-5.3501,-5.3501,-5.3501,-5.3501,-5.3501,-5.3501,-5.3501,-5.3501,-5.3501,-5.3501,-5.3501,-5.3501,-5.3501,-5.3501,-5.3501,-5.3501,-5.3501,-5.3501,-5.3501,-5.3501,-5.3501,-5.3501,-5.3501,-5.3501,-5.3501,-5.3501,-5.4076,-5.4702,-5.5091,-5.6055,-5.7036,-5.7763,-5.7881,-5.7881,-5.7881,-5.7881,-5.7881,-5.7881,-5.7881,-5.7881,-5.7881,-5.7881,-5.7881,-5.7881,-5.7881,-5.7881,-5.7881,-5.7881,-5.7881,-5.7881,-5.7881,-5.7881,-5.7881,-5.7881,-5.7881,-5.7881,-5.7881,-5.7881,-5.7881,-5.7881,-5.7881,0.0,0.0,0.0,0.0,0.0,-4.3002,0.0,0.0,0.0,-4.2818,0.0,0.0,0.0,0.0,0.0,0.0,0.0,0.0,0.0,0.0,0.0,0.0,0.0,0.0,-5.5097,-5.5613,-5.5753,-5.5277,-5.4868,-5.4212,-5.333,-5.3834,-5.3967,-5.3517,-5.3501,-5.3501,-5.3501,-5.3501,-5.3501,-5.3501,-5.3501,-5.3501,-5.3501,-5.3501,-5.3501,-5.3501,-5.3501,-5.3501,-5.3501,-5.3501,-5.3501,-5.3501,-5.3501,-5.3501,-5.3501,-5.3501,-5.3501,-5.3501,-5.3501,-5.3501,-5.3501,-5.3501,-5.3501,-5.3501,-5.3501,-5.3501,-5.3501,-5.3501,-5.3501,-5.3501,-5.3501,-5.3501,-5.3501,-5.3501,-5.3501,-5.3501,-5.3501,-5.3974,-5.4431,-5.4566,-5.5209,-5.6139,-5.7459,-5.7679,-5.7729,-5.7865,-5.7881,-5.7881,-5.7881,-5.7881,-5.7881,-5.7881,-5.7881,-5.7881,-5.7881,-5.7881,-5.7881,-5.7881,-5.7881,-5.7881,-5.7881,-5.7881,-5.7881,-5.7881,-5.7881,-5.7881,-5.7881,-5.7881,-5.7881,-5.7881,-5.7881,-5.7881,0.0,0.0,0.0,0.0,-4.4488,0.0,0.0,0.0,-4.2873,-4.1627,0.0,0.0,0.0,0.0,0.0,0.0,0.0,0.0,0.0,0.0,0.0,0.0,0.0,0.0,0.0,-5.3071,-5.3044,-5.3601,-5.185,-5.1247,-5.2399,-5.2517,-5.2839,-5.3484,-5.3501,-5.3501,-5.3501,-5.3501,-5.3501,-5.3501,-5.3501,-5.3501,-5.3501,-5.3501,-5.3501,-5.3501,-5.3501,-5.3501,-5.3501,-5.3501,-5.3501,-5.3501,-5.3501,-5.3501,-5.3501,-5.3501,-5.3501,-5.3501,-5.3501,-5.3501,-5.3501,-5.3501,-5.3501,-5.3501,-5.3501,-5.3501,-5.3501,-5.3501,-5.3501,-5.3501,-5.3501,-5.3501,-5.3501,-5.3501,-5.3501,-5.3501,-5.3501,-5.3568,-5.3822,-5.4465,-5.5209,-5.597,-5.6782,-5.6917,-5.7154,-5.7797,-5.7881,-5.7881,-5.7881,-5.7881,-5.7881,-5.7881,-5.7881,-5.7881,-5.7881,-5.7881,-5.7881,-5.7881,-5.7881,-5.7881,-5.7881,-5.7881,-5.7881,-5.7881,-5.7881,-5.7881,-5.7881,-5.7881,-5.7881,-5.7881,-5.7881,-5.7881,0.0,0.0,0.0,0.0,0.0,0.0,-4.359,0.0,-4.2745,0.0,0.0,0.0,0.0,0.0,0.0,0.0,0.0,0.0,0.0,0.0,0.0,0.0,0.0,0.0,0.0,0.0,0.0,0.0,-5.0212,-4.9943,-5.0979,-5.1437,-5.2012,-5.279,-5.2807,-5.3027,-5.3501,-5.3501,-5.3501,-5.3501,-5.3501,-5.3501,-5.3501,-5.3501,-5.3501,-5.3501,-5.3501,-5.3501,-5.3501,-5.3501,-5.3501,-5.3501,-5.3501,-5.3501,-5.3501,-5.3501,-5.3501,-5.3501,-5.3501,-5.3501,-5.3501,-5.3501,-5.3501,-5.3501,-5.3501,-5.3501,-5.3501,-5.3501,-5.3501,-5.3501,-5.3501,-5.3501,-5.3501,-5.3501,-5.3501,-5.3501,-5.3501,-5.3501,-5.3602,-5.3907,-5.4566,-5.5294,-5.6038,-5.6867,-5.7543,-5.7831,-5.7881,-5.7881,-5.7881,-5.7881,-5.7881,-5.7881,-5.7881,-5.7881,-5.7881,-5.7881,-5.7881,-5.7881,-5.7881,-5.7881,-5.7881,-5.7881,-5.7881,-5.7881,-5.7881,-5.7881,-5.7881,-5.7881,-5.7881,-5.7881,-5.7881,-5.7881,-4.6362,0.0,0.0,0.0,0.0,0.0,0.0,0.0,0.0,0.0,0.0,0.0,0.0,0.0,0.0,0.0,0.0,0.0,0.0,0.0,0.0,0.0,0.0,0.0,0.0,0.0,0.0,0.0,0.0,-4.7851,-4.9407,-5.0016,-5.0828,-5.1961,-5.2012,-5.2283,-5.2875,-5.3078,-5.3179,-5.3179,-5.3399,-5.3501,-5.3501,-5.3501,-5.3501,-5.3501,-5.3501,-5.3501,-5.3501,-5.3501,-5.3501,-5.3501,-5.3501,-5.3501,-5.3501,-5.3501,-5.3501,-5.3501,-5.3501,-5.3501,-5.3501,-5.3501,-5.3501,-5.3501,-5.3501,-5.3501,-5.3501,-5.3501,-5.3501,-5.3501,-5.3501,-5.3501,-5.3501,-5.3501,-5.3501,-5.3501,-5.3501,-5.3501,-5.3501,-5.3501,-5.4262,-5.5074,-5.5632,-5.6765,-5.7662,-5.7865,-5.7881,-5.7881,-5.7881,-5.7881,-5.7881,-5.7881,-5.7881,-5.7881,-5.7881,-5.7881,-5.7881,-5.7881,-5.7881,-5.7881,-5.7881,-5.7881,-5.7881,-5.7881,-5.7881,-5.7881,-5.7881,-5.7881,-5.7755,-5.7426,-5.7755,-5.7881,0.0,0.0,0.0,-4.634,0.0,0.0,0.0,0.0,-4.5351,0.0,0.0,0.0,0.0,0.0,0.0,0.0,0.0,0.0,0.0,0.0,0.0,0.0,0.0,0.0,0.0,0.0,0.0,0.0,-4.374,0.0,-4.78,-4.7973,-4.8987,-5.1183,-5.1251,-5.1236,-5.1252,-5.1995,-5.2334,-5.235,-5.3129,-5.3501,-5.3501,-5.3501,-5.3501,-5.3501,-5.3501,-5.3501,-5.3501,-5.3501,-5.3501,-5.3501,-5.3501,-5.3501,-5.3501,-5.3501,-5.3501,-5.3501,-5.3501,-5.3501,-5.3501,-5.3501,-5.3501,-5.3501,-5.3501,-5.3501,-5.3501,-5.3501,-5.3501,-5.3501,-5.3501,-5.3501,-5.3501,-5.3501,-5.3501,-5.3501,-5.3501,-5.3501,-5.3501,-5.3501,-5.4685,-5.5683,-5.5681,-5.6342,-5.707,-5.778,-5.7881,-5.7881,-5.7881,-5.7881,-5.7881,-5.7881,-5.7881,-5.7881,-5.7881,-5.7881,-5.7881,-5.7881,-5.7881,-5.7881,-5.7881,-5.7881,-5.7881,-5.7881,-5.7881,-5.7881,-5.7881,-5.7881,-5.7335,-5.6282,-5.7389,-5.7881,0.0,0.0,-4.902,-4.7271,0.0,0.0,0.0,0.0,0.0,0.0,0.0,0.0,0.0,0.0,0.0,0.0,0.0,0.0,0.0,0.0,0.0,0.0,0.0,0.0,0.0,0.0,0.0,0.0,-4.3192,0.0,0.0,-4.7107,-4.8446,-4.9712,-5.0219,-5.071,-5.1185,-5.1454,-5.1826,-5.23,-5.2587,-5.2993,-5.3501,-5.3501,-5.3501,-5.3501,-5.3501,-5.3501,-5.3501,-5.3501,-5.3501,-5.3501,-5.3501,-5.3501,-5.3501,-5.3501,-5.3501,-5.3501,-5.3501,-5.3501,-5.3501,-5.3501,-5.3501,-5.3501,-5.3501,-5.3501,-5.3501,-5.3501,-5.3501,-5.3501,-5.3501,-5.3501,-5.3501,-5.3501,-5.3501,-5.3501,-5.3501,-5.3501,-5.3653,-5.4126,-5.5023,-5.5869,-5.6342,-5.7036,-5.7594,-5.7848,-5.7881,-5.7881,-5.7881,-5.7881,-5.7881,-5.7881,-5.7881,-5.7881,-5.7881,-5.7881,-5.7881,-5.7881,-5.7881,-5.7881,-5.7881,-5.7881,-5.7881,-5.7881,-5.7168,-5.6778,-5.6778,-5.6064,-5.553,-5.515,-5.553,-5.5707,-4.8312,-4.8898,0.0,-4.7742,-4.7361,0.0,-4.4905,0.0,0.0,0.0,0.0,0.0,0.0,0.0,0.0,0.0,0.0,0.0,0.0,0.0,0.0,0.0,0.0,0.0,0.0,0.0,-4.1772,-4.1545,-4.1711,0.0,0.0,0.0,-4.731,-4.8578,-4.9323,-4.9932,-5.0422,-5.0693,-5.1048,-5.1522,-5.2046,-5.257,-5.3078,-5.3365,-5.3501,-5.3501,-5.3501,-5.3501,-5.3501,-5.3501,-5.3501,-5.3501,-5.3501,-5.3501,-5.3501,-5.3501,-5.3501,-5.3501,-5.3501,-5.3501,-5.3501,-5.3501,-5.3501,-5.3501,-5.3501,-5.3501,-5.3501,-5.3501,-5.3501,-5.3501,-5.3501,-5.3501,-5.3501,-5.3501,-5.3501,-5.3501,-5.3501,-5.3501,-5.3721,-5.4448,-5.5209,-5.5953,-5.6681,-5.7408,-5.7881,-5.7881,-5.7881,-5.7881,-5.7881,-5.7881,-5.7881,-5.7881,-5.7881,-5.7881,-5.7881,-5.7881,-5.7881,-5.7881,-5.7881,-5.7881,-5.7881,-5.75,-5.7297,-5.7297,-5.6204,-5.5634,-5.5634,-5.4945,-5.4379,-5.3999,-5.3999,-5.3785]},{"header":{"parameterUnit":"m.s-1","parameterCategory":1,"la1":30.6,"la2":29.2853,"lo1":-89.7004,"lo2":-87.6739,"dy":0.0162,"dx":0.0183,"nx":112,"ny":82,"refTime":"2024-05-30T12:00:00:Z","depth":0,"parameterNumber":3,"parameterNumberName":"V-component_of_WINDS"},"data":[0.0,0.0,0.0,0.0,0.0,0.0,0.0,0.0,0.0,0.0,0.0,0.0,0.0,0.0,0.0,0.0,0.0,0.0,0.0,0.0,0.0,0.0,0.0,0.0,0.0,0.0,0.0,0.0,0.0,0.0,0.0,0.0,0.0,0.0,0.0,0.0,0.0,0.0,0.0,0.0,0.0,0.0,0.0,0.0,0.0,0.0,0.0,0.0,0.0,0.0,0.0,0.0,0.0,0.0,0.0,0.0,0.0,0.0,0.0,0.0,0.0,0.0,0.0,0.0,0.0,0.0,0.0,0.0,0.0,0.0,0.0,0.0,0.0,0.0,0.0,0.0,0.0,0.0,0.0,0.0,0.0,0.0,0.0,0.0,0.0,0.0,0.0,0.0,0.0,0.0,1.7395,1.9018,2.0341,2.1109,2.1109,2.0528,1.9573,1.8176,0.0,0.0,0.0,0.0,0.0,0.0,0.0,0.0,0.0,0.0,0.0,0.0,0.0,0.0,0.0,0.0,0.0,0.0,0.0,0.0,0.0,0.0,0.0,0.0,0.0,0.0,0.0,0.0,0.0,0.0,0.0,0.0,0.0,0.0,0.0,0.0,0.0,0.0,0.0,0.0,0.0,0.0,0.0,0.0,0.0,0.0,0.0,0.0,0.0,0.0,0.0,0.0,0.0,0.0,0.0,0.0,0.0,0.0,0.0,0.0,0.0,0.0,0.0,0.0,0.0,0.0,0.0,0.0,0.0,0.0,0.0,0.0,0.0,0.0,0.0,0.0,0.0,0.0,0.0,0.0,0.0,0.0,0.0,0.0,0.0,0.0,0.0,0.0,0.0,0.0,0.0,0.0,0.0,0.0,0.0,0.0,0.0,0.0,0.0,0.0,0.0,0.0,0.0,0.0,1.799,2.0174,2.0828,2.1109,2.1109,2.0347,1.9452,1.8477,0.0,0.0,0.0,0.0,0.0,0.0,0.0,0.0,0.0,0.0,0.0,0.0,0.0,0.0,0.0,0.0,0.0,0.0,0.0,0.0,0.0,0.0,0.0,0.0,0.0,0.0,0.0,0.0,0.0,0.0,0.0,0.0,0.0,0.0,0.0,0.0,0.0,0.0,0.0,0.0,0.0,0.0,0.0,0.0,0.0,0.0,0.0,0.0,0.0,0.0,0.0,0.0,0.0,0.0,0.0,0.0,0.0,0.0,0.0,0.0,0.0,0.0,0.0,0.0,0.0,0.0,0.0,0.0,0.0,0.0,0.0,0.0,0.0,0.0,0.0,0.0,0.0,0.0,0.0,0.0,0.0,0.0,0.0,0.0,0.0,0.0,0.0,0.0,0.0,0.0,0.0,0.0,0.0,0.0,0.0,0.0,0.0,0.0,0.0,0.0,0.0,0.0,0.0,1.7275,1.8597,2.0474,2.0935,2.1109,2.1109,2.016,1.9259,1.8537,1.6647,0.0,0.0,0.0,0.0,0.0,0.0,0.0,0.0,0.0,0.0,0.0,0.0,0.0,0.0,0.0,0.0,0.0,0.0,0.0,0.0,0.0,0.0,0.0,0.0,0.0,0.0,0.0,0.0,0.0,0.0,0.0,0.0,0.0,0.0,0.0,0.0,0.0,0.0,0.0,0.0,0.0,0.0,0.0,0.0,0.0,0.0,0.0,0.0,0.0,0.0,0.0,0.0,0.0,0.0,0.0,0.0,0.0,0.0,0.0,0.0,0.0,0.0,0.0,0.0,0.0,0.0,0.0,0.0,0.0,0.0,0.0,0.0,0.0,0.0,0.0,0.0,0.0,0.0,0.0,0.0,0.0,0.0,0.0,0.0,0.0,0.0,0.0,0.0,0.0,0.0,0.0,0.0,0.0,0.0,0.0,0.0,0.0,0.0,0.0,0.0,0.0,0.0,1.8384,1.9232,2.0628,2.0975,2.1082,2.1009,1.9933,1.8978,1.8317,1.6126,0.0,0.0,0.0,0.0,0.0,0.0,0.0,0.0,0.0,0.0,0.0,0.0,0.0,0.0,0.0,0.0,0.0,0.0,0.0,0.0,0.0,0.0,0.0,0.0,0.0,0.0,0.0,0.0,0.0,0.0,0.0,0.0,0.0,0.0,0.0,0.0,0.0,0.0,0.0,0.0,0.0,0.0,0.0,0.0,0.0,0.0,0.0,0.0,0.0,0.0,0.0,0.0,0.0,0.0,0.0,0.0,0.0,0.0,0.0,0.0,0.0,0.0,0.0,0.0,0.0,0.0,0.0,0.0,0.0,0.0,0.0,0.0,0.0,0.0,0.0,0.0,0.0,0.0,0.0,0.0,0.0,0.0,0.0,0.0,0.0,0.0,0.0,0.0,0.0,0.0,0.0,0.0,0.0,0.0,0.0,0.0,0.0,0.0,0.0,0.0,0.0,0.0,1.8604,1.976,2.0955,2.1096,2.1002,2.0728,1.9626,1.8577,1.7702,1.5698,0.0,0.0,0.0,0.0,0.0,0.0,0.0,0.0,0.0,0.0,0.0,0.0,0.0,0.0,0.0,0.0,0.0,0.0,0.0,0.0,0.0,0.0,0.0,0.0,0.0,0.0,0.0,0.0,0.0,0.0,0.0,0.0,0.0,0.0,0.0,0.0,0.0,0.0,0.0,0.0,0.0,0.0,0.0,0.0,0.0,0.0,0.0,0.0,0.0,0.0,0.0,0.0,0.0,0.0,0.0,0.0,0.0,0.0,0.0,0.0,0.0,0.0,0.0,0.0,0.0,0.0,0.0,0.0,0.0,0.0,0.0,0.0,0.0,0.0,0.0,0.0,0.0,0.0,0.0,0.0,0.0,0.0,0.0,0.0,0.0,0.0,0.0,0.0,0.0,0.0,0.0,0.0,0.0,0.0,0.0,0.0,0.0,0.0,0.0,0.0,0.0,0.0,1.831,1.9406,0.0,2.1109,2.0989,2.0702,1.9773,1.8738,1.7649,0.0,0.0,0.0,0.0,0.0,0.0,0.0,0.0,0.0,0.0,0.0,0.0,0.0,0.0,0.0,0.0,0.0,0.0,0.0,0.0,0.0,0.0,0.0,0.0,0.0,0.0,0.0,0.0,0.0,0.0,0.0,0.0,0.0,0.0,0.0,0.0,0.0,0.0,0.0,0.0,0.0,0.0,0.0,0.0,0.0,0.0,0.0,0.0,0.0,0.0,0.0,0.0,0.0,0.0,0.0,0.0,0.0,0.0,0.0,0.0,0.0,0.0,0.0,0.0,0.0,0.0,0.0,0.0,0.0,0.0,0.0,0.0,0.0,0.0,0.0,0.0,0.0,0.0,0.0,0.0,0.0,0.0,0.0,0.0,0.0,0.0,0.0,0.0,0.0,0.0,0.0,0.0,0.0,0.0,0.0,0.0,0.0,0.0,0.0,0.0,0.0,0.0,1.7168,1.8217,1.9339,0.0,2.0969,2.0855,2.0561,1.9466,1.833,1.7235,0.0,0.0,0.0,0.0,0.0,0.0,0.0,0.0,0.0,0.0,0.0,0.0,0.0,0.0,0.0,0.0,0.0,0.0,0.0,0.0,0.0,0.0,0.0,0.0,0.0,0.0,0.0,0.0,0.0,0.0,0.0,0.0,0.0,0.0,0.0,0.0,0.0,0.0,0.0,0.0,0.0,0.0,0.0,0.0,0.0,0.0,0.0,0.0,0.0,0.0,0.0,0.0,0.0,0.0,0.0,0.0,0.0,0.0,0.0,0.0,0.0,0.0,0.0,0.0,0.0,0.0,0.0,0.0,0.0,0.0,0.0,0.0,0.0,0.0,0.0,0.0,0.0,0.0,0.0,0.0,0.0,0.0,0.0,0.0,0.0,0.0,0.0,0.0,0.0,0.0,0.0,0.0,0.0,0.0,0.0,0.0,0.0,0.0,0.0,0.0,0.0,0.0,1.6971,1.8506,1.97,2.0581,2.0675,2.0555,2.0261,1.8611,1.7215,0.0,0.0,0.0,0.0,0.0,0.0,0.0,0.0,0.0,0.0,0.0,0.0,0.0,0.0,0.0,0.0,0.0,0.0,0.0,0.0,0.0,0.0,0.0,0.0,0.0,0.0,0.0,0.0,0.0,0.0,0.0,0.0,0.0,0.0,0.0,0.0,0.0,0.0,0.0,0.0,0.0,0.0,0.0,0.0,0.0,0.0,0.0,0.0,0.0,0.0,0.0,0.0,0.0,0.0,0.0,0.0,0.0,0.0,0.0,0.0,0.0,0.0,0.0,0.0,0.0,0.0,0.0,0.0,0.0,0.0,0.0,0.0,0.0,0.0,0.0,0.0,0.0,0.0,0.0,0.0,0.0,0.0,0.0,0.0,0.0,0.0,0.0,0.0,0.0,0.0,0.0,0.0,0.0,0.0,0.0,0.0,0.0,0.0,0.0,0.0,0.0,0.0,0.0,1.6971,1.8506,1.97,2.0581,2.0675,2.0555,2.0261,1.8998,1.7662,1.6359,0.0,0.0,0.0,0.0,0.0,0.0,0.0,0.0,0.0,0.0,0.0,0.0,0.0,0.0,0.0,0.0,0.0,0.0,0.0,0.0,0.0,0.0,0.0,0.0,0.0,0.0,0.0,0.0,0.0,0.0,0.0,0.0,0.0,0.0,0.0,0.0,0.0,0.0,0.0,0.0,0.0,0.0,0.0,0.0,0.0,0.0,0.0,0.0,0.0,0.0,0.0,0.0,0.0,0.0,0.0,0.0,0.0,0.0,0.0,0.0,0.0,0.0,0.0,0.0,0.0,0.0,0.0,0.0,0.0,0.0,0.0,0.0,0.0,0.0,0.0,0.0,0.0,0.0,0.0,0.0,0.0,0.0,0.0,0.0,0.0,0.0,0.0,0.0,0.0,0.0,0.0,0.0,0.0,0.0,0.0,0.0,0.0,0.0,0.0,0.0,0.0,0.0,1.6747,1.827,1.9526,2.0408,2.0394,2.0301,2.0234,1.9052,1.7776,1.6526,0.0,0.0,0.0,0.0,0.0,0.0,0.0,0.0,0.0,0.0,0.0,0.0,0.0,0.0,0.0,0.0,0.0,0.0,0.0,0.0,0.0,0.0,0.0,0.0,0.0,0.0,0.0,0.0,0.0,0.0,0.0,0.0,0.0,0.0,0.0,0.0,0.0,0.0,0.0,0.0,0.0,0.0,0.0,0.0,0.0,0.0,0.0,0.0,0.0,0.0,0.0,0.0,0.0,0.0,0.0,0.0,0.0,0.0,0.0,0.0,0.0,0.0,0.0,0.0,0.0,0.0,0.0,0.0,0.0,0.0,0.0,0.0,0.0,0.0,0.0,0.0,0.0,0.0,0.0,0.0,0.0,0.0,0.0,0.0,0.0,0.0,0.0,0.0,0.0,0.0,0.0,0.0,0.0,0.0,0.0,0.0,0.0,0.0,0.0,0.0,0.0,0.0,1.6486,1.8003,1.9194,2.004,1.996,1.9907,2.0113,1.8815,1.7609,1.6767,0.0,0.0,0.0,0.0,0.0,0.0,0.0,0.0,0.0,0.0,0.0,0.0,0.0,0.0,0.0,0.0,0.0,0.0,0.0,0.0,0.0,0.0,0.0,0.0,0.0,0.0,0.0,0.0,0.0,0.0,0.0,0.0,0.0,0.0,0.0,0.0,0.0,0.0,0.0,0.0,0.0,0.0,0.0,0.0,0.0,0.0,0.0,0.0,0.0,0.0,0.0,0.0,0.0,0.0,0.0,0.0,0.0,0.0,0.0,0.0,1.5518,0.0,0.0,0.0,0.0,0.0,0.0,0.0,0.0,0.0,0.0,0.0,0.0,0.0,0.0,0.0,0.0,0.0,0.0,0.0,0.0,0.0,0.0,0.0,0.0,0.0,0.0,0.0,0.0,0.0,0.0,0.0,0.0,0.0,0.0,0.0,0.0,0.0,0.0,0.0,0.0,0.0,1.6506,1.8003,1.9172,1.9826,1.9833,1.9826,1.9887,1.8744,1.7649,1.676,1.5211,0.0,0.0,0.0,0.0,0.0,0.0,0.0,0.0,0.0,0.0,0.0,0.0,0.0,0.0,0.0,0.0,0.0,0.0,0.0,0.0,0.0,0.0,0.0,0.0,0.0,0.0,0.0,0.0,0.0,0.0,0.0,0.0,0.0,0.0,0.0,0.0,0.0,0.0,0.0,0.0,0.0,0.0,0.0,0.0,0.0,0.0,0.0,0.0,0.0,0.0,0.0,0.0,0.0,0.0,0.0,0.0,0.0,0.0,0.0,0.0,1.6613,0.0,0.0,0.0,0.0,0.0,0.0,0.0,0.0,0.0,0.0,0.0,0.0,0.0,0.0,0.0,0.0,0.0,0.0,0.0,0.0,0.0,0.0,0.0,0.0,0.0,0.0,0.0,0.0,0.0,0.0,0.0,0.0,0.0,0.0,0.0,0.0,0.0,0.0,0.0,0.0,1.6714,1.7969,1.8998,1.9726,1.9673,1.9646,1.9786,1.8971,1.8136,1.7343,1.5917,0.0,0.0,0.0,0.0,0.0,0.0,0.0,0.0,0.0,0.0,0.0,0.0,0.0,0.0,0.0,0.0,0.0,0.0,0.0,0.0,0.0,0.0,0.0,0.0,0.0,0.0,0.0,0.0,0.0,0.0,0.0,0.0,0.0,0.0,0.0,0.0,0.0,0.0,0.0,0.0,0.0,0.0,0.0,0.0,0.0,0.0,0.0,0.0,0.0,0.0,0.0,0.0,0.0,1.9052,1.9098,1.9098,1.9098,1.9232,1.9432,1.8888,1.8671,1.8484,1.7388,0.0,0.0,0.0,0.0,0.0,0.0,0.0,0.0,0.0,0.0,0.0,0.0,0.0,0.0,0.0,0.0,0.0,0.0,0.0,0.0,0.0,0.0,0.0,0.0,1.7281,1.7092,1.5244,0.0,0.0,0.0,0.0,0.0,0.0,0.0,0.0,0.0,0.0,0.0,1.6998,1.7976,1.8865,1.9639,1.9512,1.9466,1.97,1.9232,1.8615,1.8029,1.675,1.5772,0.0,0.0,0.0,0.0,0.0,0.0,0.0,0.0,0.0,0.0,0.0,0.0,0.0,0.0,0.0,0.0,0.0,0.0,0.0,0.0,0.0,0.0,0.0,0.0,0.0,0.0,0.0,0.0,0.0,0.0,0.0,0.0,1.5104,1.5264,0.0,0.0,0.0,0.0,0.0,0.0,0.0,0.0,0.0,0.0,0.0,0.0,0.0,1.8891,1.9192,1.9987,2.0514,2.0768,2.1283,2.1523,2.1523,2.1523,2.1543,2.1577,2.1503,0.0,1.8811,1.8089,0.0,0.0,0.0,0.0,0.0,0.0,0.0,0.0,0.0,0.0,0.0,0.0,0.0,0.0,0.0,0.0,0.0,0.0,0.0,0.0,0.0,0.0,1.8791,1.8357,1.8677,1.8914,0.0,1.6754,1.5504,1.4854,1.4338,0.0,0.0,0.0,0.0,0.0,0.0,0.0,1.7105,1.8156,1.9011,1.9386,1.945,1.9379,1.9419,1.9112,1.8615,1.8029,1.7375,1.6593,1.5752,1.4836,0.0,0.0,0.0,0.0,0.0,0.0,0.0,0.0,0.0,0.0,0.0,0.0,0.0,0.0,0.0,0.0,0.0,0.0,0.0,0.0,0.0,0.0,0.0,0.0,0.0,0.0,0.0,0.0,0.0,1.5231,1.6132,1.6132,1.6393,1.6393,0.0,0.0,0.0,0.0,0.0,0.0,0.0,0.0,0.0,1.9452,1.9913,2.0294,2.065,2.1136,2.1476,2.1603,2.1864,2.1984,2.1984,2.1984,2.1984,2.1984,2.1984,2.1476,2.0575,1.9653,1.8931,1.8392,0.0,0.0,0.0,0.0,1.7662,1.7609,1.823,1.817,1.7776,1.7535,0.0,0.0,0.0,0.0,0.0,0.0,0.0,0.0,0.0,0.0,1.9386,1.9452,1.9666,1.9786,1.9526,1.8724,1.7689,0.0,1.6033,1.5564,1.4596,0.0,0.0,0.0,0.0,1.6794,1.7555,1.8397,1.9038,1.9332,1.9424,1.9424,1.9424,1.9252,1.8925,1.8337,1.7883,1.7315,1.66,1.5725,1.4856,0.0,0.0,0.0,0.0,0.0,0.0,0.0,0.0,0.0,0.0,0.0,0.0,0.0,0.0,0.0,0.0,0.0,0.0,0.0,0.0,0.0,0.0,0.0,0.0,0.0,0.0,0.0,0.0,1.6213,1.7021,1.6941,1.7395,1.7507,0.0,0.0,0.0,0.0,0.0,0.0,1.9446,1.9833,2.0274,2.0775,2.137,2.1784,2.2004,2.2298,2.2438,2.2438,2.2438,2.2438,2.2438,2.2365,2.2331,2.2325,2.2245,2.2164,2.2011,2.0909,2.016,1.9646,1.9058,1.8784,1.8751,1.9038,1.9011,1.8931,1.9659,1.972,1.9392,1.8885,1.8617,1.8222,1.7094,0.0,0.0,0.0,0.0,1.8257,1.9225,1.9645,1.9813,2.0241,2.0401,2.0434,2.0361,2.018,1.9546,0.0,1.7594,1.7219,1.6132,0.0,0.0,0.0,0.0,1.7402,1.8022,1.8671,1.9125,1.9345,1.9424,1.9424,1.9424,1.9299,1.9032,1.8524,1.8196,1.7762,1.7226,1.6446,1.5745,1.5129,0.0,0.0,0.0,0.0,0.0,0.0,0.0,0.0,0.0,0.0,0.0,0.0,0.0,0.0,0.0,0.0,0.0,0.0,0.0,0.0,0.0,0.0,0.0,0.0,0.0,0.0,0.0,0.0,0.0,1.7575,1.8557,0.0,0.0,0.0,0.0,1.9212,1.9539,2.0087,2.0955,2.1543,2.1997,2.2298,2.2899,2.322,2.3233,2.3534,2.3681,2.3681,2.3681,2.3681,2.3674,2.3387,2.326,2.3247,2.2946,2.2659,2.2325,2.143,2.0882,2.0555,1.9967,1.9566,1.9417,1.9646,1.9746,1.978,2.01,2.002,1.986,2.0374,2.0167,1.9646,1.9299,1.8811,0.0,0.0,1.9058,1.9359,1.9693,2.0194,2.0621,2.0648,2.0862,2.0989,2.0715,2.0641,2.0274,0.0,1.8611,1.8223,1.7582,0.0,1.7455,1.7468,1.8003,1.8417,1.8464,1.8978,1.9352,1.9424,1.9424,1.9424,1.9424,1.9112,1.8818,1.851,1.821,1.7776,1.7226,1.6834,1.6253,1.5391,1.4496,0.0,0.0,0.0,0.0,0.0,0.0,0.0,0.0,0.0,0.0,0.0,0.0,0.0,0.0,0.0,0.0,0.0,0.0,0.0,0.0,0.0,0.0,0.0,0.0,0.0,0.0,0.0,0.0,1.8998,1.972,0.0,1.9441,1.9726,2.014,2.079,2.1042,2.1597,2.2485,2.2732,2.2986,2.328,2.35,2.3614,2.3614,2.3721,2.3774,2.3774,2.3774,2.3774,2.3768,2.3661,2.3507,2.332,2.3207,2.2986,2.2665,2.2158,2.1777,2.1483,2.1082,2.0924,2.0824,2.0675,2.0641,2.0655,2.0762,2.0728,2.0648,2.0668,2.0408,2.006,1.9953,1.9773,1.9673,1.9967,2.0127,2.0274,2.0568,2.0795,2.0955,2.0955,2.1036,2.1082,2.0975,2.0955,2.0775,2.0167,1.9512,1.8925,1.8517,1.829,1.8103,1.7909,1.839,1.8771,1.8771,1.9118,1.9424,1.9424,1.9424,1.9292,1.9098,1.8985,1.8631,1.7949,1.7809,1.7482,1.6887,1.6587,1.6279,1.5965,1.5142,1.4021,0.0,0.0,0.0,0.0,0.0,0.0,0.0,0.0,0.0,0.0,0.0,0.0,0.0,0.0,0.0,0.0,0.0,0.0,0.0,0.0,0.0,0.0,0.0,0.0,0.0,0.0,1.9733,1.992,2.0728,2.1109,2.0715,2.1122,2.1623,2.2118,2.2331,2.2739,2.344,2.3567,2.3714,2.3915,2.4108,2.4209,2.4209,2.4209,2.4209,2.4209,2.4108,2.4062,2.4062,2.3961,2.3808,2.3614,2.3521,2.33,2.3006,2.2806,2.2552,2.2245,2.185,2.1762,2.1728,2.137,2.1256,2.1243,2.1142,2.1109,2.1076,2.0882,2.0688,2.0528,2.0528,2.0528,2.0568,2.0768,2.0822,2.0869,2.1056,2.1109,2.1109,2.1109,2.1109,2.1109,2.1109,2.1109,2.1049,2.0862,2.0274,1.9713,1.9419,1.9125,1.8865,1.8671,1.8885,1.9072,1.9072,1.9245,1.9424,1.9424,1.9424,1.9245,1.8951,1.8681,1.8377,1.7776,1.7455,1.7154,1.6867,1.648,1.6321,1.6321,1.5311,1.4543,1.3971,0.0,0.0,0.0,0.0,0.0,0.0,0.0,0.0,0.0,0.0,0.0,0.0,0.0,0.0,0.0,0.0,0.0,0.0,0.0,0.0,0.0,0.0,0.0,1.8544,1.9533,2.0213,2.0307,2.157,2.2218,2.1742,2.2459,2.302,2.3333,2.3354,2.3487,2.3781,2.4075,2.4229,2.4229,2.479,2.5097,2.5097,2.5097,2.509,2.5077,2.479,2.4643,2.4623,2.4342,2.4209,2.4189,2.3908,2.3614,2.334,2.3327,2.3146,2.2819,2.2231,2.1997,2.1964,2.1735,2.1628,2.1574,2.1223,2.1116,2.1109,2.1109,2.1109,2.1109,2.1109,2.1109,2.1109,2.1109,2.1109,2.1109,2.1109,2.1109,2.1109,2.1109,2.1109,2.1109,2.1109,2.1109,2.1109,2.1109,2.0882,2.0595,2.0301,2.0007,1.9813,1.9813,1.9573,0.0,1.9379,1.9379,1.9437,1.9424,1.9424,1.9245,1.8951,1.8342,1.7995,1.7969,1.7188,1.6834,1.7159,1.6623,1.6321,1.6321,1.5137,1.4838,1.5496,0.0,0.0,0.0,0.0,0.0,0.0,0.0,0.0,0.0,0.0,0.0,0.0,0.0,0.0,0.0,0.0,0.0,0.0,0.0,0.0,0.0,0.0,1.9753,1.9753,2.0401,2.1189,2.2038,2.2498,2.2853,2.3202,2.338,2.3641,2.3941,2.3961,2.4088,2.4382,2.4676,2.4836,2.4836,2.5204,2.5391,2.5391,2.5391,2.5291,2.5077,2.4997,2.4843,2.4636,2.4556,2.4402,2.4202,2.4122,2.3921,2.3627,2.3414,2.328,2.314,2.2539,2.2298,2.2265,2.1977,2.1802,2.1608,2.1463,2.1289,2.1109,2.1109,2.1109,2.1109,2.1109,2.1109,2.1109,2.1109,2.1109,2.1109,2.1109,2.1109,2.1109,2.1109,2.1109,2.1109,2.1109,2.1109,2.1109,2.1109,2.1042,2.0895,2.0608,2.0307,2.0114,2.0114,2.0047,0.0,1.9713,1.9679,1.9599,1.945,1.9424,1.9245,1.8951,1.8584,1.809,1.7435,1.6961,1.6647,1.6569,1.6409,1.6321,1.6321,1.5538,1.5143,0.0,0.0,0.0,0.0,0.0,0.0,0.0,0.0,0.0,0.0,0.0,0.0,0.0,0.0,0.0,0.0,0.0,0.0,0.0,0.0,0.0,0.0,1.982,2.0728,2.1096,2.1443,2.1957,2.2766,2.3086,2.3427,2.3908,2.4062,2.4202,2.4376,2.4496,2.4643,2.4816,2.5104,2.5264,2.5264,2.5545,2.5698,2.5698,2.5698,2.5611,2.5444,2.5197,2.499,2.4816,2.469,2.4543,2.4382,2.4382,2.4222,2.3928,2.3634,2.344,0.0,0.0,0.0,0.0,0.0,2.1984,2.1782,2.1661,2.1436,2.1276,2.1149,2.1109,2.1109,2.1109,2.1109,2.1109,2.1109,2.1109,2.1109,2.1109,2.1109,2.1109,2.1109,2.1109,2.1109,2.1109,2.1109,2.1109,2.1109,2.1109,0.0,2.0882,2.0615,2.0421,2.0421,2.0314,2.0113,2.0,1.9873,1.9733,1.9566,1.9497,1.9245,1.8951,1.8657,0.0,0.0,0.0,1.676,1.6466,1.6453,0.0,0.0,0.0,0.0,0.0,0.0,0.0,0.0,1.7926,1.6685,0.0,0.0,0.0,0.0,0.0,0.0,0.0,0.0,0.0,0.0,0.0,0.0,0.0,0.0,0.0,0.0,2.0828,2.153,2.2311,2.2478,2.2632,2.2933,2.3467,2.3935,2.4222,2.4516,2.469,2.469,2.4963,2.513,2.513,0.0,0.0,0.0,0.0,2.6083,2.6083,2.6083,2.607,2.603,2.5424,2.5144,2.507,2.4803,2.4669,2.4636,2.4636,2.4489,2.4229,2.3941,2.3627,2.3293,2.2986,2.2928,2.2826,2.2565,2.2285,2.1997,2.1737,0.0,0.0,2.1243,2.1136,2.1109,2.1109,2.1109,2.1109,2.1109,2.1109,2.1109,2.1109,2.1109,2.1109,2.1109,2.1109,2.1109,2.1109,2.1109,2.1109,2.1109,2.1109,2.1109,2.1109,2.0895,2.0728,2.0728,2.0501,2.0321,2.0287,2.006,1.9873,1.9806,0.0,0.0,1.8998,1.8704,1.841,1.8062,1.7562,1.723,1.7113,1.7133,1.7234,1.7344,1.8903,2.029,2.137,2.3314,2.4638,2.5233,1.95,1.7246,0.0,0.0,0.0,0.0,0.0,0.0,0.0,0.0,0.0,0.0,0.0,0.0,0.0,0.0,0.0,2.0508,2.1476,2.2225,2.2392,2.2839,2.326,2.3561,2.3908,2.4235,2.4523,2.4823,2.4997,2.4997,2.5264,2.5431,2.5431,2.5712,2.5872,2.5872,2.6152,2.6306,2.6306,2.6306,2.6186,2.6037,0.0,0.0,2.5077,2.5024,2.4863,2.4636,2.4636,2.4603,2.4529,2.4242,2.3808,2.3293,2.2986,2.2928,2.2921,2.2799,2.2592,2.2331,2.2271,2.1944,2.1608,2.1547,2.1303,2.1109,2.1109,2.1109,0.0,2.1109,2.1109,2.1109,2.1109,2.1109,2.1109,2.1109,2.1109,2.1109,2.1109,2.1109,2.1109,2.1109,2.1109,2.1109,2.1109,2.1062,2.1029,2.1029,2.0975,2.0855,2.0621,2.0541,2.0327,1.9853,1.9746,1.9599,1.9305,1.9011,1.8711,1.8424,1.807,1.8362,1.953,1.9826,2.0363,2.1385,2.1707,2.1998,2.2255,2.2654,2.31,2.3426,2.3281,2.3099,0.0,0.0,0.0,0.0,0.0,0.0,0.0,0.0,0.0,0.0,0.0,1.8484,0.0,0.0,2.0695,2.143,2.2038,2.2525,2.2832,2.326,2.3607,2.3754,2.4028,2.4322,2.4609,2.4903,2.5077,2.5077,2.5484,2.5732,2.5732,2.6012,2.6172,2.6172,2.6313,2.6386,2.6386,2.6386,2.6319,2.6172,2.6026,2.5725,2.5291,2.5144,2.4917,2.4636,2.4636,2.4636,2.4603,2.4168,2.3728,2.3293,2.2986,2.2928,2.2928,2.2928,2.2772,2.2619,2.2472,2.2131,2.1809,2.1661,2.1349,2.1109,2.1109,2.1109,2.1109,2.1109,2.1109,2.1109,2.1109,2.1109,2.1109,2.1109,2.1109,2.1109,2.1109,2.1109,2.1109,2.1109,2.1109,2.1109,2.1109,2.1109,2.1109,2.1109,2.1109,2.1056,2.0909,2.0768,2.0508,2.0067,1.9887,1.9679,1.9392,1.9092,1.8865,1.8718,1.843,1.8585,1.9379,1.9521,1.9903,2.049,2.2127,2.2961,2.2961,2.4597,2.5591,2.5919,2.6635,2.5923,0.0,0.0,0.0,0.0,0.0,0.0,0.0,0.0,1.7822,1.8424,1.8978,1.9579,2.0347,2.0775,2.1343,2.2345,2.2559,2.2786,2.3333,2.3667,2.3855,2.3855,2.4108,2.4382,2.4616,2.4957,2.5164,2.5164,2.5705,2.6117,2.6117,2.6266,2.6386,2.6386,2.6386,2.6386,2.6386,2.6386,2.6386,2.6386,2.6152,2.5852,2.5504,2.5271,2.497,2.4636,2.4636,2.4636,2.4596,2.4008,2.3627,2.3374,2.3006,2.2928,2.2928,2.2928,2.2928,2.2826,2.2585,2.2278,2.1944,2.1775,2.1396,2.1109,2.1109,2.1109,2.1109,2.1109,2.1109,2.1109,2.1109,2.1109,2.1109,2.1109,2.1109,2.1109,2.1109,2.1109,2.1109,2.1109,2.1109,2.1109,2.1109,2.1109,2.1109,2.1109,2.1109,2.1109,2.1109,2.0902,2.0648,2.0347,2.006,1.974,1.9457,1.9152,1.9119,1.9389,1.922,1.9362,1.9957,2.0005,2.0116,2.0384,2.2972,2.4362,2.4485,2.7131,2.8633,2.9053,2.9131,2.7678,1.4878,1.5458,1.5879,1.675,1.7032,1.7514,0.0,0.0,1.9417,2.0207,2.0641,2.0975,2.1343,2.185,2.2352,2.2746,2.3046,2.334,2.3674,2.3975,2.4155,2.4155,2.4409,2.4603,2.4636,2.5137,2.5464,2.5464,2.6012,2.6339,2.6339,2.6373,2.6386,2.6386,2.6386,2.6386,2.6386,2.6386,2.6386,2.6386,2.636,2.6052,2.5511,2.5478,2.5164,2.4636,2.4636,2.4636,2.4596,2.4008,2.3754,2.3667,2.3086,2.2928,2.2928,2.2928,2.2928,2.2859,2.2894,2.2452,2.1984,2.1951,2.1563,2.1109,2.1109,2.1109,2.1109,2.1109,2.1109,2.1109,2.1109,2.1109,2.1109,2.1109,2.1109,2.1109,2.1109,2.1109,2.1109,2.1109,2.1109,2.1109,2.1109,2.1109,2.1109,2.1109,2.1109,2.1109,2.1109,2.1082,2.0949,2.0655,2.0361,1.996,1.9412,1.9397,1.9876,2.12,2.1277,2.2472,2.5138,2.5248,2.5865,2.7198,2.7586,2.7949,2.8269,2.8655,2.9072,2.9502,2.9883,2.9655,1.5778,1.676,1.7156,1.7575,1.8183,1.8885,1.9626,1.9833,2.0074,2.0782,2.1162,2.1456,2.175,2.2138,2.2572,0.0,2.324,2.3434,2.3728,2.3875,2.3955,2.3955,2.4062,2.4262,2.4603,2.517,2.5511,2.5511,2.6059,2.6386,2.6386,2.6386,2.6386,2.6386,2.6386,2.6386,2.6386,2.6386,2.6386,2.6386,2.6386,2.6172,2.5765,2.5591,2.5191,2.4636,2.4636,2.4636,2.4596,2.4008,2.3774,2.3708,2.3169,2.2928,2.2928,2.2928,2.2928,2.2928,2.2928,2.2478,2.1984,2.1984,2.159,2.1109,2.1109,2.1109,2.1109,2.1109,2.1109,2.1109,2.1109,2.1109,2.1109,2.1109,2.1109,2.1109,2.1109,2.1109,2.1109,2.1109,2.1109,2.1109,2.1109,2.1109,2.1109,2.1109,2.1109,2.1109,2.1109,2.1109,2.0995,2.0708,2.0261,1.9887,1.9639,1.9466,1.9649,2.0256,2.0314,2.0873,2.2161,2.3039,2.3758,2.4378,2.6344,2.7454,2.7622,2.8774,2.9521,2.9941,3.0117,3.0254,1.6432,1.7589,1.8049,1.8295,1.9172,1.994,2.002,2.0267,2.0595,2.1022,2.1349,2.1681,2.1824,2.2171,2.2619,2.3227,2.34,2.3554,2.3848,2.3888,2.3861,2.3781,2.3774,2.3968,2.4469,2.497,2.5337,2.5504,2.5985,2.6306,2.6386,2.6386,2.6386,2.6386,2.6386,2.6386,2.6386,2.6386,2.6386,2.6386,2.6386,2.6239,2.6023,2.5565,2.5117,2.4636,2.4636,2.4636,2.4596,2.4095,2.3841,2.3721,2.3193,2.2939,2.2928,2.2928,2.2928,2.2928,2.2928,2.2532,2.2091,2.2011,2.1643,2.1216,2.1136,2.1109,2.1109,2.1109,2.1109,2.1109,2.1109,2.1109,2.1109,2.1109,2.1109,2.1109,2.1109,2.1109,2.1109,2.1109,2.1109,2.1109,2.1109,2.1109,2.1109,2.1109,2.1109,2.1109,2.1109,2.1109,2.0995,2.0708,2.0294,1.9973,1.9813,2.0003,2.0231,2.0601,2.0988,2.1437,2.1828,2.2878,2.3528,2.3625,2.6051,2.7447,2.7669,2.9066,2.9961,3.0391,3.0391,3.0566,1.6696,1.7589,1.8195,1.9112,1.978,2.0294,2.0581,2.0875,2.1089,2.1109,2.1349,2.1621,2.1628,2.2031,2.2619,2.3227,2.3567,2.3855,2.4148,2.4189,2.4082,2.3801,2.3774,2.3888,0.0,2.4489,2.4897,2.5471,2.5798,2.6092,2.6373,2.6386,2.6386,2.6386,2.6386,2.6386,2.6386,2.6386,2.6386,2.6386,2.6386,2.6239,2.6016,2.5358,2.4923,2.4636,2.4636,2.4636,2.4616,2.4315,2.4022,2.3741,2.3434,2.3126,2.2928,2.2928,2.2928,2.2928,2.2928,2.2665,2.2358,2.2078,2.1784,2.1547,2.1196,2.1109,2.1109,2.1109,2.1109,2.1109,2.1109,2.1109,2.1109,2.1109,2.1109,2.1109,2.1109,2.1109,2.1109,2.1109,2.1109,2.1109,2.1109,2.1109,2.1109,2.1109,2.1109,2.1109,2.1109,2.1109,2.0995,2.0708,2.0661,2.0421,1.9846,2.1094,2.2433,2.3567,2.5041,2.6554,2.795,2.8067,2.8261,2.8668,2.8797,2.9271,3.0099,3.0176,3.042,3.0869,3.0869,3.0879,1.5544,1.6891,1.76,1.8105,1.9498,2.0842,2.0942,2.1042,2.1109,2.1109,2.1349,2.1614,2.1614,2.1871,2.2392,2.3193,2.3414,2.3647,2.4135,2.4202,2.4022,2.3534,2.3654,0.0,0.0,0.0,0.0,2.5471,2.5792,2.6086,2.6373,2.6386,2.6386,2.6386,2.6386,2.6386,2.6386,2.6386,2.6386,2.6386,2.6386,2.6132,2.5658,2.5458,2.5104,2.4636,2.4636,2.4636,2.4616,2.4322,2.4035,2.3741,2.344,2.314,2.2928,2.2928,2.2928,2.2928,2.2928,2.2665,2.2372,2.2078,2.179,2.1561,2.1196,2.1109,2.1109,2.1109,2.1109,2.1109,2.1109,2.1109,2.1109,2.1109,2.1109,2.1109,2.1109,2.1109,2.1109,2.1109,2.1109,2.1109,2.1109,2.1109,2.1109,2.1109,2.1109,2.1109,2.1109,2.1109,2.1503,2.2503,2.2425,2.262,2.3513,2.3861,2.4259,2.4655,2.517,2.5682,2.6144,2.7129,2.7707,2.7846,2.9104,2.9912,3.0195,3.0508,3.0742,3.0889,3.0889,3.0889,1.5298,1.6733,1.7467,1.8593,1.9996,2.1109,2.1109,2.1109,2.1082,2.0975,2.1109,2.1266,2.1102,2.1323,2.181,2.2706,2.3026,2.3374,2.3961,2.4142,2.4028,2.3547,2.3748,2.3968,0.0,0.0,0.0,2.5471,2.5792,2.6086,2.6373,2.6386,2.6386,2.6386,2.6386,2.6386,2.6386,2.6386,2.6386,2.6386,2.6286,2.5979,2.5511,2.5404,2.5097,2.4636,2.4636,2.4636,2.4623,2.4436,2.4128,2.3754,2.3561,2.3227,2.2928,2.2928,2.2928,2.2928,2.2928,2.2739,2.2532,2.2238,2.1944,2.165,2.1356,2.1196,2.1109,2.1109,2.1109,2.1109,2.1109,2.1109,2.1109,2.1109,2.1109,2.1109,2.1109,2.1109,2.1109,2.1109,2.1109,2.1109,2.1109,2.1109,2.1292,2.1908,2.1481,2.1109,2.1109,2.1601,2.2404,2.345,2.338,2.3855,2.538,2.5872,2.6035,2.5898,2.6416,2.6703,2.6703,2.7644,2.8181,2.8321,2.9584,3.0273,3.0449,3.0742,3.0889,3.0889,3.0889,3.0889,1.5737,1.6905,1.7596,2.0192,2.0912,2.0982,2.1109,2.1096,2.1002,2.0715,2.0641,2.0541,0.0,0.0,2.0942,2.1824,2.2465,2.3149,2.3708,2.4055,2.4142,0.0,0.0,0.0,0.0,0.0,0.0,2.5491,0.0,2.6066,2.6373,2.6386,2.6386,2.6386,2.6386,2.6386,2.6386,2.6386,2.6386,2.6386,2.6092,2.5798,2.5504,2.5211,2.4917,2.4636,2.4636,2.4636,2.4636,2.4636,2.4295,2.3774,2.3774,2.34,2.2928,2.2928,2.2928,2.2928,2.2928,2.2928,2.2812,2.2498,2.2211,2.1931,2.1688,2.1336,2.1109,2.1109,2.1109,2.1109,2.1109,2.1109,2.1109,2.1109,2.1109,2.1109,2.1109,2.1109,2.1109,2.1109,2.1109,2.1109,2.1109,2.1172,2.1727,2.327,2.2341,2.1411,2.1355,2.2654,2.3636,2.3814,2.3876,2.4347,2.5668,2.7147,2.7821,2.7498,2.8879,2.9695,2.9695,2.9695,2.9824,3.0225,3.0234,3.0449,3.0889,3.0889,3.0889,3.0889,3.0889,3.0889,1.2939,1.3928,1.4745,1.6711,1.818,1.9483,2.0786,2.0942,2.0702,2.0408,2.0174,1.9933,0.0,0.0,0.0,2.1516,2.2405,0.0,2.3975,2.4529,0.0,2.4449,0.0,2.5124,2.4983,2.5364,0.0,0.0,2.5712,2.5852,2.6366,2.6386,2.6386,2.6386,2.6386,2.6386,2.6386,2.6386,2.6386,2.6386,2.6092,2.5798,2.5504,2.5211,2.4917,2.4636,2.4636,2.4636,2.4636,2.4636,2.4295,2.3774,2.3774,2.34,2.2928,2.2928,2.2928,2.2928,2.2928,2.2928,2.2779,2.2265,2.2044,2.1891,2.1376,2.1169,2.1109,2.1109,2.1109,2.1109,2.1109,2.1109,2.1109,2.1109,2.1109,2.1109,2.1109,2.1109,2.1109,2.1109,2.1109,2.1109,2.1109,2.216,2.2709,2.1853,2.4463,2.6106,2.4885,2.4054,2.4548,2.6901,2.7211,2.7836,2.939,2.9868,3.0064,3.0016,3.0373,3.0557,3.0557,3.0557,3.0605,3.0713,3.0713,3.0771,3.0889,3.0889,3.0889,3.0889,3.0889,3.0889,1.2249,1.2972,1.3905,1.6431,1.7795,1.887,2.0237,2.0508,2.0247,1.9381,1.9245,0.0,1.8664,1.9172,0.0,0.0,0.0,0.0,2.3714,2.4549,2.5017,0.0,2.5351,0.0,2.5484,2.5765,2.609,0.0,2.5992,2.6039,2.6373,2.6386,2.6386,2.6386,2.6386,2.6386,2.6386,2.6386,2.6326,2.6193,2.5905,2.5605,2.5311,2.5017,2.4796,2.4636,0.0,2.4636,2.4636,2.4636,2.4295,2.3774,2.3774,2.34,2.2928,2.2928,2.2928,2.2928,2.2928,2.2928,2.2806,2.2478,2.2198,2.1924,2.1597,2.1316,2.1109,2.1109,2.1109,2.1109,2.1109,2.1109,2.1109,2.1109,2.1109,2.1109,2.1109,2.1109,2.1109,2.1109,2.1109,2.1355,2.2097,2.2959,2.3504,2.3311,2.5619,2.7263,2.7073,2.6296,2.6417,2.8239,2.8417,2.9098,3.0762,3.0889,3.0889,3.0889,3.0889,3.0889,3.0889,3.0889,3.0889,3.0889,3.0889,3.0889,3.0889,3.0889,3.0889,3.0889,3.0889,3.0889,1.2331,1.2877,1.3779,1.7275,1.8157,1.8404,1.9606,1.996,1.9614,1.8268,0.0,1.8136,1.7569,1.8203,1.9025,1.9693,0.0,2.2559,2.3287,2.4362,2.5097,2.5137,2.5658,2.6012,2.6012,2.6012,2.6119,2.6373,2.6386,2.6386,2.6386,2.6386,2.6386,2.6386,2.6386,2.6386,2.6386,2.6346,2.6206,2.603,2.5618,2.5324,2.507,2.477,2.4636,2.4636,2.4636,2.4636,2.4636,2.4636,2.4295,2.3774,2.3774,2.34,2.2928,2.2928,2.2928,2.2928,2.2928,2.2928,2.2921,2.2819,2.2458,2.2031,2.1951,2.1577,2.1162,2.1122,2.1109,2.1109,2.1109,2.1109,2.1109,2.1109,2.1109,2.1109,2.1109,2.1109,2.1109,2.1109,2.1109,2.1544,2.3021,2.345,2.4054,2.5497,2.6045,2.6832,2.823,2.8417,2.8477,2.8724,2.8724,2.9344,3.0762,3.0889,3.0889,3.0889,3.0889,3.0889,3.0889,3.0889,3.0889,3.0889,3.0889,3.0889,3.0889,3.0889,3.0889,3.0889,3.0889,3.0889,1.1027,1.1156,1.2022,1.5459,1.6162,1.677,1.9498,1.9639,0.0,0.0,1.7695,1.7326,1.6921,1.7589,1.8495,1.9626,0.0,0.0,0.0,0.0,2.517,0.0,0.0,0.0,0.0,0.0,0.0,0.0,0.0,2.6386,2.6386,2.6386,2.6386,2.6386,2.6386,2.6386,2.6386,2.6152,2.6083,2.603,2.5411,2.513,2.507,2.477,2.4636,2.4636,2.4636,0.0,2.4636,2.4636,2.4295,2.3774,2.3774,2.34,2.2928,2.2928,2.2928,2.2928,2.2928,2.2928,2.2819,2.2572,2.2425,2.2251,2.177,2.1621,2.1487,2.1182,2.1109,2.1109,2.1109,2.1109,2.1109,2.1109,2.1109,2.1109,2.1109,2.1109,2.1109,2.1109,2.1109,2.1172,2.1481,2.2709,2.369,2.3993,2.6296,2.811,2.8358,2.8417,2.8911,3.0333,3.046,3.0577,3.0889,3.0889,3.0889,3.0889,3.0889,3.0889,3.0889,3.0889,3.0889,3.0889,3.0889,3.0889,3.0889,3.0889,3.0889,3.0889,3.0889,3.0889,1.0677,1.0721,1.1567,1.5009,1.5687,1.6159,1.875,0.0,0.0,0.0,1.6787,1.6656,1.6306,1.7101,0.0,0.0,0.0,0.0,0.0,0.0,0.0,0.0,0.0,0.0,0.0,0.0,0.0,0.0,0.0,2.6386,2.6386,2.6386,2.6386,2.6386,2.6386,2.6386,2.6386,2.6099,2.5879,2.5718,2.5284,2.4997,2.4843,2.4703,2.4636,2.4636,2.4636,2.4636,2.4636,2.4636,2.4382,2.3981,2.3828,2.35,2.3086,2.2926,2.2928,2.2928,2.2928,2.2928,2.2839,2.2692,2.2545,2.2365,2.2084,2.179,2.1588,2.1383,2.1229,2.1109,2.1109,2.1109,2.1109,2.1109,2.1109,2.1109,2.1109,2.1109,2.1109,2.1109,2.1109,2.1664,2.3365,2.4348,2.5146,2.5993,2.8128,2.9403,2.8477,2.9157,3.002,3.083,3.0889,3.0889,3.0889,3.0889,3.0889,3.0889,3.0889,3.0889,3.0889,3.0889,3.0889,3.0889,3.0889,3.0889,3.0889,3.0889,3.0889,3.0889,3.0889,3.0889,1.0677,1.0721,1.1567,1.5009,1.5652,1.5933,1.8071,1.8437,0.0,0.0,1.6059,1.6106,1.5872,0.0,1.7488,0.0,1.9412,0.0,0.0,0.0,0.0,0.0,0.0,0.0,0.0,0.0,0.0,0.0,0.0,0.0,2.6386,2.6386,2.6386,2.6386,2.6386,2.6386,2.6386,2.6039,2.5745,2.5511,2.5157,2.4863,2.4636,2.4636,2.4636,2.4636,2.4636,0.0,2.4636,2.4636,2.4469,2.4175,2.3881,2.3587,2.3287,2.2979,2.2928,2.2928,2.2928,2.2928,2.2928,2.2928,2.2706,2.2498,2.2438,2.2058,2.1695,2.1635,2.1336,2.1109,2.1109,2.1109,2.1109,2.1109,2.1109,2.1109,2.1109,2.1109,2.1109,2.1109,2.1109,2.2027,2.4947,2.5497,2.6167,2.8119,2.953,3.002,2.9039,3.0089,3.0889,3.0889,3.0889,3.0889,3.0889,3.0889,3.0889,3.0889,3.0889,3.0889,3.0889,3.0889,3.0889,3.0889,3.0889,3.0889,3.0889,3.0889,3.0889,3.0889,3.0889,3.0889,1.0677,1.0721,1.1567,1.5009,1.5473,1.5713,1.8269,0.0,0.0,1.6426,1.6039,1.5865,1.5832,1.6139,1.6898,0.0,0.0,2.0174,0.0,0.0,0.0,0.0,0.0,0.0,0.0,0.0,0.0,0.0,0.0,0.0,2.6386,2.6386,2.6386,2.6386,2.6386,2.6386,2.6386,2.5832,2.5538,2.5504,2.4943,2.4663,2.4636,2.4636,2.4636,2.4636,2.4636,0.0,0.0,2.4636,2.4469,2.4175,2.3881,2.3587,2.3287,2.2979,2.2928,2.2928,2.2928,2.2928,2.2928,2.2928,2.2914,2.2772,2.2498,2.2198,2.1891,2.1695,2.1336,2.1109,2.1109,2.1109,2.1109,2.1109,2.1109,2.1109,2.1109,2.1109,2.1109,2.1109,2.1109,2.1664,2.3512,2.3814,2.4848,2.7931,2.8536,2.9098,3.0518,3.082,3.0889,3.0889,3.0889,3.0889,3.0889,3.0889,3.0889,3.0889,3.0889,3.0889,3.0889,3.0889,3.0889,3.0889,3.0889,3.0889,3.0889,3.0889,3.0889,3.0889,3.0889,3.0889,1.0493,1.1428,1.261,1.397,1.5358,1.6462,1.7002,0.0,1.7119,1.6192,1.5912,1.5784,1.5784,1.6072,1.663,1.7581,1.8183,1.9165,2.0862,0.0,0.0,0.0,0.0,0.0,0.0,0.0,0.0,0.0,0.0,0.0,2.6386,2.6386,2.6386,2.6386,2.6386,2.6386,2.6386,2.5805,2.5511,2.5504,2.4917,2.4636,2.4636,2.4636,2.4636,2.4636,2.4636,0.0,0.0,2.4636,2.4569,2.4416,2.3955,2.3694,2.3534,2.304,2.2928,2.2928,2.2928,2.2928,2.2928,2.2928,2.2928,2.2908,2.2719,2.2358,2.1964,2.1844,2.147,2.1109,2.1109,2.1109,2.1109,2.1109,2.1109,2.1109,2.1109,2.1109,2.1109,2.1109,2.1908,2.3139,2.477,2.5871,2.7271,2.953,2.9903,3.0147,3.083,3.0889,3.0889,3.0889,3.0889,3.0889,3.0889,3.0889,3.0889,3.0889,3.0889,3.0889,3.0889,3.0889,3.0889,3.0889,3.0889,3.0889,3.0889,3.0889,3.0889,3.0889,3.0889,3.0889,1.0253,1.1782,1.3227,1.3172,1.5197,1.696,0.0,1.6524,1.6951,1.6012,1.5784,1.5784,1.5784,1.5999,1.6359,1.7092,1.7649,1.8495,1.9967,2.0995,0.0,0.0,0.0,0.0,0.0,0.0,0.0,0.0,0.0,0.0,2.6386,2.6386,2.6386,2.6386,2.6386,2.6346,2.6266,2.5765,2.5471,2.5378,2.4877,2.4636,2.4636,2.4636,2.4636,2.4636,2.4636,0.0,0.0,2.4636,2.4636,2.4576,2.3995,2.3774,2.3701,2.3086,2.2928,2.2928,2.2928,2.2928,2.2928,2.2928,2.2928,2.2928,2.2928,2.2512,2.2098,2.2011,2.1563,2.1109,2.1109,2.1109,2.1109,2.1109,2.1109,2.1109,2.1109,2.1481,2.1846,2.1846,2.3193,2.484,2.6409,2.7623,2.897,3.0645,3.0889,3.0889,3.0889,3.0889,3.0889,3.0889,3.0889,3.0889,3.0889,3.0889,3.0889,3.0889,3.0889,3.0889,3.0889,3.0889,3.0889,3.0889,3.0889,3.0889,3.0889,3.0889,3.0889,3.0889,3.0889,3.0889,1.0036,1.1582,1.3063,1.2952,1.5099,1.6967,1.5946,1.6493,1.6951,1.6012,1.5784,1.5784,1.5784,1.5784,1.6119,1.7058,1.7635,1.8537,1.996,2.0995,0.0,0.0,0.0,0.0,0.0,0.0,0.0,0.0,0.0,0.0,2.6386,2.6386,2.6386,2.6386,2.6386,2.6253,2.6043,2.5665,2.5371,2.5077,2.4783,2.4636,2.4636,2.4636,2.4636,2.4636,0.0,0.0,0.0,2.4636,2.4636,2.4576,2.3995,2.3774,2.3701,2.3086,2.2928,2.2928,2.2928,2.2928,2.2928,2.2928,2.2928,2.2928,2.2928,2.2652,2.2352,2.2064,2.1563,2.1109,2.1109,2.1109,2.1109,2.1109,2.1109,2.1109,2.1109,2.2404,2.3574,2.3574,2.4893,2.647,2.811,2.8358,2.897,3.0645,3.0889,3.0889,3.0889,3.0889,3.0889,3.0889,3.0889,3.0889,3.0889,3.0889,3.0889,3.0889,3.0889,3.0889,3.0889,3.0889,3.0889,3.0889,3.0889,3.0889,3.0889,3.0889,3.0889,3.0889,3.0889,3.0889,0.9415,1.1506,1.3377,1.2086,1.464,1.7014,1.534,1.5819,1.6462,1.5925,1.5784,1.5784,1.5784,1.5784,1.6186,1.7268,1.7769,0.0,0.0,0.0,0.0,0.0,0.0,0.0,0.0,0.0,0.0,0.0,0.0,0.0,2.5798,2.5792,2.5885,2.6086,2.6092,2.5952,2.5658,2.5364,2.517,2.5077,2.4776,2.4636,2.4636,2.4636,2.4636,0.0,0.0,0.0,0.0,2.4636,2.4523,2.4302,2.3921,2.3647,2.3414,2.3013,2.2928,2.2928,2.2928,2.2928,2.2928,2.2928,2.2928,2.2928,2.2928,2.2652,2.2358,2.2071,2.171,2.141,2.141,2.1263,2.1109,2.1109,2.1109,2.1418,2.2591,2.3201,2.3938,2.5016,2.653,2.7803,2.8298,2.9344,3.0274,3.083,3.0889,3.0889,3.0889,3.0889,3.0889,3.0889,3.0889,3.0889,3.0889,3.0889,3.0889,3.0889,3.0889,3.0889,3.0889,3.0889,3.0889,3.0889,3.0889,3.0889,3.0889,3.0889,3.0889,3.0889,3.0889,3.1045,0.0,1.1359,1.3387,1.1577,1.4396,1.7042,1.4971,1.5438,1.6186,1.5892,1.5784,1.5784,1.5784,1.5784,1.6139,1.7094,1.7589,0.0,0.0,0.0,0.0,0.0,0.0,0.0,0.0,0.0,0.0,0.0,0.0,0.0,2.5525,2.5511,2.5545,2.5625,2.5732,2.5645,2.5351,2.517,2.5024,2.491,2.4723,2.4636,2.4636,2.4636,2.4636,0.0,0.0,0.0,0.0,2.4516,2.4369,2.4162,2.3761,2.3487,2.3287,2.2979,2.2928,2.2928,2.2928,2.2928,2.2928,2.2928,2.2928,2.2928,2.2928,2.2652,2.2385,2.2198,2.1937,2.1905,2.2533,2.258,2.256,2.3308,2.3277,2.344,2.4494,2.5058,2.5688,2.6712,2.8239,2.9344,2.9344,3.0206,3.0889,3.0889,3.0889,3.0889,3.0889,3.0889,3.0889,3.0889,3.0889,3.0889,3.0889,3.0889,3.0889,3.0889,3.0889,3.0889,3.0889,3.0889,3.0889,3.0889,3.0889,3.0889,3.0889,3.0889,3.0889,3.0898,3.1055,3.1269,0.0,1.1125,1.3207,1.1548,1.4338,1.6944,1.4871,1.5376,0.0,1.5838,1.5784,1.5791,1.5838,1.5872,1.6072,1.6727,0.0,0.0,0.0,0.0,0.0,0.0,0.0,0.0,0.0,0.0,0.0,0.0,0.0,0.0,2.5451,2.5451,2.5331,2.5057,2.5311,2.5324,2.505,2.5044,2.491,2.4636,2.4636,2.4636,2.4636,2.4616,2.4603,0.0,0.0,0.0,0.0,2.4282,2.4162,2.4088,2.3541,2.3313,2.326,2.2966,2.2928,2.2928,2.2928,2.2928,2.2928,2.2928,2.2996,2.3058,2.3058,2.2801,2.2452,2.2452,2.2305,2.2597,2.4187,2.4675,2.5239,2.69,2.696,2.6703,2.6773,2.7705,2.8462,2.8582,2.9853,3.0889,3.0889,3.0889,3.0889,3.0889,3.0889,3.0889,3.0889,3.0889,3.0889,3.0889,3.0889,3.0889,3.0889,3.0889,3.0889,3.0889,3.0889,3.0889,3.0889,3.0889,3.0889,3.0889,3.0889,3.0889,3.0889,3.0889,3.0908,3.0947,3.1338,3.1553,0.9762,0.0,1.247,1.3055,1.474,1.6109,0.0,1.5691,1.5912,1.5798,0.0,1.5917,1.642,1.6319,1.6587,0.0,0.0,0.0,0.0,0.0,0.0,0.0,0.0,0.0,0.0,0.0,0.0,0.0,0.0,2.5084,2.4857,2.4843,2.481,2.4743,2.481,2.481,2.4743,2.4743,2.471,2.4636,2.4636,2.4636,2.4556,2.4409,2.4302,0.0,0.0,0.0,2.3968,2.3901,2.3741,2.3521,2.338,2.318,2.2966,2.2893,2.2928,2.2928,2.2928,2.2928,2.2928,2.2928,2.3788,2.4918,2.4918,2.3875,2.2759,2.2759,2.3535,2.4466,2.4854,2.582,2.6765,2.7217,2.7214,2.7462,2.8711,2.8964,2.9309,3.0555,3.0858,3.0889,3.0889,3.0889,3.0889,3.0889,3.0889,3.0889,3.0889,3.0889,3.0889,3.0889,3.0889,3.0889,3.0889,3.0889,3.0889,3.0889,3.0889,3.0889,3.0889,3.0889,3.0889,3.0889,3.0889,3.0889,3.0889,3.0889,3.1055,3.1377,3.1475,3.1865,1.1019,1.1482,1.2441,1.3757,1.5042,1.6032,1.6032,1.5925,0.0,0.0,0.0,0.0,0.0,0.0,0.0,0.0,0.0,0.0,0.0,0.0,0.0,0.0,0.0,0.0,0.0,0.0,0.0,0.0,0.0,2.4803,2.4643,2.4636,2.4636,2.4636,2.4636,2.4636,2.4636,2.4636,2.4636,2.4636,2.4636,2.4636,2.4636,2.4476,2.4329,0.0,0.0,0.0,2.3761,2.3621,2.3474,2.3313,2.3166,2.3013,2.2928,2.2928,2.2928,2.2928,2.2928,2.3393,2.406,2.406,2.5323,2.6706,2.6706,2.6046,2.5323,2.5323,2.5924,2.6696,2.7532,2.83,2.9116,2.9896,2.996,3.0075,3.0956,3.0832,3.0802,3.1626,3.1631,3.1475,3.1475,3.1309,3.1182,3.1182,3.1016,3.0889,3.0889,3.0889,3.0889,3.0889,3.0889,3.0889,3.0889,3.0889,3.0889,3.0889,3.0889,3.0889,3.0889,3.0889,3.0889,3.0889,3.0889,3.0986,3.1182,3.1182,3.1396,3.1816,3.2012,3.2353,1.2506,1.2477,1.3059,1.4219,1.5433,1.6308,1.6261,0.0,0.0,0.0,0.0,0.0,0.0,1.6673,0.0,0.0,0.0,0.0,0.0,0.0,0.0,0.0,0.0,0.0,0.0,0.0,0.0,0.0,0.0,2.4636,2.4636,2.4636,2.4636,2.4636,2.4636,2.4636,2.4636,2.4636,2.4636,2.4636,2.4636,2.4636,2.4636,2.4549,2.4369,2.4128,0.0,0.0,2.3614,2.336,2.3253,2.3233,2.2966,2.2928,2.2934,2.3195,2.3126,2.2928,2.2928,2.406,2.551,2.551,2.6906,2.8624,2.8624,2.8763,2.896,2.896,2.8829,2.8952,3.0448,3.0973,3.1561,3.3029,3.3144,3.2891,3.2891,3.2559,3.2266,3.2266,3.2217,3.2229,3.2229,3.1865,3.1592,3.1533,3.1211,3.0967,3.0898,3.0889,3.0889,3.0889,3.0889,3.0889,3.0889,3.0889,3.0889,3.0889,3.0889,3.0889,3.0889,3.0889,3.0918,3.0986,3.0986,3.1191,3.1621,3.1621,3.1836,3.2275,3.2627,3.2832,1.3517,1.3978,1.4633,1.538,1.5934,1.6206,1.5952,0.0,0.0,0.0,0.0,0.0,0.0,0.0,0.0,0.0,0.0,0.0,0.0,0.0,0.0,0.0,0.0,0.0,0.0,0.0,0.0,0.0,0.0,2.4636,2.4636,2.4636,2.4636,2.4636,2.4636,2.4636,2.4636,2.4636,2.4636,2.4636,2.4636,2.4636,2.4542,2.4128,2.3881,2.3808,0.0,2.3115,2.2999,2.2953,2.2933,2.2933,2.2948,2.2928,2.3065,2.4588,2.4196,2.2928,2.2928,2.406,2.551,2.551,2.7751,3.0384,3.0384,3.1442,3.2629,3.2629,3.157,3.0448,3.0707,3.189,3.3092,3.3355,3.3369,3.333,3.333,3.2998,3.2695,3.2695,3.2412,3.2229,3.2229,3.2119,3.1943,3.1572,3.1465,3.1289,3.0937,3.0889,3.0889,3.0889,3.0889,3.0889,3.0889,3.0889,3.0889,3.0889,3.0889,3.0889,3.0889,3.0889,3.1055,3.1416,3.1426,3.1631,3.207,3.207,3.2285,3.2695,3.2764,3.2978,1.3708,1.4479,1.5456,1.5948,1.6653,1.7154,1.6847,1.6774,0.0,0.0,0.0,0.0,0.0,0.0,0.0,0.0,0.0,0.0,0.0,0.0,0.0,0.0,0.0,0.0,0.0,0.0,0.0,0.0,0.0,0.0,2.4182,2.4168,2.4168,2.4168,2.4168,2.4168,2.4168,2.4168,2.4329,2.4636,2.4636,2.4556,2.4396,2.4128,2.3828,2.3514,0.0,2.302,2.2928,2.2928,2.2928,2.2928,2.2928,2.2928,2.3126,2.4851,2.4979,2.4452,2.545,2.6314,2.7105,2.8081,3.0116,3.2228,3.2228,3.2756,3.3418,3.3418,3.2829,3.2228,3.2228,3.2829,3.3418,3.3418,3.3418,3.3418,3.3418,3.3271,3.3135,3.3135,3.2978,3.2842,3.2842,3.2471,3.216,3.1904,3.1475,3.1103,3.0918,3.0889,3.0889,3.0889,3.0889,3.0889,3.0889,3.0889,3.0889,3.0889,3.0889,3.0889,3.0889,3.1103,3.1318,3.1514,3.1748,3.208,3.25,3.25,3.2725,3.3135,3.3135,3.3242,1.4062,1.4829,1.5899,1.6199,0.0,1.7622,1.7589,1.7528,0.0,0.0,0.0,0.0,0.0,0.0,0.0,0.0,0.0,0.0,0.0,0.0,0.0,0.0,0.0,0.0,0.0,0.0,0.0,0.0,0.0,0.0,2.3781,2.3774,2.3774,2.3774,2.3774,2.3774,2.3774,2.3774,2.3995,2.4436,2.4436,2.4322,2.4102,2.4028,2.3754,2.3327,2.3247,2.3086,2.2928,2.2928,2.2928,2.2928,2.2928,2.3393,2.4263,2.5181,2.6039,2.6898,2.7834,2.8501,2.9017,3.0384,3.1963,3.3418,3.3418,3.3418,3.3418,3.3418,3.3418,3.3418,3.3418,3.3418,3.3418,3.3418,3.3418,3.3418,3.3418,3.3418,3.3418,3.3418,3.3418,3.3418,3.3418,3.2891,3.2393,3.2258,3.1611,3.1113,3.0918,3.0889,3.0889,3.0889,3.0889,3.0889,3.0889,3.0889,3.0889,3.0889,3.0986,3.1035,3.1035,3.1445,3.1719,3.1816,3.2148,3.2519,3.2939,3.2939,3.3105,3.3418,3.3418,3.3418,1.51,1.5511,1.5899,1.6199,1.6339,1.6607,1.7402,1.7427,0.0,1.8223,0.0,0.0,0.0,0.0,0.0,0.0,0.0,0.0,0.0,0.0,0.0,0.0,0.0,0.0,0.0,0.0,0.0,0.0,0.0,0.0,2.3774,2.3774,2.3774,2.3774,2.3774,2.3774,2.3774,2.3774,2.3794,2.3834,2.3834,2.3821,2.3794,2.3514,2.3367,2.3307,2.302,2.2954,2.2928,2.2928,2.2928,2.2928,2.2928,2.4926,2.7643,2.6046,2.7619,3.0189,2.8689,2.9279,3.0642,3.0771,3.1963,3.3418,3.3418,3.3418,3.3418,3.3418,3.3418,3.3418,3.3418,3.3418,3.3418,3.3418,3.3418,3.3418,3.3418,3.3418,3.3418,3.3418,3.3418,3.3418,3.3418,3.3369,3.3066,3.2285,3.218,3.1787,3.0996,3.0889,3.0889,3.0889,3.0889,3.0889,3.0889,3.0889,3.0889,3.0889,3.126,3.1475,3.1475,3.1894,3.2305,3.2695,3.2734,3.2949,3.3379,3.3379,3.3389,3.3418,3.3418,3.3418,1.5017,1.5471,1.5804,1.5972,1.6413,0.0,0.0,1.8343,1.8733,1.9199,1.9219,0.0,0.0,0.0,0.0,0.0,0.0,0.0,0.0,0.0,0.0,0.0,0.0,0.0,0.0,0.0,0.0,0.0,0.0,0.0,2.3283,2.3207,2.3207,2.3207,2.3207,2.3207,2.3207,2.3207,2.3207,2.3213,2.3587,2.3674,2.3487,2.338,2.322,2.3033,2.2913,2.2928,2.2928,2.2928,2.2928,2.2928,2.2928,2.5061,2.8106,2.7437,2.8747,3.0845,3.1313,3.1176,3.0973,3.2027,3.2892,3.3418,3.3418,3.3418,3.3418,3.3418,3.3418,3.3418,3.3418,3.3418,3.3418,3.3418,3.3418,3.3418,3.3418,3.3418,3.3418,3.3418,3.3418,3.3418,3.3418,3.3203,3.292,3.2607,3.2334,3.1953,3.1357,3.1279,3.1182,3.0918,3.0889,3.0889,3.0889,3.1133,3.1279,3.1279,3.1435,3.1514,3.1514,3.2187,3.2637,3.2793,3.3057,3.3262,3.3418,3.3418,3.3418,3.3418,3.3418,3.3418,1.4981,1.5317,1.5738,1.5925,0.0,0.0,1.8524,1.9005,1.9419,2.008,2.014,0.0,2.0334,0.0,0.0,0.0,0.0,0.0,0.0,0.0,0.0,0.0,0.0,0.0,0.0,0.0,0.0,0.0,0.0,0.0,0.0,2.2928,2.2928,2.2928,2.2928,2.2928,2.2928,2.2928,2.2928,2.2934,2.3356,2.338,2.318,2.318,2.306,2.2928,2.2928,2.2928,2.2928,2.2928,2.2928,2.2928,2.3529,2.5584,2.8238,2.8821,3.0125,3.1762,3.2956,3.2629,3.1826,3.3019,3.3418,3.3418,3.3418,3.3418,3.3418,3.3418,3.3418,3.3418,3.3418,3.3418,3.3418,3.3418,3.3418,3.3418,3.3418,3.3418,3.3418,3.3418,3.3418,3.3418,3.3418,3.3184,3.2949,3.2822,3.2549,3.2207,3.1777,3.1728,3.1611,3.1328,3.1289,3.1289,3.1289,3.1562,3.1728,3.1728,3.1846,3.1914,3.1914,3.2617,3.2998,3.2998,3.3271,3.3418,3.3418,3.3418,3.3418,3.3418,3.3418,3.3418,1.5089,1.5223,1.5545,0.0,0.0,0.0,1.9089,1.9145,1.9345,2.0808,0.0,2.0681,2.0681,0.0,0.0,0.0,0.0,0.0,0.0,0.0,0.0,0.0,0.0,0.0,0.0,0.0,0.0,0.0,0.0,0.0,0.0,2.2928,2.2928,2.2928,2.2928,2.2928,2.2928,2.2928,2.2928,2.2928,2.2928,2.2928,2.2928,2.2928,2.2928,2.2928,2.2928,2.2928,2.2928,2.2928,2.2934,2.3133,2.4851,2.6639,2.8427,3.0189,3.1899,3.3418,3.3418,3.3418,3.3418,3.3418,3.3418,3.3418,3.3418,3.3418,3.3418,3.3418,3.3418,3.3418,3.3418,3.3418,3.3418,3.3418,3.3418,3.3418,3.3418,3.3418,3.3418,3.3418,3.3418,3.3418,3.3418,3.3418,3.3281,3.2861,3.2803,3.2646,3.2226,3.2229,3.2229,3.2229,3.2229,3.2229,3.2229,3.2178,3.2238,3.2238,3.2568,3.2803,3.2793,3.3203,3.3418,3.3418,3.3418,3.3418,3.3418,3.3418,3.3418,3.3418,3.3418,3.3418,1.5028,1.5324,0.0,1.6179,0.0,0.0,0.0,1.9459,0.0,0.0,2.1042,2.0982,2.0982,0.0,0.0,0.0,0.0,0.0,0.0,0.0,0.0,0.0,0.0,0.0,0.0,0.0,0.0,0.0,0.0,0.0,0.0,2.2928,2.2928,2.2928,2.2928,2.2928,2.2928,2.2928,2.2928,2.2928,2.2928,2.2928,2.2928,2.2928,2.2928,2.2928,2.2928,2.2928,2.2928,2.2928,2.359,2.4783,2.5315,2.7354,3.0125,3.0578,3.1899,3.3418,3.3418,3.3418,3.3418,3.3418,3.3418,3.3418,3.3418,3.3418,3.3418,3.3418,3.3418,3.3418,3.3418,3.3418,3.3418,3.3418,3.3418,3.3418,3.3418,3.3418,3.3418,3.3418,3.3418,3.3418,3.3418,3.3418,3.3379,3.3252,3.3232,3.3086,3.2666,3.2353,3.2229,3.2229,3.2229,3.2229,3.2229,3.2441,3.2607,3.2607,3.3008,3.3105,3.2803,3.3203,3.3418,3.3418,3.3418,3.3418,3.3418,3.3418,3.3418,3.3418,3.3418,3.3418,1.5277,1.5732,0.0,1.6834,1.7822,1.8878,1.97,0.0,0.0,0.0,0.0,2.1109,2.1109,0.0,0.0,0.0,0.0,0.0,0.0,0.0,0.0,0.0,0.0,0.0,0.0,0.0,0.0,0.0,0.0,0.0,0.0,2.2928,2.2928,2.2928,2.2928,2.2928,2.2928,2.2928,2.2928,2.2928,2.2928,2.2928,2.2928,2.2928,2.2928,2.2928,2.2928,2.2928,2.2928,2.2928,2.3924,2.5577,2.6314,2.8279,3.09,3.157,3.2492,3.3418,3.3418,3.3418,3.3418,3.3418,3.3418,3.3418,3.3418,3.3418,3.3418,3.3418,3.3418,3.3418,3.3418,3.3418,3.3418,3.3418,3.3418,3.3418,3.3418,3.3418,3.3418,3.3418,3.3418,3.3418,3.3418,3.3418,3.3418,3.3418,3.3418,3.333,3.3076,3.2822,3.2666,3.2666,3.2666,3.2666,3.2666,3.29,3.3047,3.3047,3.3281,3.331,3.3057,3.3281,3.3418,3.3418,3.3418,3.3418,3.3418,3.3418,3.3418,3.3418,3.3418,3.3418,1.5705,0.0,0.0,1.7796,1.8531,0.0,2.0461,0.0,2.1109,2.1109,0.0,0.0,0.0,0.0,0.0,0.0,0.0,0.0,0.0,0.0,0.0,0.0,0.0,0.0,0.0,0.0,0.0,0.0,0.0,0.0,2.2847,2.2847,2.2847,2.2847,2.2806,2.2819,2.2819,2.2846,2.2928,2.2928,2.2928,2.2928,2.2928,2.2928,2.2928,2.2928,2.2928,2.2996,2.3126,2.3126,2.4242,2.6067,2.7751,2.9448,3.1185,3.281,3.3418,3.3418,3.3418,3.3418,3.3418,3.3418,3.3418,3.3418,3.3418,3.3418,3.3418,3.3418,3.3418,3.3418,3.3418,3.3418,3.3418,3.3418,3.3418,3.3418,3.3418,3.3418,3.3418,3.3418,3.3418,3.3418,3.3418,3.3418,3.3418,3.3418,3.3418,3.3418,3.3418,3.3418,3.3418,3.3418,3.3418,3.3418,3.3418,3.3418,3.3418,3.3418,3.3418,3.3418,3.3418,3.3418,3.3418,3.3418,3.3418,3.3418,3.3418,3.3418,3.3418,3.3418,3.3418,3.3418,0.0,1.5919,0.0,0.0,0.0,0.0,0.0,0.0,0.0,0.0,0.0,0.0,0.0,0.0,0.0,0.0,0.0,0.0,0.0,0.0,0.0,0.0,0.0,0.0,0.0,0.0,0.0,0.0,0.0,0.0,2.2178,2.2178,2.2178,2.2178,2.2398,2.2512,2.2512,2.2746,2.2928,2.2928,2.2928,2.2928,2.2928,2.2928,2.2928,2.2928,2.2928,2.3659,2.4918,2.4918,2.6608,2.9244,2.9936,3.1121,3.244,3.3165,3.3418,3.3418,3.3418,3.3418,3.3418,3.3418,3.3418,3.3418,3.3418,3.3418,3.3418,3.3418,3.3418,3.3418,3.3418,3.3418,3.3418,3.3418,3.3418,3.3418,3.3418,3.3418,3.3418,3.3418,3.3418,3.3418,3.3418,3.3418,3.3418,3.3418,3.3418,3.3418,3.3418,3.3418,3.3418,3.3418,3.3418,3.3418,3.3418,3.3418,3.3418,3.3418,3.3418,3.3418,3.3418,3.3418,3.3418,3.3418,3.3418,3.3418,3.3418,3.3418,3.3418,3.3418,3.3418,3.3418,0.0,0.0,0.0,0.0,0.0,0.0,0.0,0.0,0.0,0.0,0.0,0.0,0.0,0.0,0.0,0.0,0.0,0.0,0.0,0.0,0.0,0.0,0.0,0.0,0.0,0.0,0.0,0.0,0.0,2.1984,2.1984,2.1984,2.1984,2.1984,2.2131,2.2211,2.2211,2.2365,2.2445,2.2445,2.2445,2.2445,2.2452,2.28,2.2928,2.2921,2.3574,2.4365,2.5271,2.5897,2.7657,2.9861,3.0068,3.1127,3.2519,3.2744,3.2949,3.3115,3.3115,3.3252,3.3418,3.3418,3.3418,3.3418,3.3418,3.3418,3.3418,3.3418,3.3418,3.3418,3.3418,3.3418,3.3418,3.3418,3.3418,3.3418,3.3418,3.3418,3.3418,3.3418,3.3418,3.3418,3.3418,3.3418,3.3418,3.3418,3.3418,3.3418,3.3418,3.3418,3.3418,3.3418,3.3418,3.3418,3.3418,3.3418,3.3418,3.3418,3.3418,3.3418,3.3418,3.3418,3.3418,3.3418,3.3418,3.3418,3.3418,3.3418,3.3418,3.3418,3.3418,3.3418,0.0,0.0,0.0,0.0,0.0,0.0,0.0,0.0,0.0,0.0,0.0,0.0,0.0,0.0,0.0,0.0,0.0,0.0,0.0,0.0,0.0,0.0,0.0,0.0,0.0,0.0,0.0,0.0,0.0,2.1837,2.1837,2.1837,2.1837,2.1837,2.1884,2.1911,2.1911,2.1964,2.1984,2.1984,2.1984,2.1984,2.2004,2.2492,2.2712,2.2828,2.4215,2.5015,2.5385,2.6768,2.8308,2.9826,2.9952,3.0832,3.207,3.2139,3.2393,3.2695,3.2773,3.3027,3.333,3.3398,3.3418,3.3418,3.3418,3.3418,3.3418,3.3418,3.3369,3.331,3.331,3.3262,3.3223,3.3301,3.331,3.333,3.3408,3.3418,3.3418,3.3418,3.3418,3.3418,3.3418,3.3418,3.3418,3.3418,3.3418,3.3418,3.3418,3.3418,3.3418,3.3418,3.3418,3.3418,3.3418,3.3418,3.3418,3.3418,3.3418,3.3418,3.3418,3.3418,3.3418,3.3418,3.3418,3.3418,3.3418,3.3418,3.3418,3.3418,3.3418,3.3418,0.0,0.0,0.0,0.0,0.0,0.0,0.0,0.0,0.0,0.0,0.0,0.0,0.0,0.0,0.0,0.0,0.0,0.0,0.0,0.0,0.0,0.0,0.0,0.0,0.0,0.0,0.0,0.0,2.1223,2.1223,2.1223,2.1223,2.1223,2.1223,2.1476,2.1675,2.1675,2.1857,2.1984,2.1984,2.1984,2.1984,2.1991,2.2064,2.2104,2.223,2.3789,2.5373,2.6902,2.8485,2.9972,3.1262,3.1699,3.1743,3.165,3.2031,3.2207,3.2305,3.2666,3.2832,3.2939,3.3301,3.3418,3.3418,3.3418,3.3418,3.3418,3.3418,3.3164,3.2881,3.2881,3.2607,3.2422,3.2793,3.2881,3.2978,3.334,3.3418,3.3418,3.3418,3.3418,3.3418,3.3418,3.3418,3.3418,3.3418,3.3418,3.3418,3.3418,3.3418,3.3418,3.3418,3.3418,3.3418,3.3418,3.3418,3.3418,3.3418,3.3418,3.3418,3.3418,3.3418,3.3418,3.3418,3.3418,3.3418,3.3418,3.3418,3.3418,3.3418,3.3418,3.3418,0.0,0.0,0.0,0.0,0.0,0.0,0.0,0.0,0.0,0.0,0.0,0.0,0.0,0.0,0.0,0.0,0.0,0.0,0.0,0.0,0.0,0.0,0.0,0.0,0.0,0.0,0.0,0.0,2.1109,2.1109,2.1109,2.1109,2.1109,2.1109,2.1236,2.1303,2.1303,2.143,2.1496,2.1496,2.1496,2.1496,2.1561,2.2503,2.3064,2.345,2.4904,2.6518,2.8209,2.9665,3.0646,3.1182,3.1377,3.1338,3.1191,3.1387,3.1601,3.1865,3.2295,3.2598,3.2861,3.3281,3.3418,3.3379,3.3144,3.3066,3.3027,3.2783,3.2588,3.2441,3.2441,3.2305,3.2275,3.2695,3.2793,3.291,3.333,3.3418,3.3418,3.3418,3.3418,3.3418,3.3418,3.3418,3.3418,3.3418,3.3418,3.3418,3.3418,3.3418,3.3418,3.3418,3.3418,3.3418,3.3418,3.3418,3.3418,3.3418,3.3418,3.3418,3.3418,3.3418,3.3418,3.3418,3.3418,3.3418,3.3418,3.3418,3.3418,3.3418,3.3418,3.3418,0.0,0.0,0.0,0.0,0.0,0.0,0.0,0.0,0.0,0.0,0.0,0.0,0.0,0.0,0.0,0.0,0.0,0.0,0.0,0.0,0.0,0.0,0.0,0.0,0.0,0.0,0.0,0.0,2.1109,2.1109,2.1109,2.1109,2.1109,2.1109,2.1109,2.1109,2.1109,2.1109,2.1109,2.1109,2.1109,2.1292,2.179,2.3021,2.4267,2.5462,2.6496,2.7617,2.8902,3.034,3.0889,3.0889,3.0889,3.0889,3.0889,3.0889,3.1094,3.1426,3.1855,3.2285,3.2685,3.2998,3.3174,3.3184,3.2764,3.2637,3.2568,3.2256,3.209,3.2002,3.2002,3.1924,3.1953,3.2373,3.2549,3.2783,3.331,3.3418,3.3418,3.3418,3.3418,3.3418,3.3418,3.3418,3.3418,3.3418,3.3418,3.3418,3.3418,3.3418,3.3418,3.3418,3.3418,3.3418,3.3418,3.3418,3.3418,3.3418,3.3418,3.3418,3.3418,3.3418,3.3418,3.3418,3.3418,3.3418,3.3418,3.3418,3.3418,3.3418,3.3418,3.3418,0.0,0.0,0.0,0.0,0.0,0.0,0.0,0.0,0.0,0.0,0.0,0.0,0.0,0.0,0.0,0.0,0.0,0.0,0.0,0.0,0.0,0.0,0.0,0.0,0.0,0.0,0.0,0.0,2.1109,2.1109,2.1109,2.1109,2.1109,2.1109,2.1109,2.1109,2.1109,2.1109,2.1109,2.1109,2.1109,2.1908,2.345,2.3574,2.5293,2.8173,2.8274,2.8325,2.8573,3.0216,3.0889,3.0889,3.0889,3.0889,3.0889,3.0889,3.0898,3.0986,3.1406,3.1836,3.2207,3.2287,3.25,3.2754,3.2324,3.2207,3.2258,3.2238,3.1875,3.1553,3.1553,3.126,3.1064,3.1484,3.1904,3.2422,3.3242,3.3418,3.3418,3.3418,3.3418,3.3418,3.3418,3.3418,3.3418,3.3418,3.3418,3.3418,3.3418,3.3418,3.3418,3.3418,3.3418,3.3418,3.3418,3.3418,3.3418,3.3418,3.3418,3.3418,3.3418,3.3418,3.3418,3.3418,3.3418,3.3418,3.3418,3.3418,3.3418,3.3418,3.3418,3.3418,0.0,0.0,0.0,0.0,0.0,0.0,0.0,0.0,0.0,0.0,0.0,0.0,0.0,0.0,0.0,0.0,0.0,0.0,0.0,0.0,0.0,0.0,0.0,0.0,0.0,0.0,0.0,0.0,0.0,2.1109,2.1109,2.1109,2.1109,2.1109,2.1109,2.1109,2.1109,2.1109,2.1664,2.2709,2.2709,2.3566,2.52,2.6236,2.7331,2.8477,2.953,3.002,3.002,3.0645,3.0889,3.0889,3.0889,3.0889,3.0889,3.0889,3.0889,3.0957,3.1367,3.1621,3.1797,3.208,3.2275,3.2314,3.1885,3.1748,3.1699,3.1426,3.1435,3.1455,3.1182,3.1201,3.1328,3.1484,3.1846,3.2324,3.29,3.3232,3.3418,3.3418,3.3418,3.3418,3.3418,3.3418,3.3418,3.3418,3.3418,3.3418,3.3418,3.3418,3.3418,3.3418,3.3418,3.3418,3.3418,3.3418,3.3418,3.3418,3.3418,3.3418,3.3418,3.3418,3.3418,3.3418,3.3418,3.3418,3.3418,3.3418,3.3418,3.3418,3.3418,3.3418,1.2879,0.0,0.0,0.0,0.0,0.0,0.0,0.0,0.0,0.0,0.0,0.0,0.0,0.0,0.0,0.0,0.0,0.0,0.0,0.0,0.0,0.0,0.0,0.0,0.0,0.0,0.0,0.0,0.0,0.0,2.1109,2.1601,2.2215,2.2757,2.1657,2.1657,2.2757,2.2215,2.2772,2.4417,2.4417,2.5261,2.6832,2.7931,2.8724,2.9285,3.0392,3.0889,3.0889,3.0889,3.0889,3.0889,3.0889,3.0889,3.0889,3.0889,3.0889,3.0928,3.1211,3.1396,3.1543,3.1689,3.1836,3.1865,3.1435,3.1309,3.125,3.0976,3.1094,3.124,3.0967,3.1094,3.1338,3.1484,3.1738,3.2109,3.2676,3.3008,3.3252,3.3389,3.3418,3.3418,3.3418,3.3418,3.3418,3.3418,3.3418,3.3418,3.3418,3.3418,3.3418,3.3418,3.3418,3.3418,3.3418,3.3418,3.3418,3.3418,3.3418,3.3418,3.3418,3.3418,3.3418,3.3418,3.3418,3.3418,3.3418,3.3418,3.3418,3.3418,3.3418,3.3418,0.0,0.0,0.0,0.0,0.0,0.0,0.0,0.0,0.0,0.0,0.0,0.0,0.0,0.0,0.0,0.0,0.0,0.0,0.0,0.0,0.0,0.0,0.0,0.0,0.0,0.0,0.0,0.0,2.1109,2.1109,2.1109,2.2709,2.4355,2.5924,2.2937,2.2757,2.5976,2.4479,2.4479,2.6037,2.6037,2.6893,2.8477,2.8477,2.9344,3.0889,3.0889,3.0889,3.0889,3.0889,3.0889,3.0889,3.0889,3.0889,3.0889,3.0889,3.0889,3.0889,3.0889,3.1162,3.1435,3.1025,3.1162,3.1426,3.1016,3.0889,3.0889,3.0889,3.0898,3.0908,3.0908,3.0898,3.0996,3.1406,3.1504,3.1728,3.2578,3.2764,3.29,3.334,3.3418,3.3418,3.3418,3.3418,3.3418,3.3418,3.3418,3.3418,3.3418,3.3418,3.3418,3.3418,3.3418,3.3418,3.3418,3.3418,3.3418,3.3418,3.3418,3.3418,3.3418,3.3418,3.3418,3.3418,3.3418,3.3418,3.3418,3.3418,3.3418,3.3418,3.3418,3.3418,1.2744,0.0,0.0,0.0,0.0,0.0,0.0,0.0,0.0,0.0,0.0,0.0,0.0,0.0,0.0,0.0,0.0,0.0,0.0,0.0,0.0,0.0,0.0,0.0,0.0,0.0,0.0,0.0,2.1109,2.1109,2.1109,2.2709,2.4355,2.5924,2.513,2.5069,2.5976,2.5558,2.6167,2.7743,2.7743,2.8605,3.0206,3.0206,3.046,3.0889,3.0889,3.0889,3.0889,3.0889,3.0889,3.0889,3.0889,3.0889,3.0889,3.0889,3.0889,3.0889,3.0889,3.0967,3.1045,3.0928,3.0976,3.1045,3.0928,3.0889,3.0889,3.0889,3.1103,3.1348,3.1348,3.1123,3.0918,3.1035,3.1064,3.1211,3.1758,3.2119,3.2559,3.3281,3.3418,3.3418,3.3418,3.3418,3.3418,3.3418,3.3418,3.3418,3.3418,3.3418,3.3418,3.3418,3.3418,3.3418,3.3418,3.3418,3.3418,3.3418,3.3418,3.3418,3.3418,3.3418,3.3418,3.3418,3.3418,3.3418,3.3418,3.3418,3.3418,3.3418,3.3418,3.3418,0.0,0.0,0.0,0.0,0.0,0.0,0.0,1.5284,0.0,0.0,0.0,0.0,0.0,0.0,0.0,0.0,0.0,0.0,0.0,0.0,0.0,0.0,0.0,0.0,0.0,2.1109,2.1109,2.1109,2.1727,2.2702,2.4039,2.3807,2.497,2.794,2.6712,2.6651,2.8059,2.7323,2.7811,2.9462,2.9462,2.9962,3.0889,3.0889,3.0889,3.0889,3.0889,3.0889,3.0889,3.0889,3.0889,3.0889,3.0889,3.0889,3.0889,3.0889,3.0889,3.0889,3.0889,3.0889,3.0889,3.0889,3.0889,3.0889,3.0889,3.0889,3.0889,3.0889,3.1064,3.126,3.126,3.1074,3.0889,3.0889,3.0889,3.1006,3.1426,3.1865,3.2363,3.3027,3.3301,3.3418,3.3418,3.3418,3.3418,3.3418,3.3418,3.3418,3.3418,3.3418,3.3418,3.3418,3.3418,3.3418,3.3418,3.3418,3.3418,3.3418,3.3418,3.3418,3.3418,3.3418,3.3418,3.3418,3.3418,3.3418,3.3418,3.3418,3.3418,3.3418,3.3418,3.3418,0.0,0.0,0.0,0.0,0.0,0.0,1.5037,1.5251,0.0,0.0,0.0,0.0,0.0,0.0,0.0,0.0,0.0,0.0,0.0,0.0,0.0,0.0,0.0,0.0,2.1109,2.1109,2.1109,2.1109,2.2654,2.5032,2.8239,2.5696,2.6192,3.0772,2.8059,2.794,3.0889,2.9403,2.9403,3.0889,3.0889,3.0889,3.0889,3.0889,3.0889,3.0889,3.0889,3.0889,3.0889,3.0889,3.0889,3.0889,3.0889,3.0889,3.0889,3.0889,3.0889,3.0889,3.0889,3.0889,3.0889,3.0889,3.0889,3.0889,3.0889,3.0889,3.0889,3.0889,3.0889,3.0889,3.0889,3.0889,3.0889,3.0889,3.0889,3.0996,3.1367,3.1787,3.2226,3.2637,3.3105,3.3418,3.3418,3.3418,3.3418,3.3418,3.3418,3.3418,3.3418,3.3418,3.3418,3.3418,3.3418,3.3418,3.3418,3.3418,3.3418,3.3418,3.3418,3.3418,3.3418,3.3418,3.3418,3.3418,3.3418,3.3418,3.3418,3.3418,3.3418,3.3418,3.3418,3.3418,1.4429,0.0,0.0,0.0,0.0,0.0,1.4013,1.4306,1.479,0.0,0.0,0.0,0.0,0.0,0.0,0.0,0.0,0.0,0.0,0.0,0.0,0.0,0.0,0.0,2.1089,2.1109,2.1109,2.1109,2.2654,2.5032,2.8239,2.7811,2.8495,3.083,3.0274,3.0274,3.0889,3.0577,3.0577,3.0889,3.0889,3.0889,3.0889,3.0889,3.0889,3.0889,3.0889,3.0889,3.0889,3.0889,3.0889,3.0889,3.0889,3.0889,3.0889,3.0889,3.0889,3.0889,3.0889,3.0889,3.0889,3.0889,3.0889,3.0889,3.0889,3.0889,3.0889,3.0889,3.0889,3.0889,3.0889,3.0889,3.0889,3.0889,3.0889,3.0918,3.0996,3.1348,3.1768,3.2207,3.29,3.3418,3.3418,3.3418,3.3418,3.3418,3.3418,3.3418,3.3418,3.3418,3.3418,3.3418,3.3418,3.3418,3.3418,3.3418,3.3418,3.3418,3.3418,3.3418,3.3418,3.3418,3.3418,3.3418,3.3418,3.3418,3.3418,3.3418,3.3418,3.3418,3.3418,3.3418,1.5037,0.0,0.0,1.4957,0.0,0.0,0.0,1.4736,1.4863,1.5304,0.0,0.0,0.0,0.0,0.0,0.0,0.0,0.0,0.0,0.0,0.0,0.0,0.0,0.0,2.0655,2.0808,2.1624,2.3412,2.4348,2.6236,2.9471,2.8852,2.9157,3.083,3.0889,3.0889,3.0889,3.0889,3.0889,3.0889,3.0889,3.0889,3.0889,3.0889,3.0889,3.0889,3.0889,3.0889,3.0889,3.0889,3.0889,3.0889,3.0889,3.0889,3.0889,3.0889,3.0889,3.0889,3.0889,3.0889,3.0889,3.0889,3.0889,3.0889,3.0889,3.0889,3.0889,3.0889,3.0889,3.0889,3.0889,3.0889,3.0889,3.0889,3.0889,3.0889,3.0889,3.1221,3.1582,3.1807,3.2363,3.293,3.335,3.3418,3.3418,3.3418,3.3418,3.3418,3.3418,3.3418,3.3418,3.3418,3.3418,3.3418,3.3418,3.3418,3.3418,3.3418,3.3418,3.3418,3.3418,3.3418,3.3418,3.3418,3.3418,3.3418,3.3418,3.3418,3.3418,3.3418,3.3418,3.3418,0.0,0.0,0.0,0.0,0.0,1.5651,0.0,0.0,0.0,1.5585,0.0,0.0,0.0,0.0,0.0,0.0,0.0,0.0,0.0,0.0,0.0,0.0,0.0,0.0,2.0054,2.0517,2.2173,2.5556,2.5877,2.7399,3.0558,2.9458,2.9378,3.082,3.0889,3.0889,3.0889,3.0889,3.0889,3.0889,3.0889,3.0889,3.0889,3.0889,3.0889,3.0889,3.0889,3.0889,3.0889,3.0889,3.0889,3.0889,3.0889,3.0889,3.0889,3.0889,3.0889,3.0889,3.0889,3.0889,3.0889,3.0889,3.0889,3.0889,3.0889,3.0889,3.0889,3.0889,3.0889,3.0889,3.0889,3.0889,3.0889,3.0889,3.0889,3.0889,3.0889,3.1162,3.1426,3.1504,3.1875,3.2412,3.3174,3.3301,3.333,3.3408,3.3418,3.3418,3.3418,3.3418,3.3418,3.3418,3.3418,3.3418,3.3418,3.3418,3.3418,3.3418,3.3418,3.3418,3.3418,3.3418,3.3418,3.3418,3.3418,3.3418,3.3418,3.3418,3.3418,3.3418,3.3418,3.3418,0.0,0.0,0.0,0.0,1.6192,0.0,0.0,0.0,1.5605,1.5202,0.0,0.0,0.0,0.0,0.0,0.0,0.0,0.0,0.0,0.0,0.0,0.0,0.0,0.0,0.0,2.0505,2.2243,2.4852,2.557,2.7177,3.0101,3.0092,3.0276,3.0879,3.0889,3.0889,3.0889,3.0889,3.0889,3.0889,3.0889,3.0889,3.0889,3.0889,3.0889,3.0889,3.0889,3.0889,3.0889,3.0889,3.0889,3.0889,3.0889,3.0889,3.0889,3.0889,3.0889,3.0889,3.0889,3.0889,3.0889,3.0889,3.0889,3.0889,3.0889,3.0889,3.0889,3.0889,3.0889,3.0889,3.0889,3.0889,3.0889,3.0889,3.0889,3.0889,3.0889,3.0928,3.1074,3.1445,3.1875,3.2314,3.2783,3.2861,3.2998,3.3369,3.3418,3.3418,3.3418,3.3418,3.3418,3.3418,3.3418,3.3418,3.3418,3.3418,3.3418,3.3418,3.3418,3.3418,3.3418,3.3418,3.3418,3.3418,3.3418,3.3418,3.3418,3.3418,3.3418,3.3418,3.3418,3.3418,0.0,0.0,0.0,0.0,0.0,0.0,1.5919,0.0,1.5558,0.0,0.0,0.0,0.0,0.0,0.0,0.0,0.0,0.0,0.0,0.0,0.0,0.0,0.0,0.0,0.0,0.0,0.0,0.0,2.6628,2.7898,2.9358,2.9697,3.0029,3.0478,3.0488,3.0615,3.0889,3.0889,3.0889,3.0889,3.0889,3.0889,3.0889,3.0889,3.0889,3.0889,3.0889,3.0889,3.0889,3.0889,3.0889,3.0889,3.0889,3.0889,3.0889,3.0889,3.0889,3.0889,3.0889,3.0889,3.0889,3.0889,3.0889,3.0889,3.0889,3.0889,3.0889,3.0889,3.0889,3.0889,3.0889,3.0889,3.0889,3.0889,3.0889,3.0889,3.0889,3.0889,3.0947,3.1123,3.1504,3.1924,3.2353,3.2832,3.3223,3.3389,3.3418,3.3418,3.3418,3.3418,3.3418,3.3418,3.3418,3.3418,3.3418,3.3418,3.3418,3.3418,3.3418,3.3418,3.3418,3.3418,3.3418,3.3418,3.3418,3.3418,3.3418,3.3418,3.3418,3.3418,3.3418,3.3418,1.8087,0.0,0.0,0.0,0.0,0.0,0.0,0.0,0.0,0.0,0.0,0.0,0.0,0.0,0.0,0.0,0.0,0.0,0.0,0.0,0.0,0.0,0.0,0.0,0.0,0.0,0.0,0.0,0.0,2.7627,2.8525,2.8877,2.9346,3.0,3.0029,3.0185,3.0527,3.0644,3.0703,3.0703,3.083,3.0889,3.0889,3.0889,3.0889,3.0889,3.0889,3.0889,3.0889,3.0889,3.0889,3.0889,3.0889,3.0889,3.0889,3.0889,3.0889,3.0889,3.0889,3.0889,3.0889,3.0889,3.0889,3.0889,3.0889,3.0889,3.0889,3.0889,3.0889,3.0889,3.0889,3.0889,3.0889,3.0889,3.0889,3.0889,3.0889,3.0889,3.0889,3.0889,3.1328,3.1797,3.2119,3.2773,3.3291,3.3408,3.3418,3.3418,3.3418,3.3418,3.3418,3.3418,3.3418,3.3418,3.3418,3.3418,3.3418,3.3418,3.3418,3.3418,3.3418,3.3418,3.3418,3.3418,3.3418,3.3418,3.3418,3.3418,3.3597,3.408,3.3597,3.3418,0.0,0.0,0.0,1.7268,0.0,0.0,0.0,0.0,1.6506,0.0,0.0,0.0,0.0,0.0,0.0,0.0,0.0,0.0,0.0,0.0,0.0,0.0,0.0,0.0,0.0,0.0,0.0,0.0,2.4183,0.0,2.7598,2.7767,2.8354,2.9551,2.959,2.9655,2.9665,3.0019,3.0215,3.0225,3.0674,3.0889,3.0889,3.0889,3.0889,3.0889,3.0889,3.0889,3.0889,3.0889,3.0889,3.0889,3.0889,3.0889,3.0889,3.0889,3.0889,3.0889,3.0889,3.0889,3.0889,3.0889,3.0889,3.0889,3.0889,3.0889,3.0889,3.0889,3.0889,3.0889,3.0889,3.0889,3.0889,3.0889,3.0889,3.0889,3.0889,3.0889,3.0889,3.0889,3.1572,3.2148,3.2229,3.2529,3.2949,3.3359,3.3418,3.3418,3.3418,3.3418,3.3418,3.3418,3.3418,3.3418,3.3418,3.3418,3.3418,3.3418,3.3418,3.3418,3.3418,3.3418,3.3418,3.3418,3.3418,3.3418,3.3418,3.3418,3.4195,3.5683,3.4143,3.3418,0.0,0.0,2.1761,1.9339,0.0,0.0,0.0,0.0,0.0,0.0,0.0,0.0,0.0,0.0,0.0,0.0,0.0,0.0,0.0,0.0,0.0,0.0,0.0,0.0,0.0,0.0,0.0,0.0,2.4562,0.0,0.0,2.7197,2.8041,2.8701,2.8994,2.9277,2.9626,2.9707,2.9922,3.0195,3.0361,3.0596,3.0889,3.0889,3.0889,3.0889,3.0889,3.0889,3.0889,3.0889,3.0889,3.0889,3.0889,3.0889,3.0889,3.0889,3.0889,3.0889,3.0889,3.0889,3.0889,3.0889,3.0889,3.0889,3.0889,3.0889,3.0889,3.0889,3.0889,3.0889,3.0889,3.0889,3.0889,3.0889,3.0889,3.0889,3.0889,3.0889,3.0976,3.125,3.1768,3.2256,3.2529,3.293,3.3252,3.3398,3.3418,3.3418,3.3418,3.3418,3.3418,3.3418,3.3418,3.3418,3.3418,3.3418,3.3418,3.3418,3.3418,3.3418,3.3418,3.3418,3.3418,3.3418,3.4435,3.4964,3.4964,3.6061,3.6842,3.7374,3.6842,3.661,2.4088,2.3915,0.0,2.1318,2.0778,0.0,1.8314,0.0,0.0,0.0,0.0,0.0,0.0,0.0,0.0,0.0,0.0,0.0,0.0,0.0,0.0,0.0,0.0,0.0,0.0,0.0,2.1226,2.3745,2.4082,0.0,0.0,0.0,2.7314,2.8047,2.8476,2.8828,2.9111,2.9268,2.9473,2.9746,3.0049,3.0351,3.0644,3.081,3.0889,3.0889,3.0889,3.0889,3.0889,3.0889,3.0889,3.0889,3.0889,3.0889,3.0889,3.0889,3.0889,3.0889,3.0889,3.0889,3.0889,3.0889,3.0889,3.0889,3.0889,3.0889,3.0889,3.0889,3.0889,3.0889,3.0889,3.0889,3.0889,3.0889,3.0889,3.0889,3.0889,3.0889,3.1016,3.1435,3.1875,3.2305,3.2725,3.3144,3.3418,3.3418,3.3418,3.3418,3.3418,3.3418,3.3418,3.3418,3.3418,3.3418,3.3418,3.3418,3.3418,3.3418,3.3418,3.3418,3.3418,3.3955,3.4258,3.4258,3.5806,3.6649,3.6649,3.7675,3.8521,3.9053,3.9053,3.9347]}]]